[[{"header":{"parameterUnit":"m.s-1","parameterCategory":1,"la1":30.6,"la2":28.766,"lo1":-90.7593,"lo2":-88.6598,"dy":0.0162,"dx":0.0183,"nx":116,"ny":114,"refTime":"2024-03-01T06:00:00:Z","depth":0,"parameterNumber":2,"parameterNumberName":"U-component_of_WINDS"},"data":[0.0,0.0,0.0,0.0,0.0,0.0,0.0,0.0,0.0,0.0,0.0,0.0,0.0,0.0,0.0,0.0,0.0,0.0,0.0,0.0,0.0,0.0,0.0,0.0,0.0,0.0,0.0,0.0,0.0,0.0,0.0,0.0,0.0,0.0,0.0,0.0,0.0,0.0,0.0,0.0,0.0,0.0,0.0,0.0,0.0,0.0,0.0,0.0,0.0,0.0,0.0,0.0,0.0,0.0,0.0,0.0,0.0,0.0,0.0,0.0,0.0,0.0,0.0,0.0,0.0,0.0,0.0,0.0,0.0,0.0,0.0,0.0,0.0,0.0,0.0,0.0,0.0,0.0,0.0,0.0,0.0,0.0,0.0,0.0,0.0,0.0,0.0,0.0,0.0,0.0,0.0,0.0,0.0,0.0,0.0,0.0,0.0,0.0,0.0,0.0,0.0,0.0,0.0,0.0,0.0,0.0,0.0,0.0,0.0,0.0,0.0,0.0,0.0,0.0,0.0,0.0,0.0,0.0,0.0,0.0,0.0,0.0,0.0,0.0,0.0,0.0,0.0,0.0,0.0,0.0,0.0,0.0,0.0,0.0,0.0,0.0,0.0,0.0,0.0,0.0,0.0,0.0,0.0,0.0,0.0,0.0,0.0,0.0,0.0,0.0,0.0,0.0,0.0,0.0,0.0,0.0,0.0,0.0,0.0,0.0,0.0,0.0,0.0,0.0,0.0,0.0,0.0,0.0,0.0,0.0,0.0,0.0,0.0,0.0,0.0,0.0,0.0,0.0,0.0,0.0,0.0,0.0,0.0,0.0,0.0,0.0,0.0,0.0,0.0,0.0,0.0,0.0,0.0,0.0,0.0,0.0,0.0,0.0,0.0,0.0,0.0,0.0,0.0,0.0,0.0,0.0,0.0,0.0,0.0,0.0,0.0,0.0,0.0,0.0,0.0,0.0,0.0,0.0,0.0,0.0,0.0,0.0,0.0,0.0,0.0,0.0,0.0,0.0,0.0,0.0,0.0,0.0,0.0,0.0,0.0,0.0,0.0,0.0,0.0,0.0,0.0,0.0,0.0,0.0,0.0,0.0,0.0,0.0,0.0,0.0,0.0,0.0,0.0,0.0,0.0,0.0,0.0,0.0,0.0,0.0,0.0,0.0,0.0,0.0,0.0,0.0,0.0,0.0,0.0,0.0,0.0,0.0,0.0,0.0,0.0,0.0,0.0,0.0,0.0,0.0,0.0,0.0,0.0,0.0,0.0,0.0,0.0,0.0,0.0,0.0,0.0,0.0,0.0,0.0,0.0,0.0,0.0,0.0,0.0,0.0,0.0,0.0,0.0,0.0,0.0,0.0,0.0,0.0,0.0,0.0,0.0,0.0,0.0,0.0,0.0,0.0,0.0,0.0,0.0,0.0,0.0,0.0,0.0,0.0,0.0,0.0,0.0,0.0,0.0,0.0,0.0,0.0,0.0,0.0,0.0,0.0,0.0,0.0,0.0,0.0,0.0,0.0,0.0,0.0,0.0,0.0,0.0,0.0,0.0,0.0,0.0,0.0,0.0,0.0,0.0,0.0,0.0,0.0,0.0,0.0,0.0,0.0,0.0,0.0,0.0,0.0,0.0,0.0,0.0,0.0,0.0,0.0,0.0,0.0,0.0,0.0,0.0,0.0,0.0,0.0,0.0,0.0,0.0,0.0,0.0,0.0,0.0,0.0,0.0,0.0,0.0,0.0,0.0,0.0,0.0,0.0,0.0,0.0,0.0,0.0,0.0,0.0,0.0,0.0,0.0,0.0,0.0,0.0,0.0,0.0,0.0,0.0,0.0,0.0,0.0,0.0,0.0,0.0,0.0,0.0,0.0,0.0,0.0,0.0,0.0,0.0,0.0,0.0,0.0,0.0,0.0,0.0,0.0,0.0,0.0,0.0,0.0,0.0,0.0,0.0,0.0,0.0,0.0,0.0,0.0,0.0,0.0,0.0,0.0,0.0,0.0,0.0,0.0,0.0,0.0,0.0,0.0,0.0,0.0,0.0,0.0,0.0,0.0,0.0,0.0,0.0,0.0,0.0,0.0,0.0,0.0,0.0,0.0,0.0,0.0,0.0,0.0,0.0,0.0,0.0,0.0,0.0,0.0,0.0,0.0,0.0,0.0,0.0,0.0,0.0,0.0,0.0,0.0,0.0,0.0,0.0,0.0,0.0,0.0,0.0,0.0,0.0,0.0,0.0,0.0,0.0,0.0,0.0,0.0,0.0,0.0,0.0,0.0,0.0,0.0,0.0,0.0,0.0,0.0,0.0,0.0,0.0,0.0,0.0,0.0,0.0,0.0,0.0,0.0,0.0,0.0,0.0,0.0,0.0,0.0,0.0,0.0,0.0,0.0,0.0,0.0,0.0,0.0,0.0,0.0,0.0,0.0,0.0,0.0,0.0,0.0,0.0,0.0,0.0,0.0,0.0,0.0,0.0,0.0,0.0,0.0,0.0,0.0,0.0,0.0,0.0,0.0,0.0,0.0,0.0,0.0,0.0,0.0,0.0,0.0,0.0,0.0,0.0,0.0,0.0,0.0,0.0,0.0,0.0,0.0,0.0,0.0,0.0,0.0,0.0,0.0,0.0,0.0,0.0,0.0,0.0,0.0,0.0,0.0,0.0,0.0,0.0,0.0,0.0,0.0,0.0,0.0,0.0,0.0,0.0,0.0,0.0,0.0,0.0,0.0,0.0,0.0,0.0,0.0,0.0,0.0,0.0,0.0,0.0,0.0,0.0,0.0,0.0,0.0,0.0,0.0,0.0,0.0,0.0,0.0,0.0,0.0,0.0,0.0,0.0,0.0,0.0,0.0,0.0,0.0,0.0,0.0,0.0,0.0,0.0,0.0,0.0,0.0,0.0,0.0,0.0,0.0,0.0,0.0,0.0,0.0,0.0,0.0,0.0,0.0,0.0,0.0,0.0,0.0,0.0,0.0,0.0,0.0,0.0,0.0,0.0,0.0,0.0,0.0,0.0,0.0,0.0,0.0,0.0,0.0,0.0,0.0,0.0,0.0,0.0,0.0,0.0,0.0,0.0,0.0,0.0,0.0,0.0,0.0,0.0,0.0,0.0,0.0,0.0,0.0,0.0,0.0,0.0,0.0,0.0,0.0,0.0,0.0,0.0,0.0,0.0,0.0,0.0,0.0,0.0,0.0,0.0,0.0,0.0,0.0,0.0,0.0,0.0,0.0,0.0,0.0,0.0,0.0,0.0,0.0,0.0,0.0,0.0,0.0,0.0,0.0,0.0,0.0,0.0,0.0,0.0,0.0,0.0,0.0,0.0,0.0,0.0,0.0,0.0,0.0,0.0,0.0,0.0,0.0,0.0,0.0,0.0,0.0,0.0,0.0,0.0,0.0,0.0,0.0,0.0,0.0,0.0,0.0,0.0,0.0,0.0,0.0,0.0,0.0,0.0,0.0,0.0,0.0,0.0,0.0,0.0,0.0,0.0,0.0,0.0,0.0,0.0,0.0,0.0,0.0,0.0,0.0,0.0,0.0,0.0,0.0,0.0,0.0,0.0,0.0,0.0,0.0,0.0,0.0,0.0,0.0,0.0,0.0,0.0,0.0,0.0,0.0,0.0,0.0,0.0,0.0,0.0,0.0,0.0,0.0,0.0,0.0,0.0,0.0,0.0,0.0,0.0,0.0,0.0,0.0,0.0,0.0,0.0,0.0,0.0,0.0,0.0,0.0,0.0,0.0,0.0,0.0,0.0,0.0,0.0,0.0,0.0,0.0,0.0,0.0,0.0,0.0,0.0,0.0,0.0,0.0,0.0,0.0,0.0,0.0,0.0,0.0,0.0,0.0,0.0,0.0,0.0,0.0,0.0,0.0,0.0,0.0,0.0,0.0,0.0,0.0,0.0,0.0,0.0,0.0,0.0,0.0,0.0,0.0,0.0,0.0,0.0,0.0,0.0,0.0,0.0,0.0,0.0,0.0,0.0,0.0,0.0,0.0,0.0,0.0,0.0,0.0,0.0,0.0,0.0,0.0,0.0,0.0,0.0,0.0,0.0,0.0,0.0,0.0,0.0,0.0,0.0,0.0,0.0,0.0,0.0,0.0,0.0,0.0,0.0,0.0,0.0,0.0,0.0,0.0,0.0,0.0,0.0,0.0,0.0,0.0,0.0,0.0,0.0,0.0,0.0,0.0,0.0,0.0,0.0,0.0,0.0,0.0,0.0,0.0,0.0,0.0,0.0,0.0,0.0,0.0,0.0,0.0,0.0,0.0,0.0,0.0,0.0,0.0,0.0,0.0,0.0,0.0,0.0,0.0,0.0,0.0,0.0,0.0,0.0,0.0,0.0,0.0,0.0,0.0,0.0,0.0,0.0,0.0,0.0,0.0,0.0,0.0,0.0,0.0,0.0,0.0,0.0,0.0,0.0,0.0,0.0,0.0,0.0,0.0,0.0,0.0,0.0,0.0,0.0,0.0,0.0,0.0,0.0,0.0,0.0,0.0,0.0,0.0,0.0,0.0,0.0,0.0,0.0,0.0,0.0,0.0,0.0,0.0,0.0,0.0,0.0,0.0,0.0,0.0,0.0,0.0,0.0,0.0,0.0,0.0,0.0,0.0,0.0,0.0,0.0,0.0,0.0,0.0,0.0,0.0,0.0,0.0,0.0,0.0,0.0,0.0,0.0,0.0,0.0,0.0,0.0,0.0,0.0,0.0,0.0,0.0,0.0,0.0,0.0,0.0,0.0,0.0,0.0,0.0,0.0,0.0,0.0,0.0,0.0,0.0,0.0,0.0,0.0,0.0,0.0,0.0,0.0,0.0,0.0,0.0,0.0,0.0,0.0,0.0,0.0,0.0,0.0,0.0,0.0,0.0,0.0,0.0,0.0,0.0,0.0,0.0,0.0,0.0,0.0,0.0,0.0,0.0,0.0,0.0,0.0,0.0,0.0,0.0,0.0,0.0,0.0,0.0,0.0,0.0,0.0,0.0,0.0,0.0,0.0,0.0,0.0,0.0,0.0,0.0,0.0,0.0,0.0,0.0,0.0,0.0,0.0,0.0,0.0,0.0,0.0,0.0,0.0,0.0,0.0,0.0,0.0,0.0,0.0,0.0,0.0,0.0,0.0,0.0,0.0,0.0,0.0,0.0,0.0,0.0,0.0,0.0,0.0,0.0,0.0,0.0,0.0,0.0,0.0,0.0,0.0,0.0,0.0,0.0,0.0,0.0,0.0,0.0,0.0,0.0,0.0,0.0,0.0,0.0,0.0,0.0,0.0,0.0,0.0,0.0,0.0,0.0,0.0,0.0,0.0,0.0,0.0,0.0,0.0,0.0,0.0,0.0,0.0,0.0,0.0,0.0,0.0,0.0,0.0,0.0,0.0,0.0,0.0,0.0,0.0,0.0,0.0,0.0,0.0,0.0,0.0,0.0,0.0,0.0,0.0,0.0,0.0,0.0,0.0,0.0,0.0,0.0,0.0,0.0,0.0,0.0,0.0,0.0,0.0,0.0,0.0,0.0,0.0,0.0,0.0,0.0,0.0,0.0,0.0,0.0,0.0,0.0,0.0,0.0,0.0,0.0,0.0,0.0,0.0,0.0,0.0,0.0,0.0,0.0,0.0,0.0,0.0,0.0,0.0,0.0,0.0,0.0,0.0,0.0,0.0,0.0,0.0,0.0,0.0,0.0,0.0,0.0,0.0,0.0,0.0,0.0,0.0,0.0,0.0,0.0,0.0,0.0,0.0,0.0,0.0,0.0,0.0,0.0,0.0,0.0,0.0,0.0,0.0,0.0,0.0,0.0,0.0,0.0,0.0,0.0,0.0,0.0,0.0,0.0,0.0,0.0,0.0,0.0,0.0,0.0,0.0,0.0,0.0,0.0,0.0,0.0,0.0,0.0,0.0,0.0,0.0,0.0,0.0,0.0,0.0,0.0,0.0,0.0,0.0,0.0,0.0,0.0,0.0,0.0,0.0,0.0,0.0,0.0,0.0,0.0,0.0,0.0,0.0,0.0,0.0,0.0,0.0,0.0,0.0,0.0,0.0,0.0,0.0,0.0,0.0,0.0,0.0,0.0,0.0,0.0,0.0,0.0,0.0,0.0,0.0,-1.8787,0.0,0.0,0.0,0.0,0.0,0.0,0.0,0.0,0.0,0.0,0.0,0.0,0.0,0.0,0.0,0.0,0.0,0.0,0.0,0.0,0.0,0.0,0.0,0.0,0.0,0.0,0.0,0.0,0.0,0.0,0.0,0.0,0.0,0.0,0.0,-2.1875,-2.1455,-2.1502,-2.2187,-2.2402,-2.1988,-2.0995,-2.1256,-2.1676,-2.2262,0.0,0.0,0.0,0.0,0.0,0.0,0.0,0.0,0.0,0.0,0.0,0.0,0.0,0.0,0.0,0.0,0.0,0.0,0.0,0.0,0.0,0.0,0.0,0.0,0.0,0.0,0.0,0.0,0.0,0.0,0.0,0.0,0.0,0.0,0.0,0.0,0.0,0.0,0.0,0.0,0.0,0.0,0.0,0.0,0.0,0.0,0.0,0.0,0.0,0.0,0.0,0.0,0.0,0.0,0.0,0.0,0.0,0.0,0.0,0.0,0.0,0.0,0.0,0.0,0.0,0.0,0.0,0.0,0.0,0.0,0.0,-1.8993,0.0,0.0,0.0,0.0,0.0,0.0,0.0,0.0,0.0,0.0,0.0,0.0,0.0,0.0,0.0,0.0,0.0,0.0,0.0,0.0,0.0,0.0,0.0,-2.1728,-2.1914,-2.2256,-2.16,-2.1416,0.0,0.0,0.0,0.0,-2.1122,-2.1289,-2.165,-2.1377,-2.158,-2.2402,-2.2212,-2.1787,-2.1139,-2.0054,-2.0065,-2.0996,-2.2028,0.0,0.0,0.0,0.0,0.0,0.0,0.0,0.0,0.0,0.0,0.0,0.0,0.0,0.0,0.0,0.0,0.0,0.0,0.0,0.0,0.0,0.0,0.0,0.0,0.0,0.0,0.0,0.0,0.0,0.0,0.0,0.0,0.0,0.0,0.0,0.0,0.0,0.0,0.0,0.0,0.0,0.0,0.0,0.0,0.0,0.0,0.0,0.0,0.0,0.0,0.0,0.0,0.0,0.0,0.0,0.0,0.0,0.0,0.0,0.0,0.0,0.0,0.0,-1.6505,-1.6059,-1.6059,-1.6112,-1.6266,-1.6585,-1.7282,-1.769,-1.7907,0.0,0.0,0.0,0.0,0.0,0.0,0.0,0.0,0.0,0.0,0.0,0.0,0.0,0.0,0.0,0.0,0.0,0.0,0.0,0.0,0.0,0.0,-2.1084,-2.1298,-2.1356,-2.1259,-2.1416,-2.1855,0.0,-2.083,-2.1181,-2.0859,-2.0723,-2.0781,-2.1064,-2.1475,-2.1973,-2.1091,-2.0618,-2.0494,-2.005,-1.9805,-1.9669,-1.987,-2.0168,-2.0531,0.0,0.0,0.0,0.0,0.0,0.0,0.0,0.0,0.0,0.0,0.0,0.0,0.0,0.0,0.0,0.0,0.0,0.0,0.0,0.0,0.0,0.0,0.0,0.0,0.0,0.0,0.0,0.0,0.0,0.0,0.0,0.0,0.0,0.0,0.0,0.0,0.0,0.0,0.0,0.0,0.0,-1.9497,-1.9497,0.0,0.0,0.0,0.0,0.0,0.0,0.0,0.0,0.0,0.0,0.0,0.0,0.0,-1.6436,-1.6787,-1.6566,-1.6584,-1.6835,-1.6955,-1.7032,-1.7032,-1.7235,-1.7375,-1.7395,-1.7306,0.0,-1.804,-1.8124,0.0,0.0,0.0,0.0,0.0,0.0,0.0,0.0,0.0,0.0,0.0,0.0,0.0,0.0,0.0,0.0,0.0,0.0,0.0,0.0,0.0,-2.1073,-2.1385,-2.1914,-2.1912,-2.1934,-2.1894,-2.1523,-2.1279,-2.119,-2.0801,-2.0723,-2.0937,-2.0315,-2.0122,-2.0456,-1.9892,-1.9806,-2.01,-1.9444,-1.9012,-1.8905,-1.873,-1.8895,-1.9336,-1.9453,0.0,0.0,0.0,0.0,0.0,0.0,0.0,0.0,0.0,0.0,0.0,0.0,0.0,0.0,0.0,0.0,0.0,0.0,0.0,0.0,0.0,0.0,0.0,0.0,0.0,0.0,0.0,0.0,0.0,0.0,0.0,0.0,0.0,0.0,0.0,0.0,0.0,0.0,0.0,-1.7436,-1.7436,-1.7436,-1.6936,-1.6622,0.0,0.0,0.0,0.0,0.0,0.0,0.0,0.0,0.0,-1.6079,-1.64,-1.6683,-1.6817,-1.6978,-1.7074,-1.7201,-1.7328,-1.744,-1.7454,-1.7522,-1.7675,-1.7822,-1.7522,-1.7653,-1.8061,-1.7947,-1.8558,-1.9546,0.0,0.0,0.0,0.0,-2.2812,-2.3789,0.0,0.0,0.0,0.0,0.0,0.0,0.0,0.0,0.0,0.0,0.0,0.0,-2.1142,-2.1492,-2.1982,-2.2627,-2.2676,-2.25,-2.207,-2.1738,-2.1406,-2.1074,-2.0635,-2.0605,-2.1055,-2.0005,-1.9504,-1.9537,-1.9475,-1.9738,-2.0192,-1.9437,-1.9011,-1.8925,-1.8691,-1.8529,-1.8477,-1.8299,-1.7396,-1.6146,0.0,0.0,0.0,0.0,0.0,0.0,0.0,0.0,0.0,0.0,0.0,0.0,0.0,0.0,0.0,0.0,0.0,0.0,0.0,0.0,0.0,0.0,0.0,0.0,0.0,0.0,0.0,0.0,0.0,0.0,0.0,0.0,0.0,0.0,0.0,0.0,0.0,-1.6082,-1.5912,-1.5791,-1.5899,-1.5912,0.0,0.0,0.0,0.0,0.0,0.0,-1.6159,-1.638,-1.6583,-1.6656,-1.7108,-1.7467,-1.7541,-1.7709,-1.7849,-1.7929,-1.7929,-1.7929,-1.7929,-1.8003,-1.8163,-1.8364,-1.8063,-1.8056,-1.8231,-1.798,-1.8035,-1.8387,-1.8981,-2.0008,-2.1118,-2.1472,-2.2427,-2.3635,0.0,0.0,0.0,0.0,0.0,0.0,0.0,0.0,0.0,0.0,0.0,-2.0732,-2.1142,-2.2334,-2.3129,-2.3169,-2.3169,-2.2993,-2.251,-2.1318,-2.0664,-2.0635,-2.0176,-2.0146,-2.0625,-2.0726,-2.058,-2.0135,-2.0469,-2.0791,-2.1143,-2.075,-2.0414,-2.0087,-2.0127,-1.9479,-1.8488,-1.8477,-1.7967,-1.716,-1.75,0.0,0.0,0.0,0.0,0.0,0.0,0.0,0.0,0.0,0.0,0.0,0.0,0.0,0.0,0.0,0.0,0.0,0.0,0.0,0.0,0.0,0.0,0.0,0.0,0.0,0.0,0.0,0.0,0.0,0.0,0.0,0.0,0.0,0.0,0.0,0.0,0.0,0.0,-1.5865,-1.6079,0.0,0.0,0.0,0.0,-1.6226,-1.6253,-1.6543,-1.7105,-1.7152,-1.7286,-1.7508,-1.7829,-1.8136,-1.8424,-1.8437,-1.8584,-1.8851,-1.8851,-1.8851,-1.8865,-1.9152,-1.9343,-1.9285,-1.8985,-1.8865,-1.8784,-1.7701,-1.7904,-1.8924,-1.8639,-1.932,-2.0616,-2.1872,-2.2652,-2.3226,0.0,0.0,0.0,0.0,0.0,0.0,0.0,0.0,-2.0146,-2.0146,-2.0391,-2.1094,-2.2334,-2.3369,-2.4199,-2.4775,-2.4824,-2.4394,-2.3398,-2.2129,-2.1289,-2.1006,-2.0303,-1.97,-1.9331,-1.9068,-1.901,-1.9098,-1.9773,-2.0354,-2.0858,-2.0901,-2.0895,-2.0788,-2.0601,-2.018,-1.9519,-1.8557,-1.7688,-1.6871,-1.6794,-1.6306,0.0,0.0,0.0,0.0,0.0,0.0,0.0,0.0,0.0,0.0,0.0,0.0,0.0,0.0,0.0,0.0,0.0,0.0,0.0,0.0,0.0,0.0,0.0,0.0,0.0,0.0,0.0,0.0,0.0,0.0,0.0,0.0,0.0,0.0,0.0,0.0,0.0,-1.6406,-1.682,0.0,-1.6707,-1.6847,-1.6921,-1.6891,-1.7058,-1.7295,-1.7702,-1.7909,-1.8143,-1.8437,-1.8918,-1.9225,-1.9332,-1.9519,-1.9659,-1.9766,-1.9766,-1.9766,-1.97,-1.9686,-1.9646,-1.9633,-1.9339,-1.9205,-1.9158,-1.8544,-1.8211,-1.8064,-1.7752,-1.8835,-2.057,-2.1058,-2.2554,-2.4422,0.0,0.0,0.0,0.0,0.0,0.0,0.0,0.0,-1.9756,-1.9893,-2.043,-2.1396,-2.2978,-2.418,-2.5109,-2.5889,-2.5684,-2.4961,-2.3662,-2.2227,-2.1182,-2.0605,-2.0439,-1.9786,-1.8572,-1.8971,-1.9074,-1.8784,-1.9666,-2.0341,-2.0828,-2.1022,-2.1109,-2.1102,-2.0909,-2.0661,-2.0314,-1.9225,-1.8143,-1.7114,-1.662,-1.6246,-1.5925,0.0,0.0,0.0,0.0,0.0,0.0,0.0,0.0,0.0,0.0,0.0,0.0,0.0,0.0,0.0,0.0,0.0,0.0,0.0,0.0,0.0,0.0,0.0,0.0,0.0,0.0,0.0,0.0,0.0,0.0,0.0,0.0,0.0,0.0,0.0,-1.6894,-1.6987,-1.7435,-1.7702,-1.7661,-1.7689,-1.7742,-1.7749,-1.7929,-1.821,-1.8617,-1.8824,-1.9065,-1.9359,-1.984,-2.0094,-2.0094,-2.0287,-2.0381,-2.0381,-2.018,-2.014,-2.016,-1.9933,-1.98,-1.9786,-1.9599,-1.9795,-2.0134,-1.9925,-1.968,-1.9401,-1.8016,-1.8686,-2.047,-2.0835,-2.2518,-2.4689,0.0,0.0,0.0,0.0,0.0,0.0,0.0,-1.9531,-1.9414,-1.9844,-2.0654,-2.1707,-2.3013,-2.4709,-2.5977,-2.6406,-2.5664,-2.4541,-2.3198,-2.1523,-2.0214,-1.9346,-2.045,-2.0278,-1.8527,-2.0536,-2.09,-1.9464,-2.0267,-2.0835,-2.1109,-2.1109,-2.1116,-2.1122,-2.1109,-2.0955,-2.0681,-2.0374,-1.9361,-1.7982,-1.7128,-1.6914,-1.7072,0.0,0.0,0.0,0.0,0.0,0.0,0.0,0.0,0.0,0.0,0.0,0.0,0.0,0.0,0.0,0.0,0.0,0.0,0.0,0.0,0.0,0.0,0.0,0.0,0.0,0.0,0.0,0.0,0.0,0.0,0.0,0.0,0.0,-1.6286,-1.6857,-1.7347,-1.7589,-1.7916,-1.8169,-1.8504,-1.8222,-1.8288,-1.8911,-1.8958,-1.9219,-1.98,-1.9826,-1.996,-2.0193,-2.0541,-2.0688,-2.0688,-2.0688,-2.0688,-2.0681,-2.01,-1.998,-2.0193,-1.9953,-1.9813,-1.9813,-1.9806,-2.0485,-2.1529,-2.1586,-2.2289,-2.3018,-1.9516,-1.9006,-2.0363,-2.1407,-2.2643,-2.3958,0.0,0.0,0.0,0.0,0.0,0.0,-1.9046,-1.8851,-1.8939,-1.9404,-2.0771,-2.2432,-2.4326,-2.6094,-2.7305,-2.7734,-2.6406,-2.5,-2.3701,-2.1406,-1.999,-1.9756,-1.9483,-1.9636,-2.0279,-1.9876,-1.988,-2.0314,-2.0768,-2.1029,-2.1109,-2.1109,-2.1223,-2.1423,-2.1203,-2.1182,-2.1346,-2.0768,-2.0194,-1.9481,-1.8444,-1.7662,-1.7119,0.0,0.0,0.0,0.0,0.0,0.0,0.0,0.0,0.0,0.0,0.0,0.0,0.0,0.0,0.0,0.0,0.0,0.0,0.0,0.0,0.0,0.0,0.0,0.0,0.0,0.0,0.0,0.0,0.0,0.0,0.0,-1.64,-1.6587,-1.6587,-1.7475,-1.823,-1.8524,-1.9192,-1.9521,-1.9452,-1.9559,-1.9554,-1.9559,-1.9753,-2.004,-2.0414,-2.0434,-2.0568,-2.0855,-2.0949,-2.0989,-2.0989,-2.0989,-2.0989,-2.0989,-2.0615,-2.0588,-2.0848,-2.0341,-2.0114,-2.01,-1.9887,-1.9861,-2.009,-2.1145,-2.1809,-2.2073,-2.1979,-2.2617,-2.3687,-2.3998,-2.4785,-2.5685,0.0,0.0,0.0,0.0,0.0,0.0,-1.8705,-1.8451,-1.8594,-1.9209,-2.081,-2.2627,-2.458,-2.6025,-2.7031,-2.7461,-2.5752,-2.4111,-2.2803,-2.0957,-2.0166,-2.0713,-2.043,-2.0657,-2.1502,-2.0762,-2.044,-2.0675,-2.1089,-2.1296,-2.1296,-2.1423,-2.157,-2.1724,-2.143,-2.139,-2.1588,-2.1056,-2.0755,-2.0528,-1.9726,-1.8945,-1.8224,-1.7335,-1.7141,-1.7241,-1.67,-1.686,-1.7286,-1.6593,0.0,0.0,0.0,0.0,0.0,0.0,0.0,0.0,0.0,0.0,0.0,0.0,0.0,0.0,0.0,0.0,0.0,0.0,0.0,0.0,0.0,0.0,0.0,0.0,-1.6901,-1.7341,-1.7602,-1.8237,-1.8871,-1.9406,-1.986,-2.0261,-2.0341,-2.0394,-2.0401,-2.0354,-2.0501,-2.0675,-2.0848,-2.0855,-2.0935,-2.1109,-2.1109,-2.1109,-2.1109,-2.0989,-2.0989,-2.1109,-2.0688,-2.0708,-2.1089,-2.0501,-2.0173,0.0,-1.9927,-1.9972,-2.0422,-2.1926,-2.2927,0.0,0.0,0.0,0.0,0.0,-2.5907,-2.6367,0.0,0.0,0.0,0.0,0.0,0.0,-1.8607,-1.8217,-1.832,-1.918,-2.081,-2.25,-2.4102,-2.506,-2.582,-2.6201,-2.4307,-2.2559,-2.1278,-2.0547,-2.0742,-2.2109,-2.2602,-2.273,-2.2538,-2.2444,-2.1847,-2.0728,-2.1346,-2.1614,-2.1628,-2.185,-2.2004,-2.2024,-2.173,-2.1668,-2.1648,-2.1316,-2.1189,-2.1142,-2.0915,-2.0454,-1.978,-1.8671,-1.8711,-1.9259,-1.8382,-1.8009,-1.7769,-1.7434,0.0,0.0,0.0,0.0,0.0,0.0,0.0,0.0,0.0,0.0,0.0,0.0,0.0,0.0,0.0,0.0,0.0,0.0,0.0,0.0,0.0,0.0,0.0,0.0,-1.7562,-1.8343,-1.8985,-1.9098,-1.9412,-2.0187,-2.0253,-2.0535,-2.1056,-2.0875,-2.0828,-2.1089,-2.1109,-2.1109,-2.1109,0.0,0.0,0.0,0.0,-2.1109,-2.1109,-2.0855,-2.0855,-2.1102,-2.0548,-2.0616,-2.1288,-2.0542,-2.0288,-2.0449,-2.0159,-2.0667,-2.1744,-2.3391,-2.4931,-2.6173,-2.4568,-2.4654,-2.5814,-2.6397,-2.6543,0.0,0.0,0.0,0.0,0.0,0.0,0.0,-1.8252,-1.8057,-1.832,-1.918,-2.081,-2.2266,-2.3227,-2.4473,-2.5234,-2.536,-2.3682,-2.2246,-2.1259,-2.1406,-2.2227,-2.3857,-2.419,-2.4174,-2.3755,-2.3217,-2.2299,-2.1029,-2.1383,-2.1614,-2.1628,-2.185,-2.2111,-2.2318,-2.2031,-2.1904,-2.1897,-2.1837,-2.1683,-2.1547,-2.1663,-2.1243,-2.0434,-1.9726,-1.9426,-1.9312,-1.8905,-1.9018,-1.9219,-1.821,-1.811,-1.8183,-1.6867,-1.5965,0.0,0.0,0.0,0.0,0.0,0.0,0.0,0.0,0.0,0.0,0.0,0.0,0.0,0.0,0.0,0.0,0.0,0.0,0.0,-1.7635,-1.8317,-1.9038,-1.98,-2.0187,-2.0401,-2.0568,-2.0795,-2.0982,-2.1096,-2.1056,-2.1049,-2.1109,-2.1109,-2.1109,-2.1109,-2.1109,-2.1109,-2.1109,-2.1109,-2.1109,-2.1109,-2.1056,-2.1056,-2.1109,0.0,0.0,-2.2497,-2.093,-2.0879,-2.2051,-2.1708,-2.1693,-2.2125,-2.4607,-2.6545,-2.7833,-2.7479,-2.7494,-2.7752,-2.7873,-2.749,-2.6885,0.0,0.0,0.0,0.0,0.0,0.0,-1.8144,-1.8008,-1.8242,-1.8877,-2.0088,-2.123,-2.2048,-2.2764,-2.3154,-2.3154,-2.1768,-2.0996,-2.1181,-2.2246,-2.3701,-2.5635,-2.5857,-2.5613,-2.4982,-2.4032,-2.286,-2.155,-2.1844,-2.1984,-2.1991,-2.2285,-2.2505,-2.2632,-2.2331,-2.2205,-2.2191,-2.2044,-2.1904,-2.1784,-2.1931,-2.1724,-2.1296,-2.1009,-2.0802,-2.0641,-2.0347,-2.0241,-2.01,-1.9225,-1.8925,-1.8718,-1.7522,-1.664,-1.5939,0.0,0.0,0.0,0.0,0.0,0.0,0.0,0.0,0.0,0.0,0.0,0.0,0.0,0.0,-1.6139,-1.6433,0.0,-1.7789,-1.8377,-1.9092,-1.978,-2.0374,-2.0708,-2.0895,-2.0895,-2.1022,-2.1109,-2.1109,-2.1109,-2.1109,-2.1109,-2.1109,-2.1109,-2.1109,-2.1109,-2.1109,-2.1109,-2.1109,-2.1109,-2.1109,-2.0962,-2.1394,-2.2341,-2.1244,-2.1602,-2.3189,-2.2141,-2.1978,-2.252,-2.303,-2.3119,-2.3051,-2.5229,-2.7109,-2.8584,-2.8369,-2.8291,-2.8271,-2.8057,-2.7705,-2.7275,0.0,0.0,0.0,0.0,0.0,0.0,0.0,-1.8008,-1.812,-1.8549,-1.927,-2.0068,-2.0732,-2.0888,-2.0908,-2.082,-2.0127,-2.0215,-2.1483,-2.3213,-2.5166,-2.7412,-2.7743,-2.7422,-2.6602,-2.5617,-2.4397,-2.3007,-2.299,-2.2941,-2.2948,-2.2923,-2.2928,-2.2914,-2.2552,-2.2418,-2.2405,-2.2171,-2.2071,-2.2071,-2.2071,-2.2071,-2.2064,-2.2004,-2.1951,-2.1864,-2.157,-2.1078,-2.0347,-1.9873,-1.9325,-1.8704,-1.7916,-1.7268,-1.662,-1.5738,-1.519,0.0,0.0,0.0,0.0,0.0,0.0,0.0,0.0,-1.495,-1.5164,-1.6274,-1.6536,-1.6744,-1.728,-1.8009,-1.8691,-1.9038,-1.978,-2.0421,-2.0722,-2.0962,-2.1109,-2.1109,-2.1109,-2.1109,-2.1109,-2.1109,-2.1109,-2.1109,-2.1109,-2.1109,-2.1109,-2.1418,-2.1418,-2.1109,-2.1418,-2.1607,-2.1607,-2.1361,-2.2217,-2.4054,-2.2512,-2.2668,-2.4378,-2.3855,-2.3526,-2.3613,-2.4655,-2.5057,-2.5044,-2.628,-2.7608,-2.8887,-2.8545,-2.8369,-2.8252,-2.7963,-2.7787,-2.762,0.0,0.0,0.0,0.0,0.0,0.0,0.0,0.0,-1.812,-1.8549,-1.9053,-1.9394,-1.9492,-1.9834,-1.9912,-1.9541,-2.043,-2.1522,-2.2799,-2.4504,-2.6641,-2.918,-3.0043,-3.009,-2.926,-2.9128,-2.8299,-2.671,-2.5455,-2.4767,-2.4775,-2.352,-2.2928,-2.2914,-2.2552,-2.2418,-2.2412,-2.2385,-2.2372,-2.2372,-2.2372,-2.2372,-2.2345,-2.2084,-2.1824,-2.1628,-2.1263,-2.0448,-1.9564,-1.9497,-1.9025,-1.8477,-1.8055,-1.7582,-1.6978,-1.6039,-1.5204,-1.4502,-1.4175,-1.4115,-1.4128,-1.4095,-1.4282,-1.4623,0.0,-1.5725,-1.6308,-1.6965,-1.7306,-1.7542,-1.7829,-1.8457,-1.9058,-1.9613,-2.0221,-2.0728,-2.1022,-2.1089,-2.1109,-2.1109,-2.1109,-2.1109,-2.1109,-2.1109,-2.1109,-2.1109,-2.1109,-2.1109,-2.1109,-2.2529,-2.2647,-2.1172,-2.2522,-2.3325,-2.3325,-2.3288,-2.407,-2.5733,-2.5518,-2.6079,-2.7308,-2.5872,-2.5949,-2.7234,-2.7374,-2.8005,-2.8959,-2.9136,-2.9108,-2.8916,-2.8867,-2.8623,-2.8281,-2.8242,-2.7988,-2.7708,0.0,0.0,0.0,0.0,0.0,0.0,0.0,0.0,0.0,-1.8217,-1.8428,-1.8545,-1.8545,-1.8701,-1.874,-1.8564,-1.9502,-2.0967,-2.2964,-2.4719,-2.6992,-2.9814,-3.0781,-3.0832,-2.9995,-3.0004,-2.9291,-2.7847,-2.7213,-2.6891,-2.6899,-2.6252,-2.5987,-2.5979,-2.5835,-2.5774,-2.5707,-2.4654,-2.4192,-2.4111,-2.2882,-2.2218,-2.1844,-2.1209,-2.0575,-2.0054,-2.0267,-1.9706,0.0,-1.845,-1.8163,-1.7943,-1.7816,-1.7255,-1.6583,-1.5985,-1.5158,-1.4496,-1.4369,-1.4215,-1.4168,-1.4553,-1.4943,-1.5391,-1.6025,-1.648,-1.6998,-1.7528,-1.8029,-1.8457,-1.8758,-1.9432,-2.002,-2.0274,-2.1505,-2.2075,-2.1215,-2.1756,-2.2179,-2.1871,-2.1074,-2.0735,-2.1076,-2.1971,-2.216,-2.1172,-2.2882,-2.3551,-2.2584,-2.4108,-2.4648,-2.397,-2.4648,-2.5016,-2.5016,-2.5016,-2.5802,-2.7383,-2.6461,-2.6747,-2.8115,-2.7505,-2.7921,-2.9182,-2.8946,-2.9288,-2.9912,-2.9678,-2.9609,-2.9639,-2.9394,-2.9189,-2.8975,-2.8476,-2.8174,-2.7998,0.0,0.0,0.0,0.0,0.0,0.0,0.0,0.0,0.0,0.0,-1.8008,-1.8008,-1.8008,-1.8008,-1.8008,-1.8008,-1.8799,-2.0234,-2.2428,-2.4417,-2.6787,-2.9551,-3.0859,-3.1351,-3.0951,-3.1017,-3.0628,-2.9613,-2.9148,-2.8952,-2.8886,-2.8435,-2.8172,-2.8163,-2.813,-2.781,-2.7362,-2.5848,-2.5034,-2.4475,-2.2757,-2.171,-2.1082,-2.012,-1.9152,-1.8377,-1.8885,-1.845,-1.7569,-1.7128,-1.6874,-1.6767,-1.6927,-1.6486,-1.5865,-1.5651,-1.5023,-1.4402,-1.4402,-1.4369,-1.4469,-1.5057,-1.5638,-1.6226,-1.6814,-1.7241,-1.7715,-1.8163,-1.8684,-1.9219,-1.9883,-2.0306,-2.0855,-2.1746,-2.2813,-2.3296,-2.24,-2.3018,-2.3224,-2.229,-2.1543,-2.1124,-2.1348,-2.2516,-2.3034,-2.2317,-2.4438,-2.5331,-2.4294,-2.5802,-2.647,-2.6037,-2.6401,-2.6651,-2.6651,-2.6651,-2.7503,-2.9098,-2.794,-2.7931,-2.9098,-2.9098,-2.9596,-3.0371,-3.0068,-3.0107,-3.0361,-3.0059,-3.0039,-3.0166,-2.9863,-2.9678,-2.9492,-2.8877,-2.8574,-2.8408,0.0,0.0,0.0,0.0,0.0,0.0,0.0,0.0,0.0,0.0,0.0,0.0,0.0,-1.8008,-1.8008,-1.8008,-1.8799,-1.9863,-2.1161,-2.3672,-2.6114,-2.8252,-3.0381,-3.1854,-3.2711,-3.3131,-3.3282,-3.3228,-3.157,-3.0707,-3.0707,-2.9017,-2.8172,-2.8155,-2.7865,-2.6919,-2.5539,-2.4895,-2.3781,-2.2425,-2.1496,-2.0802,-2.0147,-1.8985,-1.7809,-1.6814,-1.7172,-1.6529,-1.5484,-1.5471,-1.5084,-1.4716,-1.5284,-1.5251,-1.5048,-1.5035,-1.4569,-1.4102,-1.4102,-1.4509,-1.5122,-1.5658,-1.6246,-1.6834,-1.7422,-1.8016,-1.8537,-1.8831,-1.9145,-1.9802,-2.1252,-2.0812,-2.124,-2.4277,-2.4096,-2.394,-2.5019,-2.4848,-2.3965,-2.2233,-2.2767,-2.2931,0.0,-2.2305,-2.3282,-2.5066,-2.5269,-2.5485,-2.5899,-2.7443,-2.7623,-2.6037,-2.7503,-2.8358,-2.8358,-2.8358,-2.9157,-3.083,-3.0772,-3.0772,-3.083,-3.083,-3.082,-3.0869,-3.0859,-3.0859,-3.0869,-3.0859,-3.0596,-3.0195,-3.0185,-2.9932,-2.9626,-2.9597,-2.9258,-2.8838,0.0,0.0,0.0,0.0,0.0,0.0,0.0,0.0,0.0,0.0,0.0,0.0,0.0,0.0,0.0,0.0,-1.8525,-1.9404,-2.0703,-2.2728,-2.4639,-2.6464,-2.8652,-3.0068,-3.0644,-3.1641,-3.2158,-3.2158,-3.1869,-3.1746,-3.1746,-3.1115,-3.0856,-3.0856,-3.0717,-3.0406,-2.9852,-2.8179,-2.6814,-2.568,-2.372,-2.1882,-2.0145,-1.8945,-1.7761,-1.6696,0.0,-1.5115,-1.4159,-1.4008,-1.4207,-1.4619,-1.509,-1.5004,-1.459,-1.4001,-1.3794,-1.3921,-1.4509,-1.5001,-1.5484,-1.646,-1.7154,-1.7696,-1.8337,-1.9535,-2.0245,-1.9101,-2.0435,-2.1595,-2.087,-2.1414,-2.2485,-2.4072,-2.5252,-2.5789,-2.5364,-2.5954,-2.5856,-2.4293,-2.3596,-2.3808,-2.5201,0.0,0.0,-2.5271,-2.7337,-2.8286,-2.7605,-2.9157,-2.9835,-2.9285,-2.9776,-3.0079,-3.0079,-3.0079,-3.0333,-3.0889,-3.0889,-3.0889,-3.0889,-3.0889,-3.0889,-3.0889,-3.0889,-3.0889,-3.0889,-3.0889,-3.0801,-3.0654,-3.0654,-3.0381,-2.999,-2.999,-2.9717,-2.9287,0.0,0.0,0.0,0.0,0.0,0.0,0.0,0.0,0.0,0.0,0.0,0.0,0.0,0.0,0.0,0.0,0.0,-1.8828,-1.9814,-2.1398,-2.2871,-2.4297,-2.626,-2.7519,-2.8002,-2.8935,-2.9453,-2.9453,-2.9893,-3.0107,-3.0107,-3.0477,-3.0614,-3.0624,-3.0713,-3.048,-2.978,-2.8213,-2.6699,-2.5194,-2.339,-2.1427,-1.9456,-1.8328,-1.7355,0.0,-1.5464,-1.4733,-1.4168,-1.3966,-1.4305,-1.4781,-1.4666,-1.4367,-1.3967,-1.3358,-1.3641,-1.4282,-1.5064,-1.5638,-1.6279,-1.7414,-1.7996,-1.8588,-1.9624,-2.0628,-2.1148,-2.0344,-2.1487,-2.2363,-2.1584,-2.1809,-2.2786,-2.4838,-2.573,-2.6287,-2.6535,-2.7051,-2.7004,-2.5748,-2.4996,-2.5111,-2.6608,0.0,0.0,-2.683,-2.8784,-2.9757,-2.9307,-3.0333,-3.0889,-3.0889,-3.0889,-3.0889,-3.0889,-3.0889,-3.0889,-3.0889,-3.0889,-3.0889,-3.0889,-3.0889,-3.0889,-3.0889,-3.0889,-3.0889,-3.0889,-3.0889,-3.0889,-3.0889,-3.0889,-3.0703,-3.0449,-3.0449,-3.0166,-2.9707,0.0,0.0,0.0,0.0,0.0,0.0,0.0,0.0,0.0,0.0,0.0,0.0,0.0,0.0,0.0,0.0,0.0,0.0,-1.8609,-1.986,-2.0948,-2.1709,-2.3379,-2.4482,-2.494,-2.5391,-2.5586,-2.5586,-2.6074,-2.6289,-2.6309,-2.7119,-2.7552,-2.7571,-2.791,-2.7195,-2.5612,-2.5272,-2.3695,-2.1294,-2.0714,-1.9557,-1.8137,-1.7274,-1.6602,-1.6024,-1.5472,-1.5321,-1.534,-1.5234,-1.5215,-1.5054,-1.4145,-1.3575,-1.3319,-1.3366,-1.4137,-1.5162,-1.5732,-1.6569,-1.7538,-1.8338,-1.8816,-1.9518,-2.1183,-2.1264,-2.1306,-2.2207,-2.2196,-2.2281,-2.3267,-2.2172,-2.2426,-2.6349,-2.5731,-2.5748,-2.8542,-2.8281,-2.7487,-2.6518,-2.6855,-2.6893,-2.6481,-2.725,0.0,-2.9567,0.0,-2.9951,-3.084,-3.0889,-3.0889,-3.0889,-3.0889,-3.0889,-3.0889,-3.0889,-3.0889,-3.0889,-3.0889,-3.0889,-3.0889,-3.0889,-3.0889,-3.0889,-3.0889,-3.0889,-3.0889,-3.0889,-3.0889,-3.0889,-3.0889,-3.0879,-3.0859,-3.0879,-3.0596,-3.0078,0.0,0.0,0.0,0.0,0.0,0.0,0.0,0.0,0.0,0.0,0.0,0.0,0.0,0.0,0.0,0.0,0.0,0.0,-1.9109,-2.0041,-2.0427,-1.9979,-2.1611,-2.2578,-2.2695,-2.374,-2.4287,-2.4287,-2.4717,-2.4922,-2.4922,-2.5146,-2.5244,-2.5254,-2.5352,-2.515,-2.4717,-2.4307,-2.3409,-2.2141,-2.1685,-2.0334,-1.8544,-1.8092,-1.7616,-1.707,-1.6692,-1.6873,-1.7079,-1.5658,-1.5336,-1.5527,-1.5679,-1.5211,-1.4764,-1.5635,-1.5611,-1.5511,-1.6583,-1.7983,-1.9076,-1.8855,-2.0269,-2.1565,-2.0783,-2.1786,-2.2537,-2.145,-2.2351,-2.3103,-2.2355,-2.2702,-2.3843,-2.6199,-2.6763,-2.7506,-2.9163,-2.9492,-2.9235,-2.8317,-2.8339,-2.8354,-2.8231,-2.8435,0.0,0.0,-2.9746,-2.9951,-3.084,-3.0889,-3.0889,-3.0889,-3.0889,-3.0889,-3.0889,-3.0889,-3.0889,-3.0889,-3.0889,-3.0889,-3.0889,-3.0889,-3.0889,-3.0889,-3.0889,-3.0889,-3.0889,-3.0889,-3.0889,-3.0889,-3.0889,-3.0674,-3.042,-3.0762,-3.0596,-3.0166,0.0,0.0,0.0,0.0,0.0,0.0,0.0,0.0,0.0,0.0,0.0,0.0,0.0,0.0,0.0,0.0,0.0,0.0,0.0,-1.9748,-1.9799,-1.9333,-1.9881,-2.0185,-2.0185,-2.0889,-2.1348,-2.1523,-2.1726,-2.1982,-2.2168,-2.2353,-2.2441,-2.2451,-2.2646,-2.2725,-2.2715,-2.2471,-2.1875,0.0,0.0,-1.9822,-1.8378,-1.8229,-1.797,-1.7675,-1.7515,-1.7789,-1.8058,-1.6794,-1.6105,-1.5909,-1.6658,-1.6436,-1.6258,-1.7911,-1.7801,-1.7448,-1.9214,-2.0076,-2.0458,-2.0704,-2.1721,-2.2454,-2.182,-2.2494,-2.2921,-2.2032,-2.2712,-2.3158,-2.2036,-2.2461,-2.3516,-2.5244,-2.5928,-2.6953,-2.8994,-2.9326,-2.9385,-2.9473,-2.9316,-2.9277,-2.9463,-2.9316,-2.957,0.0,-3.0098,-3.0146,-3.085,-3.0889,-3.0889,-3.0889,-3.0889,-3.0889,-3.0889,-3.0889,-3.0889,-3.0889,-3.0889,-3.0889,-3.0889,-3.0889,-3.0889,-3.0889,0.0,-3.0889,-3.0889,-3.0889,-3.0889,-3.0889,-3.0889,-3.0732,-3.0537,-3.0791,-3.0723,-3.0508,0.0,0.0,0.0,0.0,0.0,0.0,0.0,0.0,0.0,0.0,0.0,0.0,0.0,0.0,0.0,0.0,0.0,0.0,0.0,0.0,-1.9362,-1.9299,-1.8522,-1.8066,-1.8008,-1.8008,-1.8184,-1.852,-1.852,-1.875,-1.9131,-1.9492,-1.9658,-1.9678,-2.0059,-2.0263,-2.0263,-2.0263,-1.9832,-1.9121,-1.9121,-1.8672,-1.8008,0.0,-1.8008,-1.8008,-1.8008,-1.8247,-1.8524,-1.8082,-1.7151,-1.6354,-1.7584,-1.758,-1.7621,-2.018,-2.0257,-2.0081,-2.2368,-2.2397,-2.2025,-2.2966,-2.3087,-2.3053,-2.327,-2.3044,-2.2812,-2.3003,-2.2939,-2.2652,-2.209,-2.1973,-2.2549,-2.4307,-2.459,-2.5625,-2.8594,-2.8691,-2.8916,-3.0146,-2.9961,-2.9893,-3.0254,-2.9961,-3.0068,-3.083,-3.0518,-3.0459,-3.0869,-3.0889,-3.0889,-3.0889,-3.0889,-3.0889,-3.0889,-3.0889,-3.0889,-3.0889,-3.0889,-3.0889,-3.0889,-3.0889,-3.0889,-3.0889,0.0,0.0,-3.0889,-3.0889,-3.0889,-3.0889,-3.0889,-3.0889,-3.0889,-3.0889,-3.0889,-3.0889,0.0,0.0,0.0,0.0,0.0,0.0,0.0,0.0,0.0,0.0,-2.5683,-2.6317,0.0,0.0,0.0,0.0,0.0,0.0,0.0,0.0,0.0,-1.932,-1.8768,-1.8325,-1.8018,-1.8008,-1.8047,-1.8081,-1.8081,-1.8164,-1.8232,-1.8311,-1.834,-1.834,-1.8418,-1.8447,-1.8447,-1.8447,-1.8369,-1.8232,-1.8232,-1.8144,-1.8008,-1.8008,0.0,0.0,-1.8008,-1.8247,-1.8573,-1.832,-1.7652,-1.7326,-1.9711,-1.9234,-1.8442,-2.2096,-2.2328,-2.1722,-2.2959,-2.4048,-2.4576,-2.3457,-2.4456,-2.5139,-2.2931,-2.251,-2.2481,-2.2175,-2.1816,-2.1697,-2.2295,-2.2402,-2.3086,-2.5118,-2.546,-2.6426,-2.9082,-2.9394,-2.9697,-3.0654,-3.0703,-3.0693,-3.0762,-3.0703,0.0,0.0,-3.081,-3.0801,-3.0889,-3.0889,-3.0889,-3.0889,-3.0889,-3.0889,-3.0889,-3.0889,-3.0889,-3.0889,-3.0889,-3.0889,-3.0889,-3.0889,-3.0889,-3.0889,-3.0889,0.0,-3.0889,-3.0889,-3.0889,-3.0889,-3.0889,-3.0889,-3.0889,-3.0889,-3.0889,-3.0889,0.0,0.0,0.0,0.0,0.0,0.0,0.0,-2.3551,-2.442,-2.4933,-2.5886,-2.6499,-2.6499,-2.5574,-2.486,0.0,0.0,0.0,0.0,0.0,0.0,0.0,-2.0371,-1.9636,-1.9457,-1.8943,-1.9052,-1.9758,0.0,-1.8725,-1.9447,-1.8453,-1.8008,-1.8008,-1.8008,-1.8135,-1.8295,-1.8295,-1.8467,-1.8652,-1.8393,-1.8467,-1.8652,0.0,0.0,0.0,-1.8594,-1.8627,-1.8653,-1.9014,-1.8614,-1.8333,-2.0589,-2.0728,-2.0649,-2.3791,-2.3945,-2.3442,-2.5154,-2.572,-2.5765,-2.5261,-2.5459,-2.5208,-2.3156,-2.2398,-2.2002,-2.1378,-2.1211,-2.1327,-2.1726,-2.2031,-2.2744,-2.4443,-2.4902,-2.5879,-2.8242,-2.8769,-2.9307,-3.04,-3.0742,-3.0889,-3.0889,-3.0889,-3.0889,-3.0889,-3.0889,-3.0889,-3.0889,-3.0889,-3.0889,-3.0889,-3.0889,-3.0889,-3.0889,-3.0889,-3.0889,-3.0889,-3.0889,-3.0889,-3.0889,-3.0889,-3.0889,-3.0889,-3.0889,0.0,-3.0889,-3.0889,-3.0889,-3.0889,-3.0889,-3.0889,-3.0889,-3.0889,-3.0889,-3.0889,0.0,0.0,0.0,0.0,0.0,0.0,0.0,-2.3751,-2.4607,-2.5397,-2.6198,-2.6663,-2.6663,-2.616,-2.5477,0.0,0.0,0.0,0.0,0.0,0.0,0.0,0.0,0.0,-2.0801,0.0,0.0,-2.0964,-1.9451,0.0,0.0,0.0,0.0,0.0,-1.8281,-1.8467,-1.8744,-1.8744,-1.8975,0.0,0.0,-1.8984,0.0,0.0,0.0,0.0,0.0,-1.9072,-1.8861,-1.9658,-1.9468,-1.9246,-2.0826,-2.1542,-2.2281,-2.4602,-2.4949,-2.5011,-2.6985,-2.7068,-2.6612,-2.6843,-2.5967,-2.4707,-2.332,-2.2353,-2.1523,-2.0772,-2.084,-2.1152,-2.1338,-2.165,-2.2334,-2.3701,-2.4121,-2.5049,-2.7226,-2.7812,-2.8525,-2.9902,-3.0459,-3.0781,-3.0879,-3.0889,0.0,-3.0889,-3.0889,0.0,-3.0889,-3.0889,-3.0889,-3.0889,-3.0889,-3.0889,-3.0889,-3.0889,-3.0889,-3.0889,-3.0889,-3.0889,-3.0889,-3.0889,-3.0889,-3.0889,-3.0889,0.0,0.0,-3.0889,-3.0889,-3.0889,-3.0889,-3.0889,-3.0889,-3.0889,-3.0889,-3.0889,0.0,0.0,0.0,0.0,0.0,0.0,0.0,-2.6586,-2.698,-2.7099,-2.717,-2.7241,-2.7241,-2.6751,-2.6163,0.0,0.0,0.0,0.0,0.0,0.0,0.0,0.0,0.0,0.0,0.0,0.0,-1.9482,-1.9304,0.0,0.0,0.0,0.0,0.0,0.0,-1.9189,-1.9228,-1.9228,0.0,0.0,0.0,0.0,0.0,0.0,0.0,0.0,0.0,-1.9268,-1.9297,-1.9756,-1.9856,-1.9869,-2.0508,-2.0992,-2.1724,-2.3483,-2.5012,-2.6324,-2.6892,-2.7561,-2.7829,-2.6748,-2.5752,-2.4629,-2.2949,-2.1914,-2.1152,-2.0703,-2.0635,-2.0918,-2.168,-2.1855,-2.2432,-2.4092,-2.4072,-2.46,-2.6768,-2.7109,-2.7754,-2.9434,-3.0,-3.043,-3.085,-3.0889,-3.0889,-3.0889,0.0,0.0,-3.0889,-3.0889,-3.0889,-3.0889,-3.0889,-3.0889,-3.0889,-3.0889,-3.0889,-3.0889,-3.0889,-3.0889,-3.0889,-3.0889,-3.0889,-3.0889,-3.0889,0.0,0.0,-3.0889,-3.0889,-3.0889,-3.0889,-3.0889,-3.0889,-3.0889,-3.0889,-3.0889,0.0,0.0,0.0,0.0,0.0,0.0,-2.5594,-2.5776,-2.6122,-2.6756,-2.6826,-2.6952,-2.7243,-2.6826,-2.6399,-2.6172,0.0,0.0,0.0,0.0,0.0,0.0,0.0,0.0,0.0,0.0,-2.1602,-2.1822,-2.036,0.0,0.0,0.0,0.0,0.0,0.0,-1.9424,-1.9668,-1.9668,0.0,0.0,0.0,0.0,0.0,0.0,0.0,0.0,0.0,0.0,-1.9346,-1.9775,-1.9746,-1.9521,-1.9434,-2.0082,-2.117,-2.2605,-2.3877,-2.5029,-2.5986,-2.6865,-2.7275,-2.625,-2.5137,-2.3984,-2.2783,-2.1641,-2.0781,-2.0644,-2.0605,-2.0801,-2.1377,-2.1709,-2.2187,-2.3115,-2.334,-2.3877,-2.5254,-2.5674,-2.6484,-2.8276,-2.9023,-2.9707,-3.04,0.0,-3.0889,-3.0889,0.0,0.0,-3.0889,-3.0889,-3.0889,-3.0889,-3.0889,-3.0889,-3.0889,-3.0889,-3.0889,-3.0889,-3.0889,-3.0889,-3.0889,-3.0889,-3.0889,-3.0889,-3.0889,0.0,0.0,-3.0889,-3.0889,-3.0889,-3.0889,-3.0889,-3.0889,-3.0889,-3.0889,-3.0889,0.0,0.0,0.0,0.0,0.0,-2.5441,-2.5441,-2.5574,-2.5931,-2.6621,-2.6738,-2.6889,-2.7278,-2.6826,-2.6499,-2.6499,-2.6499,0.0,0.0,0.0,0.0,0.0,0.0,0.0,0.0,0.0,-2.2925,-2.3073,-2.1339,-2.0719,0.0,0.0,-1.9668,-1.9668,0.0,0.0,0.0,0.0,0.0,0.0,0.0,0.0,0.0,0.0,0.0,0.0,0.0,0.0,0.0,0.0,0.0,-1.9238,-1.8926,-1.9453,-2.0429,-2.1435,-2.2715,-2.3994,-2.4912,-2.5879,-2.6426,-2.5508,-2.4463,-2.3379,-2.2519,-2.1416,-2.0605,-2.0605,-2.0605,-2.0703,-2.1112,-2.1592,-2.2021,-2.2441,-2.2818,-2.3354,-2.4131,-2.46,-2.543,-2.6924,-2.7734,-2.8603,-2.9707,-3.0469,-3.0889,-3.0889,0.0,0.0,-3.0889,-3.0889,-3.0889,-3.0889,-3.0889,-3.0889,-3.0889,-3.0889,-3.0889,-3.0889,-3.0889,-3.0889,-3.0889,-3.0889,-3.0889,-3.0889,0.0,0.0,0.0,-3.0889,-3.0889,-3.0889,-3.0889,-3.0889,-3.0889,-3.0889,-3.0889,-3.0889,0.0,0.0,0.0,0.0,0.0,0.0,-2.6487,-2.6917,-2.7281,-2.7268,-2.7268,-2.7268,-2.7281,-2.6826,-2.6499,-2.6499,-2.6499,0.0,0.0,0.0,0.0,0.0,0.0,0.0,0.0,0.0,-2.4,-2.2027,-2.1989,-2.1507,-2.0595,-2.0595,-2.0595,-2.0595,0.0,0.0,0.0,0.0,0.0,0.0,0.0,0.0,0.0,0.0,0.0,0.0,0.0,0.0,0.0,0.0,0.0,0.0,0.0,-1.9287,-1.9385,-1.9814,-2.1768,-2.3799,-2.3809,-2.4756,-2.5489,-2.4648,-2.3744,-2.2886,-2.209,-2.1241,-2.0605,-2.0605,-2.0605,-2.0703,-2.1112,-2.1592,-2.2021,-2.2441,-2.2818,-2.3247,-2.374,-2.416,-2.4709,-2.5606,-2.6143,-2.708,-2.8769,-3.0117,-3.0889,0.0,0.0,0.0,-3.0889,-3.0889,-3.0889,-3.0889,-3.0889,-3.0889,-3.0889,-3.0889,-3.0889,-3.0889,-3.0889,-3.0889,-3.0889,-3.0889,-3.0889,0.0,0.0,0.0,0.0,-3.0889,-3.0889,-3.0889,-3.0889,-3.0889,-3.0889,-3.0889,-3.0889,-3.0889,0.0,0.0,0.0,0.0,0.0,0.0,0.0,-2.6056,-2.599,-2.6646,-2.6131,-2.6125,-2.7208,-2.6826,-2.665,-2.7014,-2.6713,0.0,0.0,0.0,0.0,0.0,0.0,0.0,0.0,0.0,-2.4671,-2.4036,-2.2988,-2.2161,-2.1565,-2.1174,-2.0859,-2.0605,-2.0605,-2.0605,0.0,0.0,0.0,0.0,0.0,0.0,0.0,0.0,0.0,0.0,0.0,0.0,0.0,0.0,0.0,0.0,0.0,0.0,0.0,-1.9873,-2.0928,-2.2168,-2.2754,-2.3428,-2.3783,-2.3252,-2.2695,-2.2139,-2.1572,-2.0986,-2.0605,-2.0605,-2.0605,-2.0644,-2.0752,-2.1387,-2.1934,-2.206,-2.2676,-2.314,-2.3286,-2.3919,-2.4746,-2.5586,-2.7412,-2.9014,0.0,0.0,-3.0889,0.0,0.0,0.0,-3.0889,-3.0889,-3.0889,-3.0889,-3.0889,-3.0889,-3.0889,-3.0889,-3.0889,-3.0889,-3.0889,-3.0889,-3.0889,-3.0889,0.0,0.0,0.0,0.0,0.0,-3.0889,-3.0889,-3.0889,-3.0889,-3.0889,-3.0889,-3.0889,-3.0889,-3.0889,0.0,0.0,0.0,0.0,0.0,0.0,0.0,-2.599,-2.5664,-2.5908,-2.5406,-2.5385,-2.634,-2.6117,-2.6231,-2.6942,-2.6688,0.0,0.0,0.0,0.0,0.0,0.0,0.0,-2.6499,-2.5873,-2.5502,-2.529,-2.3909,-2.3015,-2.2562,-2.18,-2.124,-2.082,-2.082,-2.0723,0.0,0.0,0.0,0.0,0.0,0.0,-2.0605,0.0,0.0,0.0,0.0,0.0,0.0,0.0,0.0,0.0,0.0,0.0,0.0,0.0,-2.0557,-2.1133,-2.1836,-2.2301,-2.2607,-2.2344,-2.1953,-2.1562,-2.1259,-2.0889,-2.0605,-2.0605,-2.0605,-2.0654,-2.0791,-2.1396,-2.1934,-2.21,-2.2652,-2.3091,-2.3091,-2.3832,-2.4805,-2.5859,-2.7822,0.0,0.0,-3.0596,0.0,0.0,0.0,0.0,-3.0889,-3.0889,-3.0889,-3.0889,-3.0889,-3.0889,-3.0889,-3.0889,-3.0889,-3.0889,-3.0889,-3.0889,-3.0889,-3.0889,0.0,0.0,0.0,0.0,0.0,-3.0889,-3.0889,-3.0889,-3.0889,-3.0889,-3.0889,-3.0889,-3.0889,-3.0889,0.0,0.0,0.0,0.0,0.0,0.0,0.0,-2.6452,-2.6094,-2.5229,-2.504,-2.5052,-2.5087,-2.5123,-2.5476,-2.6418,0.0,0.0,0.0,0.0,0.0,0.0,0.0,0.0,-2.6499,-2.6499,-2.6295,-2.584,-2.4765,-2.3985,-2.353,-2.2441,-2.168,-2.119,-2.119,-2.0986,-2.0605,-2.0605,-2.0605,-2.0605,-2.0605,-2.0605,0.0,0.0,0.0,0.0,0.0,0.0,0.0,0.0,0.0,0.0,0.0,0.0,0.0,0.0,0.0,0.0,0.0,-2.1484,-2.1797,-2.1797,-2.1484,-2.1142,-2.1142,-2.0869,0.0,-2.0605,-2.0605,-2.0703,-2.1112,-2.1592,-2.2021,-2.2441,-2.2818,-2.3091,-2.3091,-2.3881,-2.501,-2.6367,-2.7627,0.0,-2.8926,-3.0127,0.0,0.0,0.0,0.0,-3.084,-3.0869,-3.0869,-3.084,-3.084,-3.0859,-3.0889,-3.0889,-3.0889,-3.0889,-3.0889,-3.0889,-3.0889,-3.0889,0.0,0.0,0.0,0.0,0.0,-3.0889,-3.0889,-3.0889,-3.0889,-3.0889,-3.0889,-3.0889,-3.0889,-3.0889,0.0,0.0,0.0,0.0,0.0,0.0,0.0,0.0,0.0,0.0,-2.5476,-2.53,-2.606,-2.6129,-2.6245,0.0,0.0,0.0,0.0,0.0,0.0,0.0,0.0,0.0,-2.6499,-2.6499,-2.6446,-2.635,-2.52,-2.4448,-2.4024,-2.2889,-2.1921,-2.119,-2.119,-2.0986,-2.0605,-2.0605,-2.0605,-2.0605,-2.0605,-2.0605,0.0,0.0,0.0,0.0,-2.0605,-2.0605,0.0,0.0,0.0,0.0,0.0,0.0,0.0,0.0,-2.0605,-2.0625,-2.0732,0.0,-2.0918,-2.0918,-2.084,-2.0723,0.0,-2.0683,-2.0605,-2.0605,-2.0605,-2.0703,-2.1112,-2.1592,-2.2021,-2.2441,-2.2818,-2.3091,-2.3091,-2.4417,-2.6035,-2.7656,-2.8691,-2.9307,-2.9404,0.0,0.0,0.0,0.0,-3.0732,-3.0371,-3.0703,-3.0732,-3.0371,-3.0361,-3.0537,-3.0889,-3.0889,-3.0889,-3.0889,-3.0889,-3.0889,-3.0889,-3.0889,0.0,0.0,0.0,0.0,-3.0889,-3.0889,-3.0889,-3.0889,-3.0889,-3.0889,-3.0889,-3.0889,-3.0889,-3.0889,0.0,0.0,0.0,0.0,0.0,0.0,0.0,0.0,0.0,0.0,0.0,0.0,0.0,0.0,0.0,0.0,0.0,0.0,0.0,0.0,0.0,0.0,0.0,-2.6499,-2.6499,-2.606,-2.5914,-2.6194,-2.4792,-2.4136,-2.4176,-2.321,-2.2353,-2.1514,-2.1113,-2.0791,-2.0605,-2.0605,-2.0605,-2.0605,-2.0605,0.0,0.0,0.0,0.0,0.0,-2.0605,-2.0605,0.0,-2.0605,-2.0605,-2.0605,0.0,0.0,0.0,0.0,-2.0605,-2.0605,-2.0605,-2.0605,-2.0605,-2.0605,-2.0605,-2.0605,-2.0605,-2.0605,-2.0605,-2.0605,-2.0605,-2.0801,-2.1416,-2.1728,-2.209,-2.2705,-2.2945,-2.3296,-2.3935,-2.4962,-2.6395,-2.835,-2.8984,-2.9512,0.0,0.0,0.0,0.0,0.0,-3.0254,-3.0205,-3.043,-3.0459,-3.0205,-3.0195,-3.042,-3.0889,-3.0674,-3.0674,-3.0889,-3.0889,-3.0889,-3.0889,-3.0889,-3.0889,0.0,0.0,0.0,-3.0889,-3.0889,-3.0889,-3.0889,-3.0889,-3.0889,-3.0889,-3.0889,-3.0889,-3.0889,0.0,0.0,0.0,0.0,0.0,0.0,0.0,0.0,0.0,0.0,0.0,0.0,0.0,0.0,0.0,0.0,0.0,0.0,0.0,0.0,0.0,0.0,-2.6499,-2.6499,-2.6499,-2.5511,-2.5254,-2.5778,-2.4104,-2.3603,-2.4167,-2.3438,-2.2685,-2.1846,-2.1035,-2.0664,-2.0605,-2.0605,-2.0605,-2.0605,-2.0605,0.0,0.0,0.0,0.0,0.0,0.0,0.0,0.0,-2.0605,-2.0605,-2.0605,-2.0605,0.0,0.0,0.0,0.0,0.0,-2.0605,-2.0605,-2.0605,-2.0605,-2.0605,-2.0605,-2.0605,-2.0605,-2.0605,-2.0605,-2.0664,-2.0957,-2.1738,-2.1934,-2.2236,-2.2974,-2.3208,-2.3828,-2.5311,-2.5791,-2.6748,-2.8691,-2.9033,0.0,0.0,0.0,0.0,0.0,0.0,-2.9697,-2.999,-3.0068,-3.0068,-3.0,-3.0,-3.0225,-3.0684,-3.0361,-3.0391,-3.0781,-3.0859,-3.0889,-3.0889,-3.0889,-3.0889,0.0,0.0,0.0,-3.0889,-3.0889,-3.0889,-3.0889,-3.0889,-3.0889,-3.0889,-3.0889,-3.0889,-3.0889,0.0,0.0,0.0,0.0,0.0,0.0,0.0,0.0,0.0,0.0,0.0,0.0,0.0,0.0,0.0,0.0,0.0,0.0,0.0,0.0,0.0,-2.6499,-2.6499,-2.6499,-2.6499,-2.5511,-2.5218,-2.5619,-2.4065,-2.3532,-2.4033,-2.3395,-2.2685,-2.1865,-2.1357,-2.0918,-2.0605,-2.0605,-2.0605,-2.0605,-2.0605,0.0,0.0,0.0,0.0,0.0,0.0,0.0,0.0,-2.0605,-2.0605,-2.0605,-2.0605,0.0,0.0,0.0,0.0,0.0,-2.0605,-2.0605,-2.0605,-2.0605,-2.0605,-2.0605,-2.0605,-2.0605,-2.0605,-2.0605,-2.0869,-2.1289,-2.1787,-2.2178,-2.2578,-2.3013,-2.3705,-2.4932,0.0,0.0,-2.7754,-2.8789,0.0,0.0,0.0,0.0,0.0,0.0,0.0,0.0,-2.9131,-2.9463,-2.9492,-2.9131,-2.9111,-2.9326,-2.9766,-3.0059,-3.0234,-3.0303,-3.0703,-3.0889,-3.0889,-3.0889,-3.0889,0.0,0.0,-3.0889,-3.0889,-3.0889,-3.0889,-3.0889,-3.0889,-3.0889,-3.0889,-3.0889,-3.0889,-3.0889,0.0,0.0,0.0,0.0,0.0,0.0,0.0,0.0,0.0,0.0,0.0,0.0,0.0,0.0,0.0,0.0,0.0,0.0,0.0,0.0,-2.5786,-2.5995,-2.5529,-2.5481,-2.6007,-2.451,-2.3964,-2.4365,-2.3368,-2.2997,-2.3167,-2.2683,-2.2256,-2.1855,-2.1172,-2.0762,-2.0605,-2.0605,-2.0605,-2.0605,0.0,0.0,0.0,0.0,0.0,0.0,0.0,0.0,0.0,0.0,-2.0605,-2.0605,-2.0605,0.0,0.0,0.0,0.0,0.0,-2.0605,-2.0605,-2.0605,-2.0605,-2.0605,-2.0664,-2.0869,-2.0928,-2.0996,-2.123,-2.1445,-2.1719,-2.2148,-2.2578,-2.3154,-2.4033,-2.4912,-2.583,-2.6836,-2.7168,-2.7627,0.0,0.0,0.0,0.0,0.0,0.0,0.0,0.0,0.0,0.0,0.0,-2.9121,-2.8926,-2.8916,-2.9014,-2.9219,-2.9414,-2.9736,-3.0195,-3.0185,-3.043,-3.0889,-3.0635,-3.0654,-3.0889,0.0,-3.0889,-3.0889,-3.0889,-3.0889,-3.0889,-3.0889,-3.0889,-3.0889,-3.0889,-3.0889,-3.0889,0.0,0.0,0.0,0.0,0.0,0.0,0.0,0.0,0.0,0.0,0.0,0.0,0.0,0.0,0.0,0.0,0.0,0.0,0.0,-2.5441,-2.5087,-2.5263,-2.4604,-2.4612,-2.5413,-2.3963,-2.3424,-2.3841,-2.3225,-2.2804,-2.2646,-2.2227,-2.1982,-2.1855,-2.1074,-2.0703,-2.0605,-2.0605,-2.0605,-2.0605,0.0,0.0,0.0,0.0,0.0,0.0,0.0,0.0,0.0,0.0,0.0,0.0,0.0,0.0,0.0,-2.0605,-2.0605,-2.0605,-2.0605,-2.0605,-2.0605,-2.0605,-2.0683,-2.081,-2.1112,-2.1278,-2.1484,-2.1816,-2.1963,-2.2129,-2.2451,-2.2949,-2.3775,-2.5019,-2.5879,-2.6523,-2.6924,-2.7256,-2.7744,0.0,0.0,0.0,0.0,0.0,0.0,0.0,0.0,0.0,0.0,0.0,-2.8769,-2.8769,-2.8769,-2.8769,-2.8769,-2.8769,-2.915,-2.9893,-2.9678,-2.998,-3.0713,-3.0254,-3.0293,-3.0732,-3.0732,-3.0732,-3.0732,-3.084,-3.0889,-3.0889,-3.0889,-3.0889,-3.0889,-3.0889,-3.0889,-3.0889,0.0,0.0,0.0,0.0,0.0,0.0,0.0,0.0,0.0,0.0,0.0,0.0,0.0,0.0,0.0,0.0,0.0,0.0,0.0,-2.504,-2.4798,-2.4318,-2.4291,-2.4467,-2.4837,-2.4859,-2.5015,-2.5414,-2.4536,-2.3728,-2.3042,-2.2666,-2.2266,-2.1865,-2.1396,-2.0957,-2.0605,-2.0605,-2.0605,-2.0605,-2.0605,0.0,0.0,0.0,0.0,0.0,0.0,0.0,0.0,0.0,0.0,0.0,0.0,0.0,-2.0605,-2.0605,-2.0605,-2.0605,-2.0605,-2.0605,-2.0605,-2.0605,-2.0879,-2.1151,-2.119,-2.1553,-2.1846,-2.1875,-2.2197,-2.248,-2.251,-2.3184,-2.417,-2.543,-2.6084,-2.6943,-2.8516,0.0,0.0,0.0,0.0,0.0,0.0,0.0,0.0,0.0,0.0,0.0,0.0,0.0,0.0,-2.834,-2.834,-2.834,-2.834,-2.834,-2.8564,-2.9014,-2.9394,-2.9814,-3.0234,-2.9814,-2.9844,-3.0244,-3.0244,-3.0244,-3.0273,-3.0713,-3.0889,-3.0889,-3.0889,-3.0889,-3.0889,-3.0889,-3.0889,-3.0889,0.0,0.0,0.0,0.0,0.0,0.0,0.0,0.0,0.0,0.0,0.0,0.0,0.0,0.0,0.0,0.0,0.0,0.0,0.0,-2.5335,-2.5015,-2.5066,-2.4861,-2.4898,-2.5311,-2.4774,-2.4689,-2.5099,-2.405,-2.3252,-2.2744,-2.2324,-2.1894,-2.1465,-2.1016,-2.0723,-2.0605,-2.0605,-2.0605,-2.0605,-2.0605,-2.0605,0.0,0.0,0.0,0.0,0.0,0.0,0.0,0.0,-2.0605,-2.0605,-2.0605,-2.0605,-2.0605,-2.0605,-2.0605,-2.0605,-2.0605,-2.0605,-2.0605,-2.0605,-2.1103,-2.1641,-2.1641,-2.2178,-2.2797,-2.3018,-2.3613,-2.4023,-2.375,-2.418,-2.4922,-2.5977,-2.6728,-2.75,-2.8398,0.0,0.0,0.0,0.0,0.0,0.0,0.0,0.0,0.0,0.0,0.0,0.0,0.0,0.0,-2.8291,-2.8047,-2.8027,-2.8291,-2.8037,-2.8115,-2.8535,-2.8701,-2.9141,-2.9795,-2.9365,-2.9404,-2.9814,-2.9814,-2.9814,-2.9844,-3.0283,-3.0459,-3.0488,-3.0781,-3.0889,-3.0889,-3.0889,-3.0889,-3.0889,0.0,0.0,0.0,0.0,0.0,0.0,0.0,0.0,0.0,0.0,0.0,0.0,0.0,0.0,0.0,0.0,0.0,0.0,-2.606,-2.537,-2.5051,-2.514,-2.5225,-2.5372,-2.5579,-2.4954,-2.4864,-2.5336,-2.4077,-2.3117,-2.25,-2.1943,-2.1592,-2.1416,-2.0977,-2.0781,-2.0781,-2.0781,-2.0732,-2.0605,-2.0605,-2.0605,0.0,0.0,0.0,0.0,0.0,0.0,0.0,0.0,-2.0517,-2.0381,-2.0556,-2.0507,-2.0429,-2.0566,-2.0605,-2.0605,-2.0605,-2.0605,-2.0605,-2.0605,-2.1123,-2.1748,-2.2021,-2.2852,-2.3643,-2.3926,-2.4453,-2.4814,-2.4648,-2.4756,-2.5195,0.0,-2.6992,-2.7656,-2.8213,0.0,0.0,0.0,0.0,0.0,0.0,0.0,0.0,0.0,0.0,0.0,0.0,0.0,0.0,0.0,-2.7744,-2.7855,-2.8096,-2.7865,-2.7881,-2.8291,-2.8291,-2.8672,-2.9346,-2.8916,-2.8955,-2.9365,-2.9365,-2.9365,-2.9394,-2.9824,-3.0078,-3.0244,-3.0713,-3.0889,-3.0889,-3.0889,-3.0889,-3.0889,0.0,0.0,0.0,0.0,0.0,0.0,0.0,0.0,0.0,0.0,0.0,0.0,0.0,0.0,0.0,0.0,0.0,0.0,-2.5087,-2.5016,-2.4761,-2.4231,-2.5226,-2.573,-2.5608,-2.559,-2.5876,-2.6472,-2.4916,-2.3587,-2.248,-2.16,-2.1434,-2.1865,-2.1385,-2.12,-2.119,-2.119,-2.0977,-2.0605,-2.0605,-2.0605,-2.0605,0.0,0.0,0.0,0.0,0.0,0.0,0.0,-2.0273,-1.999,-2.0468,-2.0264,-2.0,-2.0478,-2.0605,-2.0605,-2.0605,-2.0605,-2.0605,-2.0605,-2.0908,-2.1434,-2.2324,-2.3496,-2.4414,-2.4434,-2.4434,-2.457,-2.5047,-2.4727,-2.4853,-2.6172,-2.6738,-2.7305,0.0,0.0,0.0,0.0,0.0,0.0,0.0,0.0,0.0,0.0,0.0,0.0,0.0,0.0,0.0,0.0,-2.7432,-2.7708,-2.7708,-2.7708,-2.7871,-2.8281,-2.8291,-2.8506,-2.8896,-2.8476,-2.8525,-2.8916,-2.8916,-2.8916,-2.8945,-2.9385,-2.9814,-3.0244,-3.0703,-3.0889,-3.0889,-3.0889,-3.0889,-3.0889,0.0,0.0,0.0,0.0,0.0,0.0,0.0,0.0,0.0,0.0,0.0,0.0,0.0,0.0,0.0,0.0,0.0,0.0,-2.6593,-2.5611,-2.5254,-2.58,-2.5817,-2.5951,-2.624,-2.5154,-2.4302,-2.3686,-2.3217,-2.2522,-2.157,-2.167,-2.1592,-2.1435,-2.1611,-2.1523,-2.119,-2.119,-2.0977,-2.0605,-2.0605,-2.0605,-2.0605,0.0,0.0,0.0,0.0,0.0,0.0,0.0,0.0,0.0,-2.0468,-2.0264,-2.0,-2.0478,-2.0605,-2.0605,-2.0605,-2.0605,-2.0683,-2.0957,-2.1592,-2.2275,-2.2789,-2.3486,-2.4326,-2.5547,-2.5801,-2.584,-2.5977,-2.5644,0.0,-2.6279,-2.6494,0.0,0.0,0.0,0.0,0.0,0.0,0.0,0.0,0.0,0.0,0.0,0.0,0.0,0.0,0.0,0.0,0.0,-2.6855,-2.6904,-2.7207,-2.7207,-2.7275,-2.7402,-2.8008,-2.8359,-2.8476,-2.835,-2.8359,-2.8476,-2.8476,-2.8476,-2.8506,-2.8935,-2.9541,-3.0205,-3.0342,-3.0605,-3.0889,-3.0889,-3.0889,-3.0889,0.0,0.0,0.0,0.0,0.0,0.0,0.0,0.0,0.0,0.0,-2.6914,-2.7014,0.0,0.0,0.0,0.0,0.0,0.0,-2.6613,-2.5805,-2.5682,-2.6465,-2.5625,-2.5359,-2.5816,-2.4322,-2.3215,-2.2592,-2.22,-2.1697,-2.12,-2.1504,-2.1582,-2.1514,-2.1943,-2.1894,-2.1494,-2.1494,-2.1133,-2.0605,-2.0605,-2.0605,-2.0605,0.0,0.0,0.0,0.0,0.0,0.0,0.0,0.0,0.0,-2.0468,-2.0264,-2.0,-2.0478,-2.0605,-2.0605,-2.0605,-2.0605,-2.0713,-2.1083,-2.1885,-2.2754,-2.3691,-2.4385,-2.5264,-2.6816,-2.6875,-2.6641,-2.6641,-2.6143,0.0,-2.6318,-2.6387,0.0,0.0,0.0,0.0,0.0,0.0,0.0,0.0,0.0,0.0,0.0,0.0,0.0,0.0,0.0,0.0,0.0,-2.7141,-2.7221,-2.7472,-2.7,-2.6846,-2.7021,-2.7715,-2.8047,-2.8047,-2.8223,-2.8291,-2.8291,-2.8291,-2.8291,-2.833,-2.875,-2.9219,-2.9707,-2.9883,-3.0225,-3.0615,-3.0615,-3.0732,-3.0889,0.0,0.0,-2.6056,-2.6008,0.0,0.0,0.0,0.0,0.0,0.0,-2.7002,-2.6503,0.0,0.0,0.0,-2.5278,-2.5997,-2.6281,-2.5907,-2.5885,-2.6094,-2.6628,-2.5257,-2.4579,-2.4815,-2.3443,-2.2756,-2.2847,-2.172,-2.119,-2.119,-2.1239,-2.1523,-2.1963,-2.2383,-2.2314,-2.1885,-2.1885,-2.1417,-2.0605,-2.0605,-2.0605,-2.0605,-2.0605,0.0,0.0,0.0,0.0,0.0,0.0,0.0,0.0,-2.0468,-2.0264,-2.0,-2.0478,-2.0605,-2.0605,-2.0605,-2.0605,-2.0723,-2.1132,-2.1951,-2.3115,-2.4756,-2.5781,-2.6719,-2.7881,-2.7559,-2.706,-2.7021,-2.6298,-2.5879,-2.6328,0.0,0.0,0.0,0.0,0.0,0.0,0.0,0.0,0.0,0.0,0.0,0.0,0.0,0.0,0.0,0.0,0.0,-2.761,-2.8073,-2.8246,-2.8149,-2.7071,-2.6653,0.0,-2.7383,-2.764,-2.762,-2.8066,-2.8291,-2.8291,-2.8291,-2.8291,-2.832,-2.8701,-2.8887,-2.8955,-2.9355,-2.9766,-3.0146,-3.0185,-3.0459,-3.083,0.0,0.0,-2.8114,-2.7692,0.0,0.0,0.0,0.0,0.0,0.0,0.0,0.0,0.0,0.0,0.0,-2.8684,-2.7015,-2.6605,-2.8101,-2.7099,-2.6808,-2.7722,-2.7019,-2.6144,-2.5132,-2.4673,-2.4314,-2.3951,-2.2105,-2.119,-2.12,-2.1582,-2.1973,-2.2402,-2.2769,-2.2588,-2.1885,-2.1885,-2.1417,-2.0605,-2.0605,-2.0605,-2.0605,-2.0605,-2.0605,0.0,0.0,0.0,0.0,0.0,0.0,0.0,-2.0468,-2.0264,-2.0,-2.0478,-2.0605,-2.0605,-2.0605,-2.0605,-2.0791,-2.1553,-2.2881,-2.4287,-2.5352,-2.6006,-2.6465,-2.6738,-2.7187,-2.7422,-2.708,-2.6592,-2.6279,0.0,0.0,0.0,0.0,0.0,0.0,0.0,0.0,0.0,0.0,0.0,0.0,0.0,0.0,0.0,0.0,0.0,0.0,-2.76,-2.8592,-2.8693,-2.7736,-2.7755,-2.7195,0.0,-2.6787,-2.6982,-2.6699,-2.7793,-2.8291,-2.8291,-2.8291,-2.8291,-2.8301,-2.8389,-2.8623,-2.8926,-2.9023,-2.9326,-2.9746,-3.0078,-3.0264,-3.04,0.0,0.0,0.0,0.0,0.0,0.0,0.0,0.0,0.0,0.0,0.0,0.0,0.0,-2.7873,0.0,0.0,-2.7409,-2.7258,-2.8092,-2.7456,-2.7021,-2.6995,-2.7168,-2.6948,-2.6225,-2.5389,-2.4758,-2.4291,-2.2482,-2.1696,-2.1918,-2.1915,-2.2109,-2.2519,-2.2744,-2.248,-2.1875,-2.166,-2.1182,-2.0605,-2.0605,-2.0605,-2.0605,-2.0605,-2.0605,-2.0605,-2.0605,0.0,0.0,0.0,0.0,0.0,0.0,0.0,-2.0273,-2.0537,-2.0605,-2.0605,-2.0605,-2.0605,-2.086,-2.1914,-2.331,-2.4648,-2.5489,-2.6074,-2.6328,-2.6123,-2.6758,-2.7226,-2.6797,-2.6533,-2.625,0.0,0.0,0.0,0.0,0.0,0.0,0.0,0.0,0.0,0.0,0.0,0.0,0.0,0.0,0.0,0.0,-2.8119,-2.9039,-2.8495,-2.9636,-2.9681,-2.8448,-2.8094,-2.717,-2.5693,-2.6406,-2.6709,-2.6709,-2.7373,-2.7793,-2.7988,-2.7988,-2.8105,-2.8291,-2.8291,-2.8418,-2.8613,-2.8613,-2.8877,-2.9287,-2.9502,-2.9717,-2.9961,0.0,0.0,0.0,0.0,0.0,0.0,0.0,0.0,0.0,0.0,0.0,0.0,0.0,-2.7571,-2.7344,0.0,0.0,0.0,-2.7762,-2.7828,-2.7477,-2.6547,-2.7089,-2.7442,-2.7442,-2.5913,-2.4881,-2.4415,-2.2944,-2.2429,-2.2778,-2.2179,-2.2148,-2.2617,-2.2617,-2.2344,-2.1865,-2.1504,-2.1045,-2.0605,-2.0605,-2.0605,-2.0605,-2.0605,-2.0605,-2.0605,-2.0605,-2.0605,-2.0605,-2.0605,0.0,0.0,0.0,0.0,-2.0605,-2.0605,-2.0605,-2.0605,-2.0605,-2.0664,-2.0997,-2.2119,-2.331,-2.4414,-2.5167,-2.5732,-2.5947,-2.5538,-2.621,-2.6758,-2.625,-2.6162,0.0,0.0,0.0,0.0,0.0,0.0,0.0,0.0,0.0,0.0,0.0,0.0,0.0,0.0,0.0,0.0,-2.6129,-2.9138,-3.0463,-2.9466,-3.0596,-3.0552,-2.9149,-2.8164,-2.6935,-2.5469,-2.5947,-2.6338,-2.668,-2.6758,-2.707,-2.7559,-2.7559,-2.7793,-2.8184,-2.8184,-2.8232,-2.8291,-2.8291,-2.8506,-2.8818,-2.8887,-2.915,-2.9531,0.0,0.0,0.0,0.0,0.0,0.0,0.0,0.0,0.0,0.0,-2.9616,-2.9552,-2.946,-2.8579,-2.8354,-2.9287,-2.8597,-2.8481,-2.9395,0.0,0.0,-2.9266,-2.8461,-2.7989,-2.7989,-2.6348,-2.5306,-2.4903,-2.372,-2.3175,-2.3198,-2.2319,-2.2305,-2.3013,-2.3013,-2.2617,-2.1885,-2.1816,-2.1318,-2.0605,-2.0605,-2.0605,-2.0605,-2.0605,-2.0605,-2.0605,-2.0605,-2.0605,-2.0605,-2.0605,-2.0605,0.0,0.0,0.0,-2.0605,-2.0605,-2.0605,-2.0605,-2.0605,-2.085,-2.1239,-2.1836,-2.2699,-2.3457,-2.3935,-2.4375,-2.4668,-2.4609,-2.5596,-2.6221,-2.5439,-2.5292,0.0,0.0,0.0,0.0,0.0,0.0,0.0,0.0,0.0,0.0,0.0,0.0,0.0,0.0,0.0,0.0,-2.7447,-2.8945,-2.974,-2.9569,-3.0734,-3.0344,-2.813,-2.7954,-2.6756,-2.46,-2.5029,-2.5321,-2.539,-2.5732,-2.6338,-2.71,-2.71,-2.7353,-2.7806,-2.7806,-2.7969,-2.8291,-2.8291,-2.833,-2.8418,-2.8779,-2.8955,-2.9121,0.0,0.0,0.0,0.0,0.0,0.0,0.0,0.0,0.0,0.0,0.0,-2.9792,-2.9792,-2.9365,-2.9236,-2.9753,-2.9326,-2.91,-2.9289,-2.9616,-2.9397,-2.8458,-2.8817,-2.849,-2.7238,-2.7066,-2.6062,-2.4169,-2.3666,-2.3104,-2.2493,-2.2071,-2.2334,-2.3081,-2.2847,-2.2578,-2.2207,-2.1728,-2.1299,-2.0918,-2.0703,-2.0605,-2.0605,-2.0605,-2.0605,-2.0605,-2.0605,-2.0605,-2.0605,-2.0605,-2.0605,-2.0605,-2.0605,0.0,0.0,0.0,-2.0605,-2.0605,-2.0605,-2.0889,-2.1239,-2.1475,-2.2344,-2.3257,-2.3443,-2.3945,-2.4346,-2.4111,-2.4717,-2.5166,-2.4775,0.0,0.0,0.0,0.0,0.0,0.0,0.0,0.0,0.0,0.0,0.0,0.0,0.0,0.0,0.0,0.0,-2.8841,-2.7764,-2.9557,-3.0306,-2.9611,-3.0774,-3.0567,-2.8877,-2.8232,-2.6697,-2.4414,-2.4609,-2.4834,-2.5125,-2.5273,-2.584,-2.666,-2.666,-2.7051,-2.7718,-2.7718,-2.7963,-2.8291,-2.8291,-2.8291,-2.831,-2.8496,-2.8564,-2.8662,0.0,0.0,0.0,0.0,0.0,0.0,0.0,0.0,0.0,0.0,0.0,-2.9792,-2.9792,0.0,0.0,0.0,-2.9654,-2.9327,-2.8725,-2.9252,-2.9007,-2.7772,-2.8637,-2.8376,-2.673,-2.699,-2.5862,-2.3284,-2.317,-2.2684,-2.1885,-2.1992,-2.2441,-2.3081,-2.2769,-2.2617,-2.2461,-2.1719,-2.1298,-2.1151,-2.0742,-2.0605,-2.0605,-2.0605,-2.0605,-2.0615,-2.0732,-2.0703,-2.0625,-2.0742,-2.0693,-2.0605,-2.0605,-2.0605,0.0,0.0,0.0,-2.0439,-2.0439,-2.0644,-2.0917,-2.1132,-2.1963,-2.2734,-2.2993,-2.3486,-2.3877,0.0,-2.3877,-2.4092,0.0,0.0,0.0,0.0,0.0,0.0,0.0,0.0,0.0,0.0,0.0,0.0,0.0,0.0,0.0,0.0,0.0,-2.9638,-2.7898,-2.9823,-3.0461,-2.9261,-3.038,-3.0421,-2.9219,-2.7804,-2.608,-2.4092,-2.4199,-2.4424,-2.4746,-2.49,-2.5322,-2.6064,-2.6172,-2.665,-2.7405,-2.7451,-2.7754,-2.8144,-2.8252,-2.8291,-2.8291,-2.8291,-2.8291,-2.8359,0.0,0.0,0.0,0.0,0.0,0.0,0.0,0.0,0.0,0.0,0.0,-2.9792,-2.9792,-2.9792,-2.9792,-2.9792,-2.9289,-2.87,-2.8185,-2.8662,-2.8925,-2.8812,-2.7938,0.0,-2.7269,-2.5389,-2.3845,-2.2723,-2.2251,-2.196,-2.1894,-2.2295,-2.2672,-2.3091,-2.3071,-2.2838,-2.248,-2.2041,-2.1611,-2.1151,-2.0742,-2.0605,-2.0605,-2.0605,-2.0605,-2.0664,-2.1045,-2.0928,-2.0674,-2.1055,-2.0918,-2.0605,-2.0605,-2.0605,-2.0605,0.0,0.0,0.0,-1.9951,-1.9961,-2.0185,-2.0986,-2.1249,-2.1512,-2.2363,-2.2578,-2.2715,-2.3052,-2.3149,-2.3159,0.0,0.0,0.0,0.0,0.0,0.0,0.0,0.0,0.0,0.0,0.0,0.0,0.0,0.0,0.0,0.0,0.0,-2.9337,-2.8127,-2.9231,-2.9361,-2.8219,-2.9283,-2.9322,-2.8167,-2.606,-2.4368,-2.3169,-2.3623,-2.3838,-2.3867,-2.4268,-2.4697,-2.5204,-2.5586,-2.6035,-2.6484,-2.6885,-2.7305,-2.7796,-2.8135,-2.8291,-2.8291,-2.8291,-2.8291,-2.8359,0.0,0.0,0.0,0.0,0.0,0.0,0.0,0.0,0.0,0.0,0.0,0.0,0.0,-2.9792,-2.9792,-2.9792,-2.9264,-2.8662,-2.8147,-2.7937,-2.7399,-2.6325,-2.6587,0.0,-2.463,-2.4703,-2.3879,-2.219,-2.2037,-2.2123,-2.2419,-2.1887,-2.2383,-2.3652,-2.3268,-2.3013,-2.2847,-2.2471,-2.2197,-2.2021,-2.1582,-2.1416,-2.1377,-2.1103,-2.1162,-2.1398,-2.0947,-2.1064,-2.1348,-2.0947,0.0,0.0,0.0,-2.0605,-2.0605,-2.0605,-2.0488,-2.0332,-2.0332,-2.0332,-2.041,-2.0723,-2.1025,-2.1278,-2.158,-2.1904,-2.2227,-2.2646,-2.2519,-2.25,0.0,0.0,0.0,0.0,0.0,0.0,0.0,0.0,0.0,0.0,0.0,0.0,0.0,0.0,0.0,0.0,0.0,0.0,-2.9197,-2.9573,-2.9624,-2.9197,-2.9585,-2.891,-2.7087,-2.6295,-2.4935,-2.3091,-2.3257,-2.3516,-2.3809,-2.4228,-2.4658,-2.5135,-2.5547,-2.5986,-2.6396,-2.6553,-2.7031,-2.7738,-2.7885,-2.8057,-2.8291,-2.8291,-2.8291,-2.831,0.0,0.0,0.0,0.0,0.0,-2.9792,-2.9792,0.0,0.0,0.0,0.0,0.0,0.0,0.0,-2.9716,-2.9515,-2.9327,-2.89,-2.816,-2.7937,-2.7361,-2.6225,-2.6916,0.0,-2.51,-2.52,-2.4437,-2.2714,-2.2383,-2.2235,-2.2203,-2.1868,-2.2271,-2.3288,-2.2876,-2.2838,-2.3062,-2.2539,-2.2383,-2.2461,-2.1894,-2.1758,-2.1855,-2.1562,-2.1631,-2.1826,-2.1377,-2.1504,0.0,0.0,0.0,0.0,0.0,-2.0605,-2.0576,-2.0429,-2.039,-2.039,-2.039,-2.039,-2.0381,-2.0566,-2.0791,-2.1045,-2.1161,-2.1455,-2.1787,-2.2217,-2.208,-2.206,0.0,0.0,0.0,0.0,0.0,0.0,0.0,0.0,0.0,0.0,0.0,0.0,0.0,0.0,0.0,0.0,0.0,0.0,-2.9236,-2.9573,-2.9792,-2.9792,-2.9792,-2.891,-2.7046,-2.6678,-2.5557,-2.3681,-2.3256,-2.3247,-2.3584,-2.3857,-2.4307,-2.4863,-2.5166,-2.5625,-2.6182,-2.6328,-2.6728,-2.7307,-2.7393,-2.7705,-2.8086,-2.8086,-2.8174,-2.8291,0.0,-2.9792,-2.9792,-2.9792,-2.9792,-2.9792,-2.9792,-2.9792,-2.9792,-2.9792,0.0,0.0,0.0,0.0,0.0,-2.8963,-2.9453,-2.9302,-2.8197,-2.8587,-2.885,-2.885,-2.8812,0.0,-2.8812,-2.6784,-2.5263,-2.4254,-2.3206,-2.2174,-2.1251,-2.2183,-2.2389,-2.1906,-2.1906,-2.2324,-2.3003,-2.2236,-2.2129,-2.2441,-2.157,-2.1533,-2.1924,-2.1904,-2.1914,-2.1973,-2.2353,-2.2246,0.0,-2.1894,0.0,0.0,0.0,-2.0605,-2.0517,-2.0059,-1.9932,-1.9932,0.0,0.0,0.0,-2.0498,-2.0605,-2.0713,-2.1073,-2.1171,-2.1298,-2.1777,-2.1855,0.0,0.0,0.0,0.0,0.0,0.0,0.0,0.0,0.0,0.0,0.0,0.0,0.0,0.0,0.0,0.0,0.0,0.0,-2.9326,-2.8215,-2.9197,-2.9792,-2.9792,-2.9792,-2.9236,-2.8124,-2.7087,-2.5975,-2.483,-2.3671,-2.3135,-2.3135,-2.3154,-2.3578,-2.4414,-2.4424,-2.4884,-2.5723,-2.6191,-2.6377,-2.6426,-2.6846,-2.7285,-2.7718,-2.7728,-2.7939,-2.8291,-2.9792,-2.9792,-2.9792,-2.9792,-2.9792,-2.9792,-2.9792,-2.9792,-2.9792,0.0,0.0,0.0,-2.9792,-2.9792,-2.9729,-2.9566,-2.9315,-2.9038,-2.8687,-2.8082,-2.776,-2.776,-2.6948,-2.6516,-2.6516,-2.5295,-2.414,-2.3146,-2.251,-2.205,-2.1788,-2.1385,-2.1656,-2.2437,-2.1719,-2.1719,-2.2217,-2.1982,-2.2129,-2.249,-2.2256,-2.237,-2.2754,-2.2451,-2.2529,-2.2734,0.0,-2.2373,-2.2705,0.0,-2.1807,-2.1572,0.0,-2.0605,-2.0576,-2.042,-2.0429,-2.0429,-2.0429,0.0,0.0,0.0,0.0,0.0,-2.0723,-2.0752,-2.0879,-2.1318,-2.1152,0.0,0.0,0.0,0.0,0.0,0.0,0.0,0.0,0.0,0.0,0.0,0.0,0.0,0.0,0.0,0.0,0.0,-2.9792,-2.9663,-2.9365,-2.9624,-2.9792,-2.9792,-2.9792,-2.9236,-2.8124,-2.7804,-2.7116,-2.6016,-2.4882,-2.4339,-2.4307,-2.3845,-2.3906,-2.4434,-2.4746,-2.5215,-2.5703,-2.582,-2.6103,-2.6426,-2.6846,-2.7285,-2.7757,-2.8008,-2.8193,-2.8291,-2.9792,-2.9792,-2.9792,-2.9792,-2.9792,-2.9792,-2.9792,-2.9792,-2.9792,0.0,0.0,0.0,-2.9792,-2.9792,-2.9792,-2.9792,-2.9478,-2.9289,-2.9289,-2.8677,-2.8344,-2.8344,-2.7695,-2.7223,-2.696,-2.5988,-2.478,-2.3377,-2.3069,-2.2396,-2.1413,-2.126,-2.1401,-2.181,-2.1214,-2.1094,-2.1378,-2.1378,-2.1787,-2.25,-2.2324,-2.2607,-2.3062,-2.2818,-2.2886,0.0,0.0,0.0,-2.2994,-2.2373,-2.2031,0.0,0.0,0.0,-2.081,-2.0664,-2.0605,-2.0605,-2.0605,-2.0605,-2.0605,-2.0605,0.0,0.0,-2.0605,-2.0605,-2.0674,0.0,-2.0752,0.0,0.0,0.0,0.0,0.0,0.0,0.0,0.0,0.0,0.0,0.0,0.0,0.0,0.0,-2.9792,0.0,-2.9792,-2.9792,-2.9792,-2.9792,-2.9792,-2.9792,-2.9792,-2.9792,-2.9495,-2.8819,-2.8347,-2.7775,-2.7168,-2.6047,-2.5252,-2.4798,-2.4561,-2.4456,-2.4443,-2.4883,-2.5322,-2.5693,-2.5693,-2.584,-2.6143,-2.6387,-2.6855,-2.7422,-2.7666,-2.7988,-2.8291,0.0,-2.9792,-2.9792,-2.9792,-2.9792,-2.9792,-2.9792,-2.9792,-2.9792,0.0,-2.9792,-2.9792,-2.9792,-2.9792,-2.9792,-2.9792,-2.9792,-2.9792,-2.9792,-2.9792,-2.9792,-2.9792,-2.9729,-2.9376,-2.8737,-2.7714,-2.6202,-2.414,-2.4042,-2.2866,-2.0605,-2.1441,-2.1413,-2.0605,-2.0605,-2.0605,-2.0605,-2.0664,-2.1338,-2.2412,-2.2031,-2.2383,-2.3091,-2.3091,-2.3091,-2.3091,-2.3091,-2.3091,-2.3033,-2.2656,-2.2266,0.0,0.0,0.0,0.0,0.0,-2.0644,-2.0605,-2.0605,-2.0605,-2.0605,-2.0605,-2.0644,0.0,-2.0615,-2.0644,-2.0664,-2.0722,-2.075,0.0,0.0,0.0,0.0,0.0,0.0,0.0,0.0,0.0,0.0,0.0,0.0,0.0,-2.9729,-2.9792,-2.9792,-2.9792,-2.9792,-2.9792,-2.9792,-2.9792,-2.9792,-2.9792,-2.9792,-2.9792,-2.9792,-2.8806,-2.8307,-2.8267,-2.7209,-2.6088,-2.501,-2.541,-2.5231,-2.4618,-2.5108,-2.5551,-2.5917,-2.5781,-2.5693,-2.5693,-2.5742,-2.6299,-2.7021,-2.707,-2.7702,-2.8495,-2.9792,-2.9792,-2.9792,-2.9792,-2.9792,-2.9792,-2.9792,-2.9792,-2.9792,-2.9792,-2.9792,-2.9792,-2.9792,-2.9792,-2.9792,-2.9792,-2.9792,-2.9792,-2.9792,-2.9792,-2.9792,-2.9792,-2.934,-2.8634,-2.7633,-2.6956,-2.5469,-2.3002,-2.3003,-2.2168,-2.0605,-2.0789,-2.0789,-2.0605,-2.0605,-2.0605,-2.0625,-2.0947,-2.1455,-2.2002,-2.1924,-2.2383,-2.3091,-2.3091,-2.3091,-2.3091,-2.3091,-2.3091,-2.3033,-2.2656,-2.2461,-2.2314,0.0,0.0,0.0,-2.1093,0.0,0.0,0.0,0.0,0.0,0.0,0.0,0.0,-2.0683,-2.084,-2.1224,0.0,-2.1745,-2.1962,0.0,0.0,0.0,0.0,0.0,0.0,0.0,0.0,0.0,0.0,0.0,0.0,-2.9729,-2.9792,-2.9792,-2.9792,-2.9792,-2.9792,-2.9792,-2.9792,-2.9792,-2.9792,-2.9792,-2.9792,-2.9792,-2.9573,-2.9495,-2.9443,-2.8319,-2.7238,-2.6205,-2.6692,-2.6563,-2.5934,-2.6366,-2.6786,-2.7125,-2.611,-2.5693,-2.5723,-2.6123,-2.6572,-2.706,-2.7412,-2.8565,-2.9765,-2.9792,-2.9792,-2.9792,-2.9792,0.0,0.0,0.0,-2.9792,-2.9792,-2.9792,-2.9792,-2.9792,-2.9792,-2.9792,-2.9792,-2.9792,-2.9792,-2.9792,-2.9792,-2.9792,-2.9792,-2.9792,-2.8964,-2.8104,-2.7323,-2.6275,-2.4758,-2.2691,-2.2461,-2.1742,-2.0605,-2.0605,-2.0605,-2.0605,-2.0605,-2.0605,-2.0635,-2.1045,-2.1484,-2.1904,-2.2119,-2.2578,-2.3091,-2.3091,-2.3091,-2.3091,-2.3091,-2.3091,-2.3062,-2.2847,-2.2779,0.0,-2.2334,-2.2051,-2.1826,0.0,-2.1396,-2.1271,0.0,0.0,0.0,-2.1172,0.0,0.0,0.0,-2.1604,-2.1804,-2.2606,-2.2739,-2.2888,-2.3404,0.0,0.0,0.0,0.0,0.0,0.0,0.0,0.0,0.0,0.0,0.0,-2.9315,-2.9616,-2.9792,-2.9792,-2.9792,-2.9792,-2.9792,-2.9792,-2.9792,-2.9792,-2.9792,-2.9792,-2.9792,-2.9792,-2.9792,-2.9792,-2.9236,-2.8503,-2.7713,-2.8233,-2.8141,-2.7542,-2.7356,-2.7369,-2.7542,-2.6897,-2.6668,-2.6688,-2.6911,-2.7408,-2.8106,-2.8975,-3.0136,-3.1133,-2.9792,-2.9792,-2.9792,-2.9792,0.0,0.0,0.0,0.0,-2.9792,-2.9792,-2.9792,-2.9792,-2.9792,-2.9792,-2.9792,-2.9792,-2.9792,-2.9792,-2.9792,0.0,0.0,0.0,-2.8937,-2.8103,-2.7466,-2.6223,-2.4831,-2.3307,-2.279,-2.2029,-2.1024,-2.0935,-2.0789,-2.0605,-2.0693,-2.0732,-2.0772,-2.126,-2.1689,-2.2041,-2.2461,-2.2789,-2.3091,-2.3091,-2.3091,-2.3091,-2.3091,-2.3091,-2.3091,-2.3091,-2.3091,-2.3033,-2.2744,-2.2578,0.0,0.0,0.0,0.0,0.0,0.0,0.0,0.0,0.0,-2.1194,0.0,0.0,0.0,0.0,0.0,0.0,0.0,0.0,0.0,0.0,0.0,0.0,0.0,0.0,0.0,0.0,0.0,0.0,0.0,-2.9453,-2.9792,-2.9792,-2.9792,-2.9792,-2.9792,-2.9792,-2.9792,-2.9792,-2.9792,-2.9792,-2.9792,-2.9792,-2.9792,-2.9792,-2.9792,-2.948,-2.8933,-2.9636,-2.9652,-2.9114,-2.8519,-2.8272,-2.8272,-2.8038,-2.7955,-2.7955,-2.7955,-2.8466,-2.9347,-3.0466,-3.1581,-3.2358,-2.9792,-2.9792,-2.9792,-2.9792,0.0,0.0,0.0,0.0,-2.9792,-2.9792,-2.9792,-2.9792,-2.9792,-2.9792,-2.9792,-2.9792,-2.9792,0.0,-2.9792,0.0,-2.9792,0.0,0.0,0.0,-2.804,-2.7822,-2.6971,-2.5445,-2.4915,-2.3956,-2.2618,-2.2085,-2.1413,-2.0625,-2.0986,-2.1112,-2.1171,-2.2021,-2.2393,-2.248,-2.2857,-2.3052,0.0,-2.3091,-2.3091,-2.3091,-2.3091,-2.3091,-2.3091,0.0,-2.3091,-2.3091,0.0,-2.2769,-2.25,-2.2461,0.0,0.0,0.0,0.0,0.0,0.0,-2.1816,0.0,0.0,0.0,-2.1951,-2.4321,0.0,0.0,0.0,0.0,0.0,0.0,0.0,0.0,0.0,0.0,0.0,0.0,0.0,0.0,0.0,0.0,-2.9792,-2.9792,-2.9792,-2.9792,-2.9792,-2.9792,-2.9792,-2.9792,-2.9792,-2.9792,-2.9792,-2.9792,-2.9792,-2.9792,-2.9792,-2.948,-2.8974,-3.0487,-3.0915,-3.0399,-3.0687,-3.0765,-3.0721,-2.9636,-2.9177,-2.9177,-2.9177,-2.95,-2.9975,-3.067,-3.1959,-3.3227,-2.9792,-2.9792,-2.9792,-2.9792,0.0,0.0,0.0,0.0,-2.9792,-2.9792,-2.9792,-2.9792,-2.9792,-2.9792,-2.9792,-2.9792,-2.9792,-2.9792,0.0,0.0,-2.9792,0.0,0.0,0.0,0.0,-2.6292,0.0,-2.3878,-2.3161,-2.2783,-2.2769,-2.1941,-2.1625,-2.182,-2.1679,-2.1611,-2.165,-2.2256,-2.251,0.0,0.0,-2.3091,0.0,-2.3091,-2.3091,-2.3091,-2.3091,-2.3091,-2.3091,0.0,-2.3091,0.0,0.0,0.0,0.0,0.0,0.0,0.0,0.0,0.0,0.0,0.0,0.0,0.0,-2.3377,0.0,-2.2543,0.0,0.0,0.0,0.0,0.0,0.0,0.0,-2.5831,0.0,0.0,0.0,0.0,0.0,0.0,0.0,0.0,0.0,0.0,0.0,0.0,-2.9792,-2.9792,-2.9792,-2.9792,-2.9792,-2.9792,-2.9792,-2.9792,-2.9792,-2.9792,-2.9792,-3.0118,-3.0281,-3.0372,-3.1394,-3.1913,-3.2019,-3.1448,-3.1223,-3.1178,-3.0676,-3.0451,-3.0496,-3.1279,-3.1421,-3.1379,-3.2648,-3.377,-3.4539,-2.9792,-2.9792,-2.9792,-2.9792,-2.9792,0.0,0.0,0.0,-2.9792,-2.9792,-2.9792,-2.9792,-2.9792,-2.9792,-2.9792,-2.9792,-2.9792,-2.9792,0.0,0.0,-2.9792,0.0,0.0,0.0,0.0,0.0,0.0,-2.4023,-2.3235,-2.296,-2.3108,-2.218,-2.201,-2.2448,-2.2175,-2.206,-2.209,-2.251,-2.2643,-2.2672,-2.2974,-2.3091,-2.3091,-2.3091,-2.3091,-2.3091,-2.3091,-2.3091,-2.3091,-2.3091,-2.3091,0.0,-2.3091,0.0,0.0,0.0,0.0,0.0,-2.3091,0.0,0.0,0.0,0.0,0.0,0.0,0.0,0.0,0.0,0.0,0.0,0.0,0.0,0.0,0.0,0.0,-2.6562,0.0,0.0,0.0,0.0,0.0,0.0,0.0,0.0,0.0,-2.8888,-2.9315,-2.9628,-2.9779,-2.9792,-2.9792,-2.9792,-2.9792,-2.9792,-2.9792,-2.9792,-2.9867,-3.0018,-3.0419,-3.0972,-3.1625,-3.2026,-3.2528,-3.3038,-3.2096,-3.1721,-3.1721,-3.1721,-3.1721,-3.1821,-3.2754,-3.2902,-3.275,-3.4185,-3.4931,-3.5232,-2.9792,-2.9792,-2.9792,-2.9792,-2.9792,-2.9792,0.0,0.0,-2.9792,-2.9792,-2.9792,-2.9792,0.0,0.0,0.0,0.0,0.0,-2.9792,-2.9792,0.0,-2.9792,0.0,0.0,-2.9714,0.0,0.0,0.0,0.0,-2.7368,-2.6103,-2.4145,-2.352,-2.2778,-2.1916,-2.2305,-2.249,-2.2519,-2.2896,-2.3071,-2.3081,-2.3091,-2.3091,-2.3091,0.0,-2.3091,-2.3091,-2.3091,0.0,0.0,-2.3091,-2.3091,0.0,0.0,0.0,0.0,0.0,0.0,0.0,0.0,0.0,0.0,-2.3091,0.0,0.0,0.0,0.0,-2.2493,0.0,0.0,0.0,0.0,0.0,0.0,-2.5887,0.0,0.0,0.0,0.0,0.0,0.0,0.0,0.0,0.0,0.0,0.0,-2.885,-2.8913,-2.9164,-2.9767,-2.9792,-2.9792,-2.9792,-2.9792,-2.9792,-2.9792,-2.9792,-3.0068,-3.0583,-3.0608,-3.1173,-3.219,-3.2202,-3.2528,-3.3124,-3.3081,-3.3025,-3.3025,-3.3025,-3.3025,-3.3025,-3.3068,-3.3407,-3.3916,-3.4467,-3.4726,-3.4856,-2.9792,-2.9792,-2.9792,-2.9792,-2.9792,-2.9792,0.0,-2.9792,0.0,0.0,-3.0331,0.0,0.0,-3.0846,-3.0721,0.0,0.0,-3.0181,-2.9817,-2.9792,0.0,0.0,0.0,-2.9456,0.0,0.0,0.0,0.0,0.0,-2.6279,-2.6228,-2.5343,-2.4756,-2.4343,-2.4116,-2.3579,-2.2896,-2.3033,0.0,0.0,0.0,-2.3091,-2.3091,0.0,0.0,-2.3091,-2.3091,-2.3091,0.0,-2.3091,-2.3091,-2.3091,-2.3091,-2.3091,-2.3091,-2.3091,-2.3091,0.0,0.0,0.0,-2.4039,-2.3309,0.0,0.0,0.0,0.0,0.0,0.0,0.0,0.0,0.0,0.0,-2.7529,-2.5851,-2.6545,0.0,0.0,0.0,0.0,0.0,0.0,0.0,0.0,0.0,0.0,-2.7821,-2.8511,-2.8976,0.0,-2.9578,-2.9792,-2.9792,-2.9792,-2.9792,-2.9792,-2.9792,-3.0068,-3.062,-3.0959,-3.1512,-3.2227,-3.2604,-3.2893,-3.3124,-3.3124,-3.3124,-3.3124,-3.3124,-3.3294,-3.3621,-3.3621,-3.396,-3.4462,-3.4605,-3.4906,-3.532,-2.9792,-2.9792,-2.9792,-2.9792,-2.9792,-2.9792,0.0,0.0,0.0,0.0,-3.0783,0.0,-3.1348,0.0,-3.1185,0.0,-3.062,-3.0382,-2.9829,-2.9792,0.0,-2.9792,-2.9792,0.0,0.0,0.0,0.0,0.0,0.0,-2.6542,-2.6411,-2.5736,-2.5163,-2.469,-2.4375,-2.38,-2.3091,-2.3091,-2.3091,0.0,0.0,-2.3091,0.0,0.0,-2.3091,-2.3091,0.0,-2.3091,-2.3091,-2.3091,-2.3091,-2.3091,-2.3091,-2.3091,-2.3091,-2.3091,-2.3091,-2.3091,-2.3091,-2.3637,0.0,-2.38,-2.4253,0.0,-2.3887,0.0,0.0,0.0,0.0,0.0,0.0,0.0,0.0,-2.6736,-2.7112,-2.7318,0.0,-2.6499,0.0,0.0,0.0,0.0,0.0,0.0,-2.719,-2.7544,-2.8235,-2.8775,0.0,0.0,-2.9792,-2.9792,-2.9792,-2.988,-3.008,-3.008,-3.0457,-3.1185,-3.1524,-3.1976,-3.2528,-3.2905,-3.3124,-3.3124,-3.3124,-3.3194,-3.3357,-3.3156,-3.352,-3.4173,-3.3972,-3.4361,-3.4969,-3.4969,-3.5366,-3.5893,-2.9792,-2.9792,-2.9792,-2.9792,-2.9792,0.0,0.0,0.0,-3.062,0.0,-3.111,-3.1436,-3.1474,-3.1474,-3.1248,-3.0708,-3.0658,-3.0407,-2.9829,-2.9792,0.0,0.0,-2.9792,-2.9792,-2.9792,0.0,0.0,0.0,0.0,-2.7093,-2.4957,-2.4957,-2.4339,-2.3178,-2.3178,-2.3135,-2.3091,-2.3091,-2.3091,-2.3091,-2.3091,-2.3135,-2.3178,-2.3178,-2.3222,-2.3266,-2.3135,-2.3091,-2.3091,-2.3091,-2.3135,-2.3178,-2.3135,-2.3178,-2.3266,-2.3222,-2.3222,-2.3266,-2.3222,-2.3222,-2.3507,-2.4457,0.0,0.0,0.0,0.0,-2.4787,0.0,0.0,0.0,0.0,0.0,0.0,-2.8249,-2.8085,-2.772,0.0,0.0,0.0,0.0,0.0,0.0,0.0,-2.6512,-2.6964,-2.7984,-2.8109,-2.8612,0.0,0.0,-2.9792,-2.9792,-2.9792,-3.0055,-3.0608,-3.062,-3.116,-3.2215,-3.2215,-3.2516,-3.3124,-3.3124,-3.3124,-3.3124,-3.3106,-3.3395,-3.3822,-3.3357,-3.3771,-3.4675,-3.4173,-3.4638,-3.5533,-3.5533,-3.5918,-3.6405,-2.9792,-2.9792,-2.9792,0.0,-2.9792,-2.9792,0.0,0.0,0.0,0.0,-3.1662,-3.2164,-3.2591,-3.2641,-3.2252,-3.1273,-3.1185,0.0,0.0,0.0,0.0,-2.9792,-2.9792,-2.9792,-2.9792,-2.9792,0.0,-2.9365,0.0,-2.8648,-2.7267,-2.7267,-2.6232,-2.4372,-2.4372,-2.3877,-2.3091,-2.3091,-2.3091,-2.3091,-2.3091,-2.3594,0.0,0.0,-2.4882,-2.54,-2.3724,-2.3091,-2.3091,-2.3091,-2.3671,-2.4211,-2.3387,-2.4264,-2.5473,-2.4628,-2.4967,-2.5431,-2.4585,-2.4967,-2.5274,-2.3887,-2.4168,-2.4585,0.0,0.0,0.0,0.0,0.0,0.0,0.0,0.0,0.0,-2.7752,-2.7854,0.0,0.0,0.0,0.0,-2.7102,0.0,0.0,0.0,-2.6864,-2.7228,-2.7469,-2.8247,0.0,0.0,0.0,0.0,-2.9792,-2.9792,-3.0055,-3.0608,-3.062,-3.116,-3.2215,-3.2215,-3.2516,-3.3124,-3.3124,-3.3124,-3.3106,-3.3508,-3.3533,-3.3345,-3.4022,-3.4462,-3.4751,-3.4969,-3.5542,-3.6157,-3.6157,-3.6292,-3.6405,-2.9792,-2.9792,-2.9792,-2.9792,0.0,0.0,-3.0156,-3.0419,0.0,-3.1323,-3.1863,0.0,-3.2667,-3.2704,-3.234,-3.1461,-3.1185,0.0,-2.9842,0.0,0.0,-2.9792,-2.9792,-2.9792,-2.9792,-2.9792,0.0,-2.9792,0.0,0.0,-2.8096,-2.8096,-2.7186,-2.5546,-2.5546,-2.4925,-2.38,-2.3299,-2.3387,-2.3844,-2.3844,0.0,0.0,-2.5336,-2.563,-2.563,-2.4851,-2.4595,-2.4595,-2.4595,-2.467,-2.4702,-2.4049,-2.4382,-2.4893,-2.4253,-2.451,-2.4978,-2.483,-2.5252,-2.5672,-2.5368,-2.5786,-2.6066,-2.541,-2.5775,-2.6232,0.0,0.0,0.0,0.0,0.0,0.0,0.0,0.0,0.0,0.0,0.0,0.0,0.0,-2.7369,0.0,0.0,-2.7278,-2.7381,-2.762,0.0,0.0,0.0,0.0,0.0,-2.9792,-3.003,-3.0407,-3.0947,-3.1185,-3.1738,-3.2591,-3.2591,-3.2754,-3.3124,-3.3124,-3.3124,-3.3136,-3.3407,-3.3508,-3.3483,-3.411,-3.465,-3.5094,-3.568,-3.6094,-3.6405,-3.6405,-3.6405,-3.6405,-2.9792,-2.9792,-2.9792,0.0,0.0,0.0,0.0,-3.0771,0.0,-3.1436,0.0,-3.2328,-3.2328,-3.2328,-3.2102,-3.1549,0.0,-3.0482,-2.993,-2.9829,-2.9792,-2.9792,-2.9792,-2.9792,-2.9792,-2.9792,-2.9792,0.0,0.0,0.0,-2.8096,-2.8096,-2.7441,-2.6265,-2.6265,-2.5714,-2.4755,-2.3757,-2.3963,-2.4999,-2.4999,-2.5126,-2.5326,-2.6337,-2.6171,-2.5577,-2.6431,-2.6637,-2.6524,-2.6524,-2.5922,-2.5199,-2.4872,-2.4414,-2.3887,-2.343,-2.3637,-2.4135,-2.483,-2.5241,-2.587,-2.747,-2.8016,-2.8044,-2.7924,-2.8016,-2.8096,-2.8096,-2.8215,-2.8636,0.0,0.0,0.0,0.0,0.0,0.0,0.0,0.0,0.0,0.0,0.0,0.0,0.0,0.0,0.0,0.0,0.0,0.0,0.0,0.0,0.0,-2.9792,-3.0331,0.0,-3.1386,0.0,-3.2503,-3.3124,-3.3124,-3.3124,-3.3124,-3.3124,-3.3124,-3.3124,-3.3156,-3.3458,-3.3909,-3.406,-3.4726,-3.5658,-3.6182,-3.6405,-3.6405,-3.6405,-3.6405,-3.6405,-2.9792,-2.9792,-2.9792,0.0,0.0,-3.0758,-3.1185,-3.1637,-3.1964,-3.2051,-3.2566,-3.2918,-3.2918,-3.2918,-3.2692,-3.2114,-3.1574,0.0,0.0,0.0,0.0,-2.9792,-2.9792,-2.9792,-2.9792,-2.9792,-2.9792,0.0,0.0,0.0,-2.8096,-2.8096,-2.7023,-2.5083,-2.5083,-2.4999,-2.4787,-2.4585,0.0,-2.6182,-2.6182,-2.6748,-2.755,-2.7723,-2.8267,-2.8831,-2.8108,-2.725,-2.6524,-2.6524,-2.6953,-2.7215,-2.5368,-2.6584,-2.8079,-2.5294,-2.6461,-2.8291,-2.6637,-2.7545,-2.8581,-2.7128,-2.7452,-2.7884,-2.6964,-2.7441,-2.8096,-2.8096,-2.8858,-2.9573,-2.9753,0.0,0.0,0.0,0.0,0.0,0.0,0.0,0.0,0.0,0.0,-2.8285,0.0,0.0,0.0,0.0,0.0,0.0,0.0,0.0,0.0,0.0,0.0,0.0,0.0,0.0,-3.2503,-3.3124,-3.3124,-3.3124,-3.3124,-3.3124,-3.3124,-3.3106,-3.3558,-3.3809,-3.3972,-3.4831,-3.5629,-3.6267,-3.6367,-3.6405,-3.6405,-3.6405,-3.6405,-3.6405,-2.9792,0.0,-2.988,0.0,0.0,0.0,0.0,-3.2303,0.0,-3.2252,-3.2453,-3.2629,-3.2629,-3.2629,-3.2516,-3.224,-3.1461,-3.0884,-3.0633,-3.0093,-2.9792,-2.9792,-2.9792,0.0,-2.9792,-2.9792,-2.9792,-2.9792,0.0,0.0,0.0,-2.8976,-2.8108,-2.6479,-2.5911,-2.5672,0.0,0.0,0.0,-2.7331,-2.7331,-2.7654,-2.8176,-2.8767,-2.8949,-2.8937,-2.8976,-2.8661,-2.8051,-2.6894,-2.6461,-2.6326,-2.5839,-2.6378,-2.6994,-2.5964,-2.6842,-2.7839,-2.6812,-2.7666,-2.8648,-2.7614,-2.8148,-2.8858,-2.8331,-2.8621,-2.8976,-2.8976,-2.9417,-2.9792,-2.9792,-2.9792,0.0,0.0,0.0,0.0,0.0,0.0,0.0,0.0,0.0,0.0,0.0,0.0,0.0,0.0,0.0,0.0,0.0,0.0,0.0,0.0,0.0,0.0,0.0,0.0,0.0,-3.3124,-3.3124,-3.3124,-3.3124,-3.3124,-3.3124,-3.3106,-3.3658,-3.3897,-3.3985,-3.5044,-3.5868,-3.6405,-3.6405,-3.6405,-3.6405,-3.6405,-3.6405,-3.6405,-2.9942,-2.9967,0.0,0.0,-3.121,0.0,-3.2152,-3.2704,-3.2918,-3.2453,-3.229,-3.2252,-3.239,-3.219,-3.2089,-3.2202,-3.1235,-3.062,-3.062,-3.0093,-2.9792,-2.9792,-2.9792,-2.9792,-2.9792,-2.9792,-2.9792,0.0,0.0,0.0,0.0,0.0,0.0,0.0,0.0,0.0,0.0,0.0,-2.7452,-2.8478,-2.8478,-2.8478,-2.8557,-2.9456,-2.9236,-2.8557,-2.9197,-2.9443,-2.9118,-2.718,-2.6224,-2.5994,-2.6625,-2.6378,-2.5953,-2.6389,-2.6853,-2.7139,-2.6924,-2.7614,-2.8478,-2.8478,-2.9157,-2.9792,-2.9792,-2.9792,-2.9792,-2.9792,-2.9792,-2.9792,-2.9792,-2.9792,0.0,0.0,0.0,0.0,0.0,0.0,0.0,0.0,0.0,0.0,-2.9792,0.0,0.0,0.0,0.0,0.0,0.0,0.0,0.0,0.0,0.0,-3.1386,-3.1386,0.0,-3.3124,0.0,-3.3124,-3.3124,-3.3124,-3.3124,-3.3124,-3.3106,-3.3658,-3.4035,-3.4324,-3.5316,-3.5968,-3.6405,-3.6405,-3.6405,-3.6405,-3.6405,-3.6405,-3.6405,0.0,0.0,0.0,0.0,0.0,0.0,-3.2202,-3.2704,-3.3056,-3.3006,-3.2541,-3.2416,-3.2943,-3.2077,-3.1675,-3.2177,-3.1235,-3.062,-3.062,-3.0093,-2.9792,-2.9792,-2.9792,-2.9792,-2.9792,-2.9792,-2.9792,0.0,0.0,0.0,0.0,0.0,0.0,0.0,0.0,0.0,0.0,-2.7964,-2.8597,-2.9624,-2.9624,-2.9624,-2.9663,-2.9753,-2.974,-2.9534,-2.8597,-2.8255,-2.8096,-2.6883,-2.7758,-2.9157,-2.8227,-2.8609,-2.8961,-2.7058,-2.7919,-2.9287,-2.8227,-2.8779,-2.9624,-2.9624,-2.9702,-2.9792,-2.9792,-2.9792,-2.9792,-2.9792,-2.9792,-2.9792,-2.9792,-2.9792,-2.9792,0.0,0.0,0.0,0.0,0.0,-2.9792,-2.9792,0.0,0.0,0.0,-2.9792,0.0,0.0,0.0,0.0,0.0,0.0,0.0,-2.9792,0.0,-3.1386,-3.1386,-3.2516,0.0,-3.3124,-3.3124,-3.3124,-3.3124,-3.3124,-3.3124,-3.3106,-3.3658,-3.4462,-3.5395,-3.6044,-3.6367,-3.6405,-3.6405,-3.6405,-3.6405,-3.6405,-3.6405,-3.6405,0.0,0.0,0.0,0.0,0.0,0.0,0.0,-3.293,-3.3124,-3.3124,-3.2566,-3.2177,-3.2077,-3.1662,-3.1486,-3.17,-3.1035,-3.062,-3.062,-3.0093,-2.9792,-2.9792,-2.9792,-2.9792,-2.9792,-2.9792,-2.9792,0.0,0.0,0.0,0.0,0.0,0.0,0.0,0.0,-2.7267,-2.8136,-2.8819,-2.9365,-2.9792,-2.9792,-2.9792,-2.9792,-2.9792,-2.9792,-2.9753,-2.9275,-2.9106,-2.9067,-2.8621,-2.8171,-2.7839,-2.8056,-2.8426,-2.8727,-2.8542,-2.9131,-2.9534,-2.8426,-2.8937,-2.9624,-2.8937,-2.9275,-2.9792,-2.9792,-2.9792,-2.9792,-2.9792,-2.9792,-2.9792,-2.9792,-2.9792,-2.9792,0.0,0.0,0.0,0.0,0.0,0.0,-2.9792,0.0,-2.9792,0.0,0.0,0.0,0.0,0.0,0.0,0.0,0.0,0.0,-3.0281,0.0,-3.1549,-3.1888,-3.2679,-3.3124,-3.3124,-3.3124,-3.3124,-3.3124,-3.3124,-3.3432,-3.4098,-3.465,-3.5328,-3.6056,-3.6317,-3.6405,-3.6405,-3.6405,-3.6405,-3.6405,-3.6405,-3.6619,-3.6908,-3.1599,0.0,-3.1813,0.0,-3.2466,-3.2604,-3.3018,-3.3124,-3.2998,-3.2616,-3.2365,-3.2064,-3.1675,-3.1198,-3.0984,-3.1148,-3.0683,-3.0369,-3.0369,-3.0005,-2.9792,-2.9792,-2.9792,0.0,-2.9792,-2.9792,-2.9792,-2.9792,-2.9792,0.0,0.0,0.0,0.0,0.0,-2.8255,-2.8307,-2.8636,-2.9456,-2.9792,-2.9792,-2.9792,-2.9792,-2.9792,-2.9792,-2.9792,-2.9792,-2.9792,-2.9792,-2.9792,-2.9792,-2.8752,-2.7585,-2.8359,-2.8597,-2.8767,-2.9573,-2.9792,-2.9624,-2.8819,-2.9197,-2.9624,-2.8806,-2.9197,-2.9792,-2.9792,-2.9792,-2.9792,-2.9792,-2.9792,-2.9792,-2.9792,-2.9792,-2.9792,-2.9792,0.0,0.0,0.0,0.0,0.0,0.0,-2.9792,-2.9792,-2.9792,-2.9792,0.0,0.0,0.0,0.0,0.0,0.0,0.0,0.0,0.0,0.0,0.0,-3.278,-3.3124,-3.3124,-3.3244,-3.3319,-3.3319,-3.3483,-3.4073,-3.4944,-3.5332,-3.5855,-3.6405,-3.6405,-3.6405,-3.6405,-3.6405,-3.6405,-3.6405,-3.6405,-3.6757,-3.7186,-3.2102,-3.2202,-3.239,-3.2968,-3.3111,-3.3111,-3.3124,-3.3124,-3.2722,-3.1562,-3.1876,-3.2215,-3.2202,-3.0771,-3.003,-3.057,-3.0118,-2.9804,-2.9804,-2.9792,-2.9792,0.0,0.0,-2.9792,-2.9792,-2.9792,-2.9792,-2.9792,0.0,0.0,-2.8096,0.0,-2.7718,-2.9714,-2.8597,-2.8727,-2.9792,-2.9792,-2.9792,-2.9792,-2.9792,-2.9792,-2.9792,-2.9792,-2.9792,-2.9792,-2.9792,-2.9792,-2.9792,-2.9792,-2.9792,-2.9753,-2.9792,-2.9792,-2.9792,-2.9792,-2.9792,-2.9792,-2.9792,-2.9792,-2.9792,-2.9792,-2.9792,-2.9792,-2.9792,-2.9792,-2.9792,-2.9792,-2.9792,-2.9792,-2.9792,-2.9792,-2.9792,-2.9792,0.0,0.0,0.0,0.0,0.0,0.0,-2.9792,-2.9792,-2.9792,0.0,0.0,0.0,0.0,0.0,0.0,0.0,0.0,-3.0595,-3.1122,0.0,-3.2202,-3.278,-3.3124,-3.3124,-3.3633,-3.3884,-3.3909,-3.4449,-3.4969,-3.5495,-3.5495,-3.5855,-3.6405,-3.6405,-3.6405,-3.6405,-3.6405,-3.6405,-3.6405,-3.6405,-3.6757,-3.7186,-3.2767,-3.2805,-3.2855,-3.3086,-3.3124,-3.3124,-3.3124,-3.3124,-3.2805,-3.2051,-3.1775,-3.1524,-3.116,-3.0658,-3.0419,0.0,-3.0118,-2.9792,0.0,-2.9792,-2.9792,-2.9792,-2.9792,-2.9792,-2.9792,-2.9792,-2.998,-3.0357,0.0,0.0,0.0,-2.891,-2.9131,-2.9792,-2.9417,-2.9456,-2.9792,-2.9792,-2.9792,-2.9792,-2.9792,-2.9792,-2.9792,-2.9792,-2.9792,-2.9792,-2.9792,-2.9792,-2.9792,-2.9792,-2.9792,-2.9792,-2.9792,-2.9792,-2.9792,-2.9792,-2.9792,-2.9792,-2.9792,-2.9792,-2.9792,-2.9792,-2.9792,-2.9792,-2.9792,-2.9792,-2.9792,-2.9792,-2.9792,-2.9792,-2.9792,-2.9792,-2.9792,-2.9792,-2.9792,0.0,0.0,0.0,0.0,0.0,-2.9792,-2.9792,0.0,-2.9792,0.0,0.0,0.0,0.0,0.0,0.0,0.0,0.0,-3.1675,0.0,-3.2805,-3.298,-3.3124,-3.3124,-3.3633,-3.4098,-3.4474,-3.4994,-3.5332,-3.552,-3.5931,-3.6194,-3.6405,-3.6405,-3.6405,-3.6405,-3.6405,-3.6405,-3.6405,-3.6405,-3.6996,-3.7751,-3.3124,-3.3124,-3.3124,-3.3124,-3.3124,-3.3124,-3.3124,-3.3124,-3.2867,-3.229,-3.1913,-3.1499,-3.0972,-3.0733,0.0,-3.0331,-3.0181,-3.0018,-2.9804,-2.9792,-2.988,-3.0093,-3.0105,-3.0193,-3.0394,0.0,0.0,-3.062,-3.0269,-3.0193,-3.0394,-3.0394,-3.0394,-3.0394,-3.0394,-3.0281,-3.0105,-3.0105,-2.998,-2.9792,-2.9792,-2.9792,-2.9792,-2.9792,-2.9792,-2.9792,-2.9792,-2.9792,-2.9792,-2.9792,-2.9792,-2.9792,-2.9792,-2.9792,-2.9792,-2.9792,-2.9792,-2.9792,-2.9792,-2.9792,-2.9792,-2.9792,-2.9792,-2.9792,-2.9792,-2.9792,-2.9792,-2.9792,-2.9792,-2.9792,-2.9792,-2.9792,-2.9792,-2.9792,-2.9792,-2.9792,-2.9792,0.0,0.0,0.0,0.0,0.0,0.0,-2.9792,0.0,0.0,0.0,0.0,0.0,0.0,0.0,-3.1675,-3.2039,0.0,-3.3111,-3.3124,-3.3181,-3.3395,-3.4161,-3.4813,-3.5353,-3.5692,-3.5855,-3.5868,-3.6267,-3.6405,-3.6405,-3.6405,-3.6405,-3.6405,-3.6405,-3.6405,-3.643,-3.6644,-3.7236,-3.804,-3.3124,-3.3124,0.0,0.0,-3.3124,0.0,-3.3124,-3.3124,-3.2855,-3.224,-3.2152,-3.1938,-3.1348,-3.0884,-3.0407,-2.9892,0.0,0.0,0.0,-2.9905,-3.0118,-3.0595,-3.0658,-3.0884,-3.1323,-3.0896,-3.067,-3.067,-3.0708,-3.0934,-3.1336,-3.1336,-3.1311,-3.1286,-3.1286,-3.1009,-3.0557,-3.0557,-3.0269,-2.9792,-2.9792,-2.9792,-2.9792,-2.9792,-2.9792,-2.9792,-2.9792,-2.9792,-2.9792,-2.9792,-2.9792,-2.9792,-2.9792,-2.9792,-2.9792,-2.9792,-2.9792,-2.9792,-2.9792,-2.9792,-2.9792,-2.9792,-2.9792,-2.9792,-2.9792,-2.9792,-2.9792,-2.9792,-2.9792,-2.9792,-2.9792,-2.9792,-2.9792,-2.9792,-2.9792,-2.9792,-2.9792,0.0,0.0,0.0,0.0,0.0,0.0,-2.9792,-2.9792,0.0,0.0,0.0,0.0,0.0,-3.1148,-3.2177,-3.2252,-3.2528,-3.3111,-3.3124,-3.337,-3.3972,-3.4956,-3.5793,-3.6405,-3.6405,-3.6405,-3.6405,-3.6405,-3.6405,-3.6405,-3.6405,-3.6405,-3.6405,-3.6405,-3.6405,-3.6468,-3.6973,-3.7525,-3.809,0.0,0.0,-3.3124,-3.3124,-3.3124,-3.3124,-3.3124,-3.3124,-3.2717,-3.1712,-3.1587,-3.1223,-3.0269,-3.0432,-3.057,-3.0432,-3.0545,-3.0733,-3.0997,-3.1009,-3.0896,-3.062,-3.0997,-3.1085,-3.0809,-3.1072,-3.121,-3.121,-3.1625,-3.1486,-3.0796,-3.0796,-3.057,-3.0168,-3.0168,-3.0105,-2.9993,-2.9993,-2.9917,-2.9792,-2.9792,-2.9792,-2.9792,-2.9792,-2.9792,-2.9792,-2.9792,-2.9792,-2.9792,-2.9792,-2.9792,-2.9792,-2.9792,-2.9792,-2.9792,-2.9792,-2.9792,-2.9792,-2.9792,-2.9792,-2.9792,-2.9792,-2.9792,-2.9792,-2.9792,-2.9792,-2.9792,-2.9792,-2.9792,-2.9792,-2.9792,-2.9792,-2.9792,-2.9792,-2.9792,-2.9792,-2.9792,-2.9792,0.0,0.0,-2.9792,-2.9792,-2.9792,-2.9792,-2.9792,0.0,0.0,0.0,0.0,-3.121,-3.1512,-3.219,-3.2641,-3.2943,-3.3124,-3.3124,-3.3558,-3.4525,-3.4756,-3.5429,-3.6405,-3.6405,-3.6405,-3.6405,-3.6405,-3.6405,-3.6405,-3.6405,-3.6405,-3.6405,-3.6405,-3.6405,-3.6468,-3.6973,-3.7525,-3.809,-3.3508,-3.3458,-3.337,-3.3162,-3.3124,-3.3124,-3.3124,-3.3124,-3.2898,-3.224,-3.1938,-3.1537,-3.0959,-3.0947,-3.1072,-3.1323,-3.1122,-3.1085,-3.1373,-3.1386,-3.1373,-3.1348,-3.1612,-3.1763,-3.1738,-3.1763,-3.165,-3.1386,-3.1687,-3.1537,-3.0972,-3.0972,-3.0947,-3.0896,-3.0896,-3.0896,-3.0896,-3.0896,-3.062,-3.0168,-3.0168,-3.0018,-2.9792,-2.9792,-2.9792,-2.9792,-2.9792,-2.9792,-2.9792,-2.9792,-2.9792,-2.9792,-2.9792,-2.9792,-2.9842,-3.0093,-2.9993,-2.9792,-2.9792,-2.9792,-2.9792,-2.9792,-2.9792,-2.9792,-2.9792,-2.9792,-2.9792,-2.9792,-2.9792,-2.9792,-2.9792,-2.9792,-2.9792,-2.9792,-2.9792,-2.9792,-2.9792,-2.9792,0.0,-2.9792,-2.9792,-2.9792,-2.9792,-2.9792,-2.9892,-3.0143,0.0,0.0,-3.1712,-3.1763,-3.2026,-3.2591,-3.2918,-3.3124,-3.3124,-3.3319,-3.3884,-3.468,-3.4931,-3.5542,-3.6405,-3.6405,-3.6405,-3.6405,-3.6405,-3.6405,-3.6405,-3.6405,-3.6405,-3.6405,-3.6405,-3.6405,-3.6505,-3.7262,-3.7751,-3.8128,-3.3985,-3.3834,-3.3633,-3.3156,-3.3124,-3.3124,-3.3124,-3.3124,-3.3086,-3.2998,-3.2516,-3.2177,-3.2102,-3.1675,-3.1612,-3.2164,-3.1788,-3.1549,-3.1637,-3.165,-3.1813,-3.219,-3.2303,-3.2491,-3.286,-3.234,-3.1863,-3.1386,-3.1474,-3.1474,-3.1386,-3.1474,-3.1725,-3.2089,-3.2001,-3.1976,-3.1976,-3.1976,-3.1449,-3.062,-3.0708,-3.0444,-3.003,-2.9942,-2.9917,-2.9905,-2.9829,-2.9792,-2.9792,-2.9792,-2.9842,-2.9917,-2.9917,-2.9967,-3.0131,-3.0595,-3.0394,-3.003,-3.003,-3.003,-3.003,-3.003,-3.003,-3.003,-3.003,-2.998,-2.9917,-2.9917,-2.9854,-2.9792,-2.9792,-2.9792,-2.9792,-2.9792,-2.9792,-2.9792,-2.9792,0.0,-2.9792,-2.9792,-2.9792,-2.9792,-2.9792,-2.9867,-3.0118,-3.0583,-3.0683,-3.116,0.0,-3.2215,-3.2478,-3.3056,-3.3124,-3.3162,-3.3206,-3.3671,-3.4223,-3.4806,-3.527,-3.583,-3.6405,-3.6405,-3.6405,-3.6405,-3.6405,-3.6405,-3.6405,-3.6405,-3.6405,-3.6417,-3.6505,-3.6531,-3.6669,-3.7726,-3.814,-3.8291,-3.3922,-3.352,-3.3224,-3.3093,-3.3124,-3.3124,-3.3124,-3.3124,-3.2905,-3.2416,-3.2265,-3.2039,-3.1574,-3.1436,-3.1612,-3.2164,-3.2127,-3.229,-3.278,-3.286,-3.2629,-3.2227,-3.2679,-3.2528,-3.1662,-3.1562,-3.1474,-3.1386,-3.1851,-3.1838,-3.1399,-3.1863,-3.1888,-3.1499,-3.106,-3.0859,-3.0859,-3.0859,-3.0771,-3.0658,-3.1097,-3.1223,-3.1097,-3.0658,-3.0482,-3.0432,-2.9955,-2.9792,-2.9792,-2.9792,-3.0105,-3.0482,-3.0482,-3.0783,-3.116,-3.1248,-3.121,-3.1148,-3.1148,-3.1148,-3.1148,-3.1148,-3.1148,-3.1148,-3.1148,-3.0796,-3.0482,-3.0482,-3.0118,-2.9792,-2.9792,-2.9792,-2.9792,-2.9792,-2.9792,-2.9792,-2.9792,0.0,-2.9792,-2.9792,-2.9792,-2.9792,-2.9792,-3.0218,-3.052,-3.0608,-3.1022,-3.1549,-3.2177,-3.2215,-3.2478,-3.3056,-3.3124,-3.3307,-3.3771,-3.3859,-3.4412,-3.537,-3.5458,-3.583,-3.6405,-3.6405,-3.6405,-3.6405,-3.6405,-3.6405,-3.6405,-3.6405,-3.6405,-3.6455,-3.692,-3.7109,-3.7199,-3.8316,-3.8781,-3.8831,-3.4851,-3.4349,-3.3872,-3.3571,-3.3269,-3.3124,-3.3124,-3.3124,-3.298,-3.2717,-3.2679,-3.2579,-3.2328,-3.2303,-3.2403,-3.2654,-3.2679,-3.2792,-3.3056,-3.3124,-3.2998,-3.2692,-3.293,-3.2679,-3.1851,-3.2139,-3.2001,-3.1386,-3.1938,-3.1938,-3.1399,-3.165,-3.1788,-3.1825,-3.1587,-3.165,-3.1938,-3.1938,-3.1763,-3.1499,-3.1738,-3.165,-3.1361,-3.1122,-3.1035,-3.0997,-3.0746,-3.0645,-3.0645,-3.0645,-3.0821,-3.1035,-3.1035,-3.1198,-3.1449,-3.175,-3.1625,-3.1386,-3.1386,-3.1386,-3.1386,-3.1386,-3.1386,-3.1386,-3.1386,-3.1198,-3.1035,-3.1035,-3.0834,-3.057,-3.0281,-3.0231,-3.0231,-3.0231,-2.9993,0.0,0.0,-2.998,-2.9792,-2.9792,-3.0055,-3.0231,-3.0231,-3.0721,-3.1148,-3.1461,-3.17,-3.2077,-3.2641,-3.2679,-3.2805,-3.3111,-3.337,-3.3646,-3.3897,-3.4198,-3.4705,-3.5495,-3.5495,-3.583,-3.6405,-3.6405,-3.6405,-3.6405,-3.6405,-3.6405,-3.6405,-3.6405,-3.6405,-3.6468,-3.6973,-3.7186,-3.7324,-3.8454,-3.8919,-3.9007,-3.5583,-3.5056,-3.455,-3.3997,-3.3545,-3.3219,-3.3136,-3.3124,-3.3124,-3.3124,-3.3124,-3.3124,-3.3124,-3.3124,-3.3124,-3.3124,-3.3124,-3.3124,-3.3124,-3.3124,-3.3124,-3.3124,-3.2955,-3.2604,-3.2039,-3.2453,-3.2202,-3.121,-3.1888,-3.2001,-3.1587,-3.1712,-3.2001,-3.2403,-3.2277,-3.2466,-3.288,-3.288,-3.2616,-3.2227,-3.2353,-3.2152,-3.1763,-3.1637,-3.1587,-3.1562,-3.1436,-3.1386,-3.1386,-3.1386,-3.1474,-3.1587,-3.1587,-3.1675,-3.1863,-3.229,-3.2114,-3.175,-3.1612,-3.1687,-3.1775,-3.1775,-3.1775,-3.1775,-3.1775,-3.1675,-3.1587,-3.1587,-3.1486,-3.1273,-3.0871,-3.0796,-3.0758,-3.0633,0.0,0.0,0.0,-3.0256,-3.003,-3.0156,-3.0545,-3.0796,-3.0796,-3.1273,-3.1763,-3.2177,-3.234,-3.2604,-3.3099,-3.3206,-3.3319,-3.3458,-3.3746,-3.396,-3.4085,-3.4638,-3.5144,-3.5683,-3.5683,-3.5956,-3.6405,-3.6405,-3.6405,-3.6405,-3.6405,-3.6405,-3.6405,-3.6405,-3.648,-3.6656,-3.7161,-3.7462,-3.7701,-3.8693,-3.9108,-3.912,-3.5508,-3.5056,-3.455,-3.3997,-3.3872,-3.3671,-3.3199,-3.3124,-3.3124,-3.3124,-3.3124,-3.3124,-3.3124,-3.3124,-3.3124,-3.3124,-3.3124,-3.3124,-3.3124,-3.3124,-3.3124,-3.3124,-3.2566,-3.2014,-3.1461,-3.1486,-3.1235,-3.067,-3.1712,-3.219,-3.2164,-3.2704,-3.3023,-3.2993,-3.2453,-3.224,-3.2277,-3.2277,-3.2252,-3.2252,-3.2805,-3.2993,-3.2893,-3.2353,-3.2152,-3.2089,-3.1574,-3.1386,-3.1386,-3.1386,-3.1725,-3.2152,-3.2152,-3.2516,-3.2998,-3.3006,-3.3023,-3.283,-3.2303,-3.2541,-3.2955,-3.2955,-3.2955,-3.2955,-3.2955,-3.2541,-3.2152,-3.2152,-3.175,-3.1386,-3.1336,-3.1336,-3.1173,-3.0696,0.0,0.0,-3.0608,-3.0583,-3.0733,-3.121,-3.1311,-3.1336,-3.1336,-3.1838,-3.2177,-3.2215,-3.2717,-3.3031,-3.3124,-3.3558,-3.4073,-3.4587,-3.4148,-3.4148,-3.4663,-3.5157,-3.5755,-3.6342,-3.6342,-3.6367,-3.6405,-3.6405,-3.6405,-3.6405,-3.6405,-3.6405,-3.6405,-3.6405,-3.6707,-3.7174,-3.7726,-3.8278,-3.8869,-3.9421,-3.9634,-3.9634,-3.6056,-3.5604,-3.5119,-3.4906,-3.4638,-3.4223,-3.3671,-3.3583,-3.347,-3.3162,-3.3124,-3.3124,-3.3124,-3.3124,-3.3124,-3.3124,-3.3124,-3.3124,-3.3124,-3.3124,-3.3124,-3.3124,-3.2867,-3.2491,-3.1913,-3.2252,-3.2164,-3.1612,-3.2378,-3.2754,-3.2754,-3.2968,-3.3124,-3.3111,-3.2842,-3.2754,-3.2754,-3.2754,-3.2754,-3.2767,-3.2993,-3.3124,-3.3056,-3.283,-3.2754,-3.2717,-3.2516,-3.2428,-3.2428,-3.2428,-3.2579,-3.2754,-3.2754,-3.2905,-3.3124,-3.3124,-3.3124,-3.3106,-3.3232,-3.3169,-3.3124,-3.3124,-3.3124,-3.3124,-3.3124,-3.2905,-3.2754,-3.2754,-3.2579,-3.2328,-3.1964,-3.1901,-3.1838,-3.1637,0.0,-3.121,-3.1562,-3.1311,-3.1173,-3.1361,-3.1687,-3.1901,-3.1901,-3.2416,-3.2893,-3.3232,-3.347,-3.3734,-3.4073,-3.4299,-3.4512,-3.4668,-3.4806,-3.4969,-3.5182,-3.578,-3.6157,-3.6405,-3.6405,-3.6405,-3.6405,-3.6405,-3.6405,-3.6405,-3.6405,-3.6405,-3.643,-3.6782,-3.6998,-3.7274,-3.8191,-3.868,-3.8931,-3.9484,-3.9697,-3.9697,-3.6405,-3.6056,-3.5696,-3.552,-3.5194,-3.4756,-3.4248,-3.401,-3.3759,-3.3382,-3.3181,-3.3124,-3.3124,-3.3124,-3.3124,-3.3124,-3.3124,-3.3124,-3.3124,-3.3124,-3.3124,-3.3124,-3.3124,-3.2805,-3.2227,-3.278,-3.2792,-3.2215,-3.2792,-3.3124,-3.3124,-3.3124,-3.3124,-3.3124,-3.3124,-3.3124,-3.3124,-3.3124,-3.3124,-3.3124,-3.3124,-3.3124,-3.3124,-3.3124,-3.3124,-3.3124,-3.3124,-3.3124,-3.3124,-3.3124,-3.3124,-3.3106,-3.3282,-3.3458,-3.3558,-3.3382,-3.3458,-3.3633,-3.3847,-3.3746,-3.3558,-3.3382,-3.3332,-3.3332,-3.3332,-3.3332,-3.3382,-3.3558,-3.3596,-3.347,-3.3081,-3.2855,-3.2692,-3.2516,-3.2014,-3.1775,-3.2164,-3.1888,-3.1712,-3.1901,-3.2252,-3.2478,-3.2478,-3.3006,-3.3483,-3.3872,-3.406,-3.4399,-3.4906,-3.4768,-3.4876,-3.5228,-3.5395,-3.5583,-3.5805,-3.6169,-3.6405,-3.6405,-3.6405,-3.6405,-3.6417,-3.6581,-3.6669,-3.6681,-3.6857,-3.6872,-3.6958,-3.7287,-3.755,-3.7789,-3.8567,-3.8981,-3.9182,-3.9546,-3.9697,-3.9697,-3.6405,-3.6405,-3.6194,-3.5596,-3.5508,-3.532,-3.4768,-3.4261,-3.3909,-3.3897,-3.342,-3.3081,-3.3124,-3.3124,-3.3081,-3.3124,-3.3124,-3.3081,-3.3124,-3.3124,-3.3124,-3.3124,-3.3124,-3.2805,-3.2227,-3.278,-3.2792,-3.2227,-3.2792,-3.3124,-3.3124,-3.3124,-3.3124,-3.3124,-3.3124,-3.3124,-3.3124,-3.3124,-3.3124,-3.3124,-3.3124,-3.3124,-3.3124,-3.3081,-3.3124,-3.3124,-3.3124,-3.3124,-3.3124,-3.3124,-3.3124,-3.3224,-3.3734,-3.4274,-3.4613,-3.406,-3.4299,-3.4555,-3.406,-3.4311,-3.46,-3.4048,-3.3909,-3.3909,-3.3909,-3.3909,-3.406,-3.4613,-3.468,-3.468,-3.468,-3.4274,-3.3721,-3.3224,-3.2604,-3.2227,-3.2227,-3.2227,-3.2441,-3.3018,-3.3093,-3.3093,-3.3093,-3.3583,-3.3909,-3.3909,-3.4424,-3.4931,-3.547,-3.4994,-3.5228,-3.6367,-3.583,-3.5805,-3.6405,-3.6405,-3.6405,-3.6405,-3.6405,-3.6405,-3.643,-3.6935,-3.7186,-3.7224,-3.7764,-3.8002,-3.8002,-3.8015,-3.8354,-3.8919,-3.8881,-3.9207,-3.9697,-3.9697,-3.9697,-3.9697,-3.6405,-3.6405,-3.6355,-3.6144,-3.6119,-3.5931,-3.5345,-3.5119,-3.4731,-3.3997,-3.3759,-3.3508,-3.3162,-3.342,-3.3495,-3.3106,-3.3432,-3.3483,-3.3106,-3.3124,-3.3124,-3.3124,-3.3124,-3.3006,-3.283,-3.2993,-3.2993,-3.2817,-3.2993,-3.3124,-3.3124,-3.3124,-3.3124,-3.3124,-3.3124,-3.3124,-3.3124,-3.3124,-3.3124,-3.3124,-3.3124,-3.3124,-3.3162,-3.3508,-3.3658,-3.3658,-3.3658,-3.3658,-3.3658,-3.3658,-3.3658,-3.3759,-3.4299,-3.4587,-3.4688,-3.4525,-3.4587,-3.4731,-3.4944,-3.5132,-3.5119,-3.4613,-3.4474,-3.4474,-3.4474,-3.4474,-3.4525,-3.4688,-3.468,-3.468,-3.468,-3.4587,-3.4424,-3.4261,-3.4085,-3.3928,-3.3928,-3.3928,-3.4035,-3.4211,-3.4223,-3.4223,-3.4223,-3.4374,-3.4638,-3.4981,-3.5567,-3.5943,-3.6107,-3.5956,-3.6065,-3.6405,-3.6207,-3.6194,-3.6405,-3.6405,-3.6405,-3.6405,-3.6405,-3.6619,-3.6996,-3.7111,-3.74,-3.7764,-3.7939,-3.8002,-3.804,-3.8442,-3.8718,-3.8957,-3.9295,-3.9546,-3.9697,-3.9697,-3.9697,-3.9697,-3.6405,-3.6405,-3.6405,-3.6405,-3.6405,-3.6304,-3.5918,-3.5633,-3.5257,-3.4638,-3.4361,-3.401,-3.3458,-3.3709,-3.3771,-3.3432,-3.3709,-3.3671,-3.3162,-3.3124,-3.3124,-3.3124,-3.3124,-3.3124,-3.3124,-3.3124,-3.3124,-3.3124,-3.3124,-3.3124,-3.3124,-3.3124,-3.3124,-3.3124,-3.3124,-3.3124,-3.3124,-3.3124,-3.3124,-3.3124,-3.3124,-3.3124,-3.3174,-3.3684,-3.3897,-3.3897,-3.3897,-3.4035,-3.4198,-3.3972,-3.4186,-3.4613,-3.4893,-3.5203,-3.5328,-3.5069,-3.5203,-3.5391,-3.547,-3.5658,-3.5793,-3.5454,-3.5203,-3.5006,-3.5006,-3.5006,-3.5056,-3.5328,-3.5366,-3.5366,-3.5366,-3.5203,-3.5006,-3.5006,-3.4818,-3.468,-3.468,-3.468,-3.468,-3.468,-3.468,-3.468,-3.468,-3.4868,-3.5232,-3.583,-3.6169,-3.6405,-3.6405,-3.6405,-3.6405,-3.6405,-3.6405,-3.6518,-3.6732,-3.6518,-3.6405,-3.6405,-3.6631,-3.6908,-3.7199,-3.7651,-3.8027,-3.8366,-3.858,-3.8668,-3.8705,-3.9057,-3.9195,-3.9233,-3.9559,-3.9697,-3.9697,-3.9697,-3.9697,-3.9697,-3.6405,-3.6405,-3.6405,-3.6405,-3.6405,-3.6405,-3.6405,-3.5931,-3.5558,-3.5508,-3.5056,-3.4587,-3.4035,-3.401,-3.4022,-3.3972,-3.3922,-3.3671,-3.3162,-3.3124,-3.3124,-3.3124,-3.3124,-3.3124,-3.3124,-3.3124,-3.3124,-3.3124,-3.3124,-3.3124,-3.3124,-3.3124,-3.3124,-3.3124,-3.3174,-3.3156,-3.3156,-3.3206,-3.3219,-3.3219,-3.3219,-3.3219,-3.3282,-3.3834,-3.4048,-3.4048,-3.4048,-3.4374,-3.468,-3.4211,-3.4751,-3.5571,-3.5571,-3.5968,-3.6304,-3.5768,-3.5968,-3.6304,-3.5708,-3.5981,-3.6405,-3.6405,-3.5994,-3.5571,-3.5571,-3.5571,-3.5768,-3.6304,-3.6405,-3.6405,-3.6405,-3.5956,-3.5571,-3.5571,-3.5157,-3.4864,-3.4864,-3.4864,-3.4864,-3.4864,-3.4864,-3.4864,-3.4864,-3.527,-3.583,-3.6367,-3.6405,-3.643,-3.648,-3.648,-3.6505,-3.6556,-3.6556,-3.6795,-3.7249,-3.6807,-3.6556,-3.6568,-3.6973,-3.7211,-3.7299,-3.8379,-3.8919,-3.8957,-3.9459,-3.9697,-3.9697,-3.9697,-3.9697,-3.9697,-3.9697,-3.9697,-3.9697,-3.9697,-3.9697,-3.9697,-3.6405,-3.6405,-3.6405,-3.6405,-3.6405,-3.6405,-3.6405,-3.6304,-3.6031,-3.5558,-3.5395,-3.5107,-3.4613,-3.4881,-3.4969,-3.4575,-3.4148,-3.3671,-3.3162,-3.3124,-3.3124,-3.3124,-3.3124,-3.3124,-3.3124,-3.3124,-3.3124,-3.3124,-3.3124,-3.3124,-3.3124,-3.3124,-3.3124,-3.3136,-3.3533,-3.3721,-3.3746,-3.4173,-3.4361,-3.4361,-3.4361,-3.4361,-3.4424,-3.4931,-3.5144,-3.5144,-3.5144,-3.5219,-3.5307,-3.5182,-3.5629,-3.6182,-3.6182,-3.6304,-3.638,-3.6267,-3.6317,-3.638,-3.6267,-3.6317,-3.6405,-3.6405,-3.6317,-3.6182,-3.6182,-3.6182,-3.6267,-3.638,-3.6405,-3.6405,-3.6405,-3.6304,-3.6182,-3.6182,-3.6128,-3.6053,-3.6053,-3.6053,-3.6053,-3.6053,-3.6053,-3.6053,-3.6053,-3.6166,-3.6279,-3.6405,-3.6405,-3.6593,-3.6985,-3.7059,-3.7199,-3.7638,-3.7651,-3.7713,-3.7826,-3.7713,-3.7651,-3.7651,-3.7337,-3.7412,-3.7852,-3.8555,-3.8919,-3.8957,-3.9459,-3.9697,-3.9697,-3.9697,-3.9697,-3.9697,-3.9697,-3.9697,-3.9697,-3.9697,-3.9697,-3.9697,-3.6405,-3.6405,-3.6405,-3.6405,-3.6405,-3.6405,-3.6405,-3.6405,-3.6304,-3.5968,-3.5931,-3.573,-3.5132,-3.532,-3.5169,-3.4399,-3.406,-3.3671,-3.3162,-3.3319,-3.347,-3.347,-3.3721,-3.3859,-3.3859,-3.3859,-3.3734,-3.347,-3.347,-3.3608,-3.3859,-3.3859,-3.3859,-3.3872,-3.4161,-3.4299,-3.4311,-3.46,-3.468,-3.468,-3.468,-3.468,-3.4776,-3.5295,-3.5495,-3.5495,-3.5495,-3.5495,-3.5533,-3.5843,-3.6119,-3.6405,-3.6405,-3.6405,-3.6405,-3.6405,-3.6405,-3.6405,-3.6405,-3.6405,-3.6405,-3.6405,-3.6606,-3.6732,-3.6468,-3.6405,-3.6405,-3.6405,-3.6405,-3.6405,-3.6405,-3.6405,-3.6405,-3.6405,-3.6405,-3.6405,-3.6405,-3.6405,-3.6405,-3.6405,-3.6405,-3.6405,-3.6405,-3.6644,-3.6807,-3.6807,-3.6998,-3.7274,-3.7563,-3.7575,-3.7713,-3.8002,-3.8002,-3.814,-3.8417,-3.814,-3.8278,-3.8806,-3.8253,-3.814,-3.8442,-3.9007,-3.912,-3.8957,-3.9459,-3.9546,-3.932,-3.9584,-3.9697,-3.9697,-3.9697,-3.9697,-3.9697,-3.9697,-3.9697,-3.9697,-3.6405,-3.6405,-3.6405,-3.6405,-3.6405,-3.6405,-3.6405,-3.6405,-3.6405,-3.6405,-3.6405,-3.6194,-3.5683,-3.5633,-3.5232,-3.4274,-3.4173,-3.3947,-3.3395,-3.3784,-3.4035,-3.4035,-3.4474,-3.468,-3.468,-3.468,-3.45,-3.4035,-3.4035,-3.4274,-3.468,-3.468,-3.468,-3.468,-3.4781,-3.4818,-3.4818,-3.4964,-3.5002,-3.5002,-3.5002,-3.5002,-3.5052,-3.5458,-3.5633,-3.5633,-3.5633,-3.5633,-3.5708,-3.6207,-3.6405,-3.6405,-3.6405,-3.6405,-3.643,-3.6518,-3.6556,-3.6568,-3.6669,-3.6681,-3.6681,-3.6681,-3.6985,-3.7211,-3.6795,-3.6619,-3.6518,-3.643,-3.6405,-3.6405,-3.6405,-3.648,-3.6518,-3.6417,-3.6493,-3.6518,-3.6417,-3.6405,-3.6405,-3.6405,-3.6493,-3.6556,-3.6556,-3.6998,-3.7324,-3.7324,-3.7751,-3.8052,-3.8153,-3.8153,-3.8203,-3.8291,-3.8291,-3.853,-3.9007,-3.853,-3.8768,-3.9685,-3.9233,-3.9007,-3.8944,-3.9446,-3.9396,-3.8957,-3.9459,-3.9433,-3.9095,-3.9509,-3.9697,-3.9697,-3.9697,-3.9697,-3.9697,-3.9697,-3.9697,-3.9697,-3.6405,-3.6405,-3.6405,-3.6405,-3.6405,-3.6405,-3.6405,-3.6405,-3.6405,-3.6405,-3.6405,-3.638,-3.6304,-3.6304,-3.6006,-3.5332,-3.527,-3.5044,-3.4537,-3.4562,-3.4613,-3.4613,-3.4675,-3.468,-3.468,-3.468,-3.4643,-3.4613,-3.4613,-3.465,-3.468,-3.468,-3.468,-3.4705,-3.5169,-3.5382,-3.542,-3.5943,-3.6179,-3.6179,-3.6179,-3.6179,-3.6191,-3.6267,-3.6304,-3.6304,-3.6304,-3.6304,-3.6304,-3.638,-3.6405,-3.6405,-3.6405,-3.6405,-3.6505,-3.6983,-3.7073,-3.7174,-3.7651,-3.7789,-3.7789,-3.7789,-3.7839,-3.7877,-3.7801,-3.7412,-3.6935,-3.6505,-3.6405,-3.6405,-3.6405,-3.6795,-3.6958,-3.648,-3.6807,-3.6958,-3.648,-3.6405,-3.6405,-3.6405,-3.6832,-3.7073,-3.7073,-3.7575,-3.7889,-3.7889,-3.7965,-3.8228,-3.873,-3.8806,-3.8969,-3.9446,-3.9471,-3.9496,-3.9584,-3.9496,-3.9546,-3.9697,-3.9622,-3.9333,-3.8944,-3.9446,-3.9396,-3.8957,-3.9459,-3.9647,-3.9584,-3.9659,-3.9697,-3.9697,-3.9697,-3.9697,-3.9697,-3.9697,-3.9697,-3.9697,-3.6405,-3.6405,-3.6405,-3.6405,-3.6405,-3.6405,-3.6405,-3.6405,-3.6405,-3.6405,-3.6405,-3.6405,-3.6405,-3.6094,-3.5805,-3.552,-3.5219,-3.4944,-3.4738,-3.4969,-3.5144,-3.5144,-3.5479,-3.5642,-3.5642,-3.5642,-3.5642,-3.5642,-3.5328,-3.5341,-3.5642,-3.5642,-3.5642,-3.5642,-3.5893,-3.5994,-3.6019,-3.6304,-3.6405,-3.6405,-3.6405,-3.6405,-3.6405,-3.6405,-3.6405,-3.6405,-3.6405,-3.6405,-3.6405,-3.6405,-3.6405,-3.6468,-3.6769,-3.6656,-3.6581,-3.7387,-3.7425,-3.7312,-3.7852,-3.8002,-3.8002,-3.8002,-3.8253,-3.8404,-3.809,-3.8065,-3.7965,-3.74,-3.7274,-3.7274,-3.7274,-3.7475,-3.7563,-3.7324,-3.7487,-3.7563,-3.7312,-3.7274,-3.7274,-3.7274,-3.75,-3.7651,-3.7651,-3.8165,-3.8492,-3.8492,-3.8781,-3.9069,-3.932,-3.9333,-3.9446,-3.9685,-3.9697,-3.9697,-3.9697,-3.9697,-3.9697,-3.9697,-3.9697,-3.9572,-3.9333,-3.9584,-3.9396,-3.8957,-3.9459,-3.9521,-3.9258,-3.9572,-3.9697,-3.9697,-3.9697,-3.9697,-3.9697,-3.9697,-3.9697,-3.9697]},{"header":{"parameterUnit":"m.s-1","parameterCategory":1,"la1":30.6,"la2":28.766,"lo1":-90.7593,"lo2":-88.6598,"dy":0.0162,"dx":0.0183,"nx":116,"ny":114,"refTime":"2024-03-01T06:00:00:Z","depth":0,"parameterNumber":3,"parameterNumberName":"V-component_of_WINDS"},"data":[0.0,0.0,0.0,0.0,0.0,0.0,0.0,0.0,0.0,0.0,0.0,0.0,0.0,0.0,0.0,0.0,0.0,0.0,0.0,0.0,0.0,0.0,0.0,0.0,0.0,0.0,0.0,0.0,0.0,0.0,0.0,0.0,0.0,0.0,0.0,0.0,0.0,0.0,0.0,0.0,0.0,0.0,0.0,0.0,0.0,0.0,0.0,0.0,0.0,0.0,0.0,0.0,0.0,0.0,0.0,0.0,0.0,0.0,0.0,0.0,0.0,0.0,0.0,0.0,0.0,0.0,0.0,0.0,0.0,0.0,0.0,0.0,0.0,0.0,0.0,0.0,0.0,0.0,0.0,0.0,0.0,0.0,0.0,0.0,0.0,0.0,0.0,0.0,0.0,0.0,0.0,0.0,0.0,0.0,0.0,0.0,0.0,0.0,0.0,0.0,0.0,0.0,0.0,0.0,0.0,0.0,0.0,0.0,0.0,0.0,0.0,0.0,0.0,0.0,0.0,0.0,0.0,0.0,0.0,0.0,0.0,0.0,0.0,0.0,0.0,0.0,0.0,0.0,0.0,0.0,0.0,0.0,0.0,0.0,0.0,0.0,0.0,0.0,0.0,0.0,0.0,0.0,0.0,0.0,0.0,0.0,0.0,0.0,0.0,0.0,0.0,0.0,0.0,0.0,0.0,0.0,0.0,0.0,0.0,0.0,0.0,0.0,0.0,0.0,0.0,0.0,0.0,0.0,0.0,0.0,0.0,0.0,0.0,0.0,0.0,0.0,0.0,0.0,0.0,0.0,0.0,0.0,0.0,0.0,0.0,0.0,0.0,0.0,0.0,0.0,0.0,0.0,0.0,0.0,0.0,0.0,0.0,0.0,0.0,0.0,0.0,0.0,0.0,0.0,0.0,0.0,0.0,0.0,0.0,0.0,0.0,0.0,0.0,0.0,0.0,0.0,0.0,0.0,0.0,0.0,0.0,0.0,0.0,0.0,0.0,0.0,0.0,0.0,0.0,0.0,0.0,0.0,0.0,0.0,0.0,0.0,0.0,0.0,0.0,0.0,0.0,0.0,0.0,0.0,0.0,0.0,0.0,0.0,0.0,0.0,0.0,0.0,0.0,0.0,0.0,0.0,0.0,0.0,0.0,0.0,0.0,0.0,0.0,0.0,0.0,0.0,0.0,0.0,0.0,0.0,0.0,0.0,0.0,0.0,0.0,0.0,0.0,0.0,0.0,0.0,0.0,0.0,0.0,0.0,0.0,0.0,0.0,0.0,0.0,0.0,0.0,0.0,0.0,0.0,0.0,0.0,0.0,0.0,0.0,0.0,0.0,0.0,0.0,0.0,0.0,0.0,0.0,0.0,0.0,0.0,0.0,0.0,0.0,0.0,0.0,0.0,0.0,0.0,0.0,0.0,0.0,0.0,0.0,0.0,0.0,0.0,0.0,0.0,0.0,0.0,0.0,0.0,0.0,0.0,0.0,0.0,0.0,0.0,0.0,0.0,0.0,0.0,0.0,0.0,0.0,0.0,0.0,0.0,0.0,0.0,0.0,0.0,0.0,0.0,0.0,0.0,0.0,0.0,0.0,0.0,0.0,0.0,0.0,0.0,0.0,0.0,0.0,0.0,0.0,0.0,0.0,0.0,0.0,0.0,0.0,0.0,0.0,0.0,0.0,0.0,0.0,0.0,0.0,0.0,0.0,0.0,0.0,0.0,0.0,0.0,0.0,0.0,0.0,0.0,0.0,0.0,0.0,0.0,0.0,0.0,0.0,0.0,0.0,0.0,0.0,0.0,0.0,0.0,0.0,0.0,0.0,0.0,0.0,0.0,0.0,0.0,0.0,0.0,0.0,0.0,0.0,0.0,0.0,0.0,0.0,0.0,0.0,0.0,0.0,0.0,0.0,0.0,0.0,0.0,0.0,0.0,0.0,0.0,0.0,0.0,0.0,0.0,0.0,0.0,0.0,0.0,0.0,0.0,0.0,0.0,0.0,0.0,0.0,0.0,0.0,0.0,0.0,0.0,0.0,0.0,0.0,0.0,0.0,0.0,0.0,0.0,0.0,0.0,0.0,0.0,0.0,0.0,0.0,0.0,0.0,0.0,0.0,0.0,0.0,0.0,0.0,0.0,0.0,0.0,0.0,0.0,0.0,0.0,0.0,0.0,0.0,0.0,0.0,0.0,0.0,0.0,0.0,0.0,0.0,0.0,0.0,0.0,0.0,0.0,0.0,0.0,0.0,0.0,0.0,0.0,0.0,0.0,0.0,0.0,0.0,0.0,0.0,0.0,0.0,0.0,0.0,0.0,0.0,0.0,0.0,0.0,0.0,0.0,0.0,0.0,0.0,0.0,0.0,0.0,0.0,0.0,0.0,0.0,0.0,0.0,0.0,0.0,0.0,0.0,0.0,0.0,0.0,0.0,0.0,0.0,0.0,0.0,0.0,0.0,0.0,0.0,0.0,0.0,0.0,0.0,0.0,0.0,0.0,0.0,0.0,0.0,0.0,0.0,0.0,0.0,0.0,0.0,0.0,0.0,0.0,0.0,0.0,0.0,0.0,0.0,0.0,0.0,0.0,0.0,0.0,0.0,0.0,0.0,0.0,0.0,0.0,0.0,0.0,0.0,0.0,0.0,0.0,0.0,0.0,0.0,0.0,0.0,0.0,0.0,0.0,0.0,0.0,0.0,0.0,0.0,0.0,0.0,0.0,0.0,0.0,0.0,0.0,0.0,0.0,0.0,0.0,0.0,0.0,0.0,0.0,0.0,0.0,0.0,0.0,0.0,0.0,0.0,0.0,0.0,0.0,0.0,0.0,0.0,0.0,0.0,0.0,0.0,0.0,0.0,0.0,0.0,0.0,0.0,0.0,0.0,0.0,0.0,0.0,0.0,0.0,0.0,0.0,0.0,0.0,0.0,0.0,0.0,0.0,0.0,0.0,0.0,0.0,0.0,0.0,0.0,0.0,0.0,0.0,0.0,0.0,0.0,0.0,0.0,0.0,0.0,0.0,0.0,0.0,0.0,0.0,0.0,0.0,0.0,0.0,0.0,0.0,0.0,0.0,0.0,0.0,0.0,0.0,0.0,0.0,0.0,0.0,0.0,0.0,0.0,0.0,0.0,0.0,0.0,0.0,0.0,0.0,0.0,0.0,0.0,0.0,0.0,0.0,0.0,0.0,0.0,0.0,0.0,0.0,0.0,0.0,0.0,0.0,0.0,0.0,0.0,0.0,0.0,0.0,0.0,0.0,0.0,0.0,0.0,0.0,0.0,0.0,0.0,0.0,0.0,0.0,0.0,0.0,0.0,0.0,0.0,0.0,0.0,0.0,0.0,0.0,0.0,0.0,0.0,0.0,0.0,0.0,0.0,0.0,0.0,0.0,0.0,0.0,0.0,0.0,0.0,0.0,0.0,0.0,0.0,0.0,0.0,0.0,0.0,0.0,0.0,0.0,0.0,0.0,0.0,0.0,0.0,0.0,0.0,0.0,0.0,0.0,0.0,0.0,0.0,0.0,0.0,0.0,0.0,0.0,0.0,0.0,0.0,0.0,0.0,0.0,0.0,0.0,0.0,0.0,0.0,0.0,0.0,0.0,0.0,0.0,0.0,0.0,0.0,0.0,0.0,0.0,0.0,0.0,0.0,0.0,0.0,0.0,0.0,0.0,0.0,0.0,0.0,0.0,0.0,0.0,0.0,0.0,0.0,0.0,0.0,0.0,0.0,0.0,0.0,0.0,0.0,0.0,0.0,0.0,0.0,0.0,0.0,0.0,0.0,0.0,0.0,0.0,0.0,0.0,0.0,0.0,0.0,0.0,0.0,0.0,0.0,0.0,0.0,0.0,0.0,0.0,0.0,0.0,0.0,0.0,0.0,0.0,0.0,0.0,0.0,0.0,0.0,0.0,0.0,0.0,0.0,0.0,0.0,0.0,0.0,0.0,0.0,0.0,0.0,0.0,0.0,0.0,0.0,0.0,0.0,0.0,0.0,0.0,0.0,0.0,0.0,0.0,0.0,0.0,0.0,0.0,0.0,0.0,0.0,0.0,0.0,0.0,0.0,0.0,0.0,0.0,0.0,0.0,0.0,0.0,0.0,0.0,0.0,0.0,0.0,0.0,0.0,0.0,0.0,0.0,0.0,0.0,0.0,0.0,0.0,0.0,0.0,0.0,0.0,0.0,0.0,0.0,0.0,0.0,0.0,0.0,0.0,0.0,0.0,0.0,0.0,0.0,0.0,0.0,0.0,0.0,0.0,0.0,0.0,0.0,0.0,0.0,0.0,0.0,0.0,0.0,0.0,0.0,0.0,0.0,0.0,0.0,0.0,0.0,0.0,0.0,0.0,0.0,0.0,0.0,0.0,0.0,0.0,0.0,0.0,0.0,0.0,0.0,0.0,0.0,0.0,0.0,0.0,0.0,0.0,0.0,0.0,0.0,0.0,0.0,0.0,0.0,0.0,0.0,0.0,0.0,0.0,0.0,0.0,0.0,0.0,0.0,0.0,0.0,0.0,0.0,0.0,0.0,0.0,0.0,0.0,0.0,0.0,0.0,0.0,0.0,0.0,0.0,0.0,0.0,0.0,0.0,0.0,0.0,0.0,0.0,0.0,0.0,0.0,0.0,0.0,0.0,0.0,0.0,0.0,0.0,0.0,0.0,0.0,0.0,0.0,0.0,0.0,0.0,0.0,0.0,0.0,0.0,0.0,0.0,0.0,0.0,0.0,0.0,0.0,0.0,0.0,0.0,0.0,0.0,0.0,0.0,0.0,0.0,0.0,0.0,0.0,0.0,0.0,0.0,0.0,0.0,0.0,0.0,0.0,0.0,0.0,0.0,0.0,0.0,0.0,0.0,0.0,0.0,0.0,0.0,0.0,0.0,0.0,0.0,0.0,0.0,0.0,0.0,0.0,0.0,0.0,0.0,0.0,0.0,0.0,0.0,0.0,0.0,0.0,0.0,0.0,0.0,0.0,0.0,0.0,0.0,0.0,0.0,0.0,0.0,0.0,0.0,0.0,0.0,0.0,0.0,0.0,0.0,0.0,0.0,0.0,0.0,0.0,0.0,0.0,0.0,0.0,0.0,0.0,0.0,0.0,0.0,0.0,0.0,0.0,0.0,0.0,0.0,0.0,0.0,0.0,0.0,0.0,0.0,0.0,0.0,0.0,0.0,0.0,0.0,0.0,0.0,0.0,0.0,0.0,0.0,0.0,0.0,0.0,0.0,0.0,0.0,0.0,0.0,0.0,0.0,0.0,0.0,0.0,0.0,0.0,0.0,0.0,0.0,0.0,0.0,0.0,0.0,0.0,0.0,0.0,0.0,0.0,0.0,0.0,0.0,0.0,0.0,0.0,0.0,0.0,0.0,0.0,0.0,0.0,0.0,0.0,0.0,0.0,0.0,0.0,0.0,0.0,0.0,0.0,0.0,0.0,0.0,0.0,0.0,0.0,0.0,0.0,0.0,0.0,0.0,0.0,0.0,0.0,0.0,0.0,0.0,0.0,0.0,0.0,0.0,0.0,0.0,0.0,0.0,0.0,0.0,0.0,0.0,0.0,0.0,0.0,0.0,0.0,0.0,0.0,0.0,0.0,0.0,0.0,0.0,0.0,0.0,0.0,0.0,0.0,0.0,0.0,0.0,0.0,0.0,0.0,0.0,0.0,0.0,0.0,0.0,0.0,0.0,0.0,0.0,0.0,0.0,0.0,0.0,0.0,0.0,0.0,0.0,0.0,0.0,0.0,0.0,0.0,0.0,0.0,0.0,0.0,0.0,0.0,0.0,0.0,0.0,0.0,0.0,0.0,0.0,0.0,0.0,0.0,0.0,0.0,0.0,0.0,0.0,0.0,0.0,0.0,0.0,0.0,0.0,0.0,0.0,0.0,0.0,0.0,0.0,0.0,0.0,0.0,0.0,0.0,0.0,0.0,0.0,0.0,0.0,0.0,0.0,0.0,0.0,0.0,0.0,0.0,0.0,0.0,0.0,0.0,0.0,0.0,0.0,0.0,0.0,0.0,0.0,0.0,0.0,0.0,0.0,0.0,0.0,0.0,0.0,0.0,0.0,0.0,0.0,0.0,0.0,0.0,0.0,0.0,0.0,0.0,4.1706,0.0,0.0,0.0,0.0,0.0,0.0,0.0,0.0,0.0,0.0,0.0,0.0,0.0,0.0,0.0,0.0,0.0,0.0,0.0,0.0,0.0,0.0,0.0,0.0,0.0,0.0,0.0,0.0,0.0,0.0,0.0,0.0,0.0,0.0,0.0,3.7889,3.7161,3.7337,3.843,3.8802,3.9464,4.0331,4.0724,4.0767,4.0473,0.0,0.0,0.0,0.0,0.0,0.0,0.0,0.0,0.0,0.0,0.0,0.0,0.0,0.0,0.0,0.0,0.0,0.0,0.0,0.0,0.0,0.0,0.0,0.0,0.0,0.0,0.0,0.0,0.0,0.0,0.0,0.0,0.0,0.0,0.0,0.0,0.0,0.0,0.0,0.0,0.0,0.0,0.0,0.0,0.0,0.0,0.0,0.0,0.0,0.0,0.0,0.0,0.0,0.0,0.0,0.0,0.0,0.0,0.0,0.0,0.0,0.0,0.0,0.0,0.0,0.0,0.0,0.0,0.0,0.0,0.0,4.2041,0.0,0.0,0.0,0.0,0.0,0.0,0.0,0.0,0.0,0.0,0.0,0.0,0.0,0.0,0.0,0.0,0.0,0.0,0.0,0.0,0.0,0.0,0.0,3.7635,3.7956,3.8548,3.7506,3.7094,0.0,0.0,0.0,0.0,3.6677,3.6874,3.7499,3.7026,3.7472,3.8802,3.9562,4.0442,4.1487,4.252,4.2665,4.1997,4.0889,0.0,0.0,0.0,0.0,0.0,0.0,0.0,0.0,0.0,0.0,0.0,0.0,0.0,0.0,0.0,0.0,0.0,0.0,0.0,0.0,0.0,0.0,0.0,0.0,0.0,0.0,0.0,0.0,0.0,0.0,0.0,0.0,0.0,0.0,0.0,0.0,0.0,0.0,0.0,0.0,0.0,0.0,0.0,0.0,0.0,0.0,0.0,0.0,0.0,0.0,0.0,0.0,0.0,0.0,0.0,0.0,0.0,0.0,0.0,0.0,0.0,0.0,0.0,4.3852,4.4121,4.4121,4.4268,4.469,4.526,4.4014,4.324,4.2833,0.0,0.0,0.0,0.0,0.0,0.0,0.0,0.0,0.0,0.0,0.0,0.0,0.0,0.0,0.0,0.0,0.0,0.0,0.0,0.0,0.0,0.0,3.6518,3.6981,3.7083,3.6914,3.7094,3.7855,0.0,3.6079,3.6778,3.6129,3.5802,3.5904,3.6485,3.7195,3.8058,4.1731,4.3593,4.3824,4.6528,4.7374,4.6478,4.3101,4.2401,4.3655,0.0,0.0,0.0,0.0,0.0,0.0,0.0,0.0,0.0,0.0,0.0,0.0,0.0,0.0,0.0,0.0,0.0,0.0,0.0,0.0,0.0,0.0,0.0,0.0,0.0,0.0,0.0,0.0,0.0,0.0,0.0,0.0,0.0,0.0,0.0,0.0,0.0,0.0,0.0,0.0,0.0,4.181,4.181,0.0,0.0,0.0,0.0,0.0,0.0,0.0,0.0,0.0,0.0,0.0,0.0,0.0,4.3669,4.4455,4.4455,4.4802,4.548,4.6269,4.6636,4.6636,4.7352,4.7737,4.7792,4.6909,0.0,4.3687,4.2827,0.0,0.0,0.0,0.0,0.0,0.0,0.0,0.0,0.0,0.0,0.0,0.0,0.0,0.0,0.0,0.0,0.0,0.0,0.0,0.0,0.0,3.6592,3.7134,3.7956,3.8048,3.799,3.7922,3.728,3.6857,3.6795,3.6028,3.5802,3.6265,3.6461,3.7745,4.0147,4.365,4.5825,4.6783,4.8892,4.969,4.925,4.7096,4.5616,4.4602,4.3184,0.0,0.0,0.0,0.0,0.0,0.0,0.0,0.0,0.0,0.0,0.0,0.0,0.0,0.0,0.0,0.0,0.0,0.0,0.0,0.0,0.0,0.0,0.0,0.0,0.0,0.0,0.0,0.0,0.0,0.0,0.0,0.0,0.0,0.0,0.0,0.0,0.0,0.0,0.0,4.2753,4.2753,4.2753,4.2995,4.316,0.0,0.0,0.0,0.0,0.0,0.0,0.0,0.0,0.0,4.4176,4.5057,4.5682,4.6049,4.6489,4.6911,4.726,4.7609,4.7755,4.7791,4.8141,4.8563,4.8967,4.8141,4.7531,4.6896,4.4421,4.3066,4.252,0.0,0.0,0.0,0.0,4.0838,4.1204,0.0,0.0,0.0,0.0,0.0,0.0,0.0,0.0,0.0,0.0,0.0,0.0,3.6711,3.732,3.8075,3.9191,3.9276,3.8971,3.8227,3.7652,3.7077,3.6502,3.574,3.569,3.6468,3.7231,3.9227,4.2502,4.5881,4.8247,4.9665,5.1472,5.2234,5.1995,5.1353,4.9393,4.6461,4.4869,4.4305,4.436,0.0,0.0,0.0,0.0,0.0,0.0,0.0,0.0,0.0,0.0,0.0,0.0,0.0,0.0,0.0,0.0,0.0,0.0,0.0,0.0,0.0,0.0,0.0,0.0,0.0,0.0,0.0,0.0,0.0,0.0,0.0,0.0,0.0,0.0,0.0,0.0,0.0,4.3593,4.3718,4.3533,4.3681,4.3718,0.0,0.0,0.0,0.0,0.0,0.0,4.4397,4.5002,4.5406,4.5608,4.7003,4.7828,4.803,4.8655,4.904,4.926,4.926,4.926,4.926,4.9462,4.9903,5.0453,4.9627,4.9609,4.992,4.6236,4.4639,4.4389,4.3138,4.2304,4.1783,4.158,4.1739,4.1988,0.0,0.0,0.0,0.0,0.0,0.0,0.0,0.0,0.0,0.0,0.0,3.591,3.6711,3.8684,3.9961,4.0028,4.0028,3.9724,3.8988,3.6924,3.5701,3.565,3.4945,3.4895,3.5633,3.9083,4.1963,4.4183,4.8663,5.1298,5.2167,5.5131,5.6088,5.5376,5.5299,5.3518,5.0283,4.6608,4.5759,4.6672,4.3864,0.0,0.0,0.0,0.0,0.0,0.0,0.0,0.0,0.0,0.0,0.0,0.0,0.0,0.0,0.0,0.0,0.0,0.0,0.0,0.0,0.0,0.0,0.0,0.0,0.0,0.0,0.0,0.0,0.0,0.0,0.0,0.0,0.0,0.0,0.0,0.0,0.0,0.0,4.3589,4.4176,0.0,0.0,0.0,0.0,4.458,4.4654,4.5296,4.6837,4.6966,4.7333,4.8104,4.8985,4.9829,5.0618,5.0655,5.1059,5.1793,5.1793,5.1793,5.183,5.2619,5.2965,5.2986,5.216,5.183,5.161,4.8304,4.6642,4.6112,4.5278,4.4566,4.3961,4.3393,4.363,4.4146,0.0,0.0,0.0,0.0,0.0,0.0,0.0,0.0,3.4895,3.4895,3.5318,3.6445,3.8684,4.0476,4.1914,4.2912,4.2997,4.2252,4.0527,3.8328,3.6874,3.6383,3.5165,3.5908,3.8877,4.16,4.4785,4.8483,5.1678,5.3902,5.5236,5.6846,5.7409,5.7116,5.6602,5.5445,5.3628,4.9633,4.7309,4.6195,4.462,4.3468,0.0,0.0,0.0,0.0,0.0,0.0,0.0,0.0,0.0,0.0,0.0,0.0,0.0,0.0,0.0,0.0,0.0,0.0,0.0,0.0,0.0,0.0,0.0,0.0,0.0,0.0,0.0,0.0,0.0,0.0,0.0,0.0,0.0,0.0,0.0,0.0,0.0,4.5076,4.6214,0.0,4.5902,4.6287,4.6489,4.625,4.6709,4.7517,4.8636,4.9205,4.9848,5.0655,5.1977,5.2821,5.3115,5.3628,5.4014,5.4308,5.4308,5.4308,5.4311,5.4087,5.3977,5.394,5.3133,5.2766,5.2637,5.0949,4.9198,4.7522,4.6701,4.5472,4.4112,4.3902,4.3791,4.372,0.0,0.0,0.0,0.0,0.0,0.0,0.0,0.0,3.4218,3.4455,3.5385,3.706,3.98,4.188,4.3599,4.484,4.4485,4.3234,4.0984,3.8497,3.6688,3.569,3.5402,3.7016,4.0753,4.376,4.7358,5.161,5.4032,5.5886,5.7226,5.7758,5.7997,5.7978,5.7446,5.6767,5.5812,5.2821,4.9848,4.7021,4.5663,4.4635,4.3754,0.0,0.0,0.0,0.0,0.0,0.0,0.0,0.0,0.0,0.0,0.0,0.0,0.0,0.0,0.0,0.0,0.0,0.0,0.0,0.0,0.0,0.0,0.0,0.0,0.0,0.0,0.0,0.0,0.0,0.0,0.0,0.0,0.0,0.0,0.0,4.6416,4.6673,4.7902,4.8636,4.836,4.86,4.8746,4.8765,4.926,5.0031,5.1151,5.172,5.238,5.3188,5.4509,5.5207,5.5207,5.5739,5.5996,5.5996,5.5445,5.5335,5.5578,5.4766,5.4399,5.4363,5.3849,5.3298,5.2795,5.2247,5.0772,4.8784,4.8187,4.6987,4.5575,4.5065,4.4555,4.4085,0.0,0.0,0.0,0.0,0.0,0.0,0.0,3.3829,3.3626,3.437,3.5864,3.7692,3.996,4.2905,4.4993,4.5737,4.4339,4.2506,4.0282,3.728,3.4923,3.3508,3.5689,3.8237,4.1009,4.5588,4.969,5.3295,5.5684,5.7244,5.7997,5.7997,5.8015,5.8033,5.7997,5.7574,5.6822,5.5978,5.3374,4.9574,4.7058,4.6471,4.6746,0.0,0.0,0.0,0.0,0.0,0.0,0.0,0.0,0.0,0.0,0.0,0.0,0.0,0.0,0.0,0.0,0.0,0.0,0.0,0.0,0.0,0.0,0.0,0.0,0.0,0.0,0.0,0.0,0.0,0.0,0.0,0.0,0.0,4.4745,4.6159,4.7498,4.8324,4.9224,5.0088,5.0839,5.0235,5.0418,5.1958,5.2087,5.2803,5.4399,5.4473,5.484,5.5669,5.6436,5.684,5.684,5.684,5.684,5.6822,5.5225,5.4895,5.5669,5.4821,5.4436,5.4436,5.4418,5.3539,5.2136,5.2112,5.1262,4.993,4.9704,4.919,4.8411,4.6973,4.6042,4.5416,0.0,0.0,0.0,0.0,0.0,0.0,3.3072,3.2733,3.2886,3.3609,3.5977,3.8853,4.2134,4.5196,4.7293,4.8037,4.5737,4.3301,4.1052,3.7077,3.4624,3.4218,3.7727,4.14,4.5018,4.8887,5.2473,5.5812,5.706,5.7776,5.7997,5.7997,5.8309,5.8859,5.8253,5.8198,5.845,5.706,5.5482,5.3705,5.0674,4.8526,4.6874,0.0,0.0,0.0,0.0,0.0,0.0,0.0,0.0,0.0,0.0,0.0,0.0,0.0,0.0,0.0,0.0,0.0,0.0,0.0,0.0,0.0,0.0,0.0,0.0,0.0,0.0,0.0,0.0,0.0,0.0,0.0,4.5057,4.5571,4.5571,4.8012,5.0086,5.0894,5.2729,5.3815,5.3445,5.3739,5.3907,5.3739,5.4271,5.506,5.6088,5.6143,5.651,5.7299,5.7556,5.7666,5.7666,5.7666,5.7666,5.7666,5.6638,5.6565,5.7281,5.5886,5.5262,5.5225,5.4638,5.3836,5.2853,5.2335,5.185,5.1377,5.0247,4.9061,4.7901,4.7483,4.6613,4.5631,0.0,0.0,0.0,0.0,0.0,0.0,3.2479,3.2039,3.2205,3.3271,3.6045,3.9191,4.2574,4.5077,4.6819,4.7564,4.4604,4.1762,3.9495,3.6299,3.4928,3.5876,4.0095,4.4049,4.7595,5.1226,5.4308,5.6804,5.7941,5.851,5.851,5.8859,5.9263,5.9685,5.8877,5.8767,5.9111,5.785,5.7024,5.64,5.4197,5.205,4.9901,4.7627,4.7095,4.737,4.5883,4.6324,4.7333,4.559,0.0,0.0,0.0,0.0,0.0,0.0,0.0,0.0,0.0,0.0,0.0,0.0,0.0,0.0,0.0,0.0,0.0,0.0,0.0,0.0,0.0,0.0,0.0,0.0,4.6434,4.7645,4.8361,5.0105,5.1848,5.3316,5.4751,5.5666,5.5886,5.6033,5.6051,5.5923,5.6326,5.6804,5.7281,5.7299,5.7519,5.7997,5.7997,5.7997,5.7997,5.7666,5.7666,5.7997,5.684,5.6895,5.7941,5.6326,5.5614,0.0,5.4748,5.3774,5.2684,5.197,5.1494,0.0,0.0,0.0,0.0,0.0,4.638,4.5669,0.0,0.0,0.0,0.0,0.0,0.0,3.231,3.1633,3.1732,3.322,3.6045,3.8971,4.1745,4.3515,4.4722,4.5382,4.21,3.9073,3.6948,3.5588,3.5926,3.8294,4.262,4.6347,4.9312,5.2875,5.5461,5.695,5.845,5.9184,5.9221,6.0034,6.0456,6.0511,5.9703,5.9331,5.9276,5.8565,5.8217,5.8088,5.7464,5.6198,5.4344,5.1298,5.1408,5.2913,5.0675,4.9481,4.882,4.7736,0.0,0.0,0.0,0.0,0.0,0.0,0.0,0.0,0.0,0.0,0.0,0.0,0.0,0.0,0.0,0.0,0.0,0.0,0.0,0.0,0.0,0.0,0.0,0.0,4.8251,5.0398,5.216,5.2472,5.3335,5.5464,5.5835,5.6418,5.785,5.7354,5.7226,5.7941,5.7997,5.7997,5.7997,0.0,0.0,0.0,0.0,5.7997,5.7997,5.7299,5.7299,5.7978,5.6455,5.6451,5.7702,5.6249,5.5552,5.543,5.4642,5.349,5.2173,5.1327,5.0554,4.9878,4.9818,4.9449,4.8676,4.6776,4.5974,0.0,0.0,0.0,0.0,0.0,0.0,0.0,3.1613,3.1275,3.1732,3.322,3.6045,3.8565,4.0333,4.2388,4.3707,4.3815,4.1018,3.8531,3.6914,3.7077,3.8497,4.1322,4.5138,4.8618,5.1676,5.4202,5.6249,5.7776,5.8749,5.9184,5.9221,6.0034,6.075,6.1318,6.0529,6.0181,6.0162,5.9997,5.9575,5.9001,5.952,5.8364,5.6143,5.4197,5.3371,5.3059,5.194,5.2252,5.2803,5.0031,4.9756,4.9958,4.6342,4.3864,0.0,0.0,0.0,0.0,0.0,0.0,0.0,0.0,0.0,0.0,0.0,0.0,0.0,0.0,0.0,0.0,0.0,0.0,0.0,4.8453,5.0325,5.2307,5.4586,5.5464,5.6051,5.651,5.7134,5.7648,5.796,5.785,5.7831,5.7997,5.7997,5.7997,5.7997,5.7997,5.7997,5.7997,5.7997,5.7997,5.7997,5.785,5.785,5.7997,0.0,0.0,5.6212,5.5793,5.5291,5.475,5.3898,5.3356,5.2925,5.1016,4.9792,4.9195,4.9193,4.9095,4.8927,4.8521,4.7614,4.6566,0.0,0.0,0.0,0.0,0.0,0.0,3.1427,3.119,3.1596,3.2696,3.4793,3.6772,3.8285,3.9428,4.0104,4.0104,3.7702,3.6366,3.6778,3.8531,4.1052,4.4401,4.8122,5.1371,5.4036,5.5935,5.7665,5.9208,6.0015,6.0401,6.0419,6.1227,6.1832,6.2181,6.1355,6.1006,6.097,6.0566,6.0181,5.985,6.0254,5.9685,5.851,5.7721,5.7152,5.6712,5.5904,5.5611,5.5225,5.2821,5.1995,5.1426,4.8141,4.5718,4.3791,0.0,0.0,0.0,0.0,0.0,0.0,0.0,0.0,0.0,0.0,0.0,0.0,0.0,0.0,4.4342,4.5149,0.0,4.8875,5.049,5.2454,5.4344,5.5978,5.6895,5.7409,5.7409,5.7758,5.7997,5.7997,5.7997,5.7997,5.7997,5.7997,5.7997,5.7997,5.7997,5.7997,5.7997,5.7997,5.7997,5.7997,5.7593,5.7413,5.7449,5.701,5.6645,5.6331,5.5849,5.5263,5.4537,5.3283,5.2541,5.208,5.0602,4.9799,4.9509,4.9137,4.9001,4.8968,4.8595,4.7986,4.7242,0.0,0.0,0.0,0.0,0.0,0.0,0.0,3.119,3.1464,3.2209,3.3461,3.4759,3.6,3.6271,3.6304,3.6152,3.4861,3.5013,3.7303,4.0206,4.3589,4.7479,5.0832,5.3674,5.5929,5.7201,5.8537,5.9935,6.0882,6.1359,6.1377,6.2345,6.278,6.2743,6.1961,6.1594,6.1557,6.0915,6.0639,6.0639,6.0639,6.0639,6.0621,6.0456,6.0309,6.007,5.9263,5.7717,5.5904,5.4601,5.3096,5.1389,4.9224,4.7443,4.5663,4.324,4.1735,0.0,0.0,0.0,0.0,0.0,0.0,0.0,0.0,4.1075,4.1662,4.4563,4.5278,4.5847,4.7314,4.9481,5.1353,5.2307,5.4344,5.6106,5.6932,5.7593,5.7997,5.7997,5.7997,5.7997,5.7997,5.7997,5.7997,5.7997,5.7997,5.7997,5.7997,5.7862,5.7862,5.7997,5.7862,5.7792,5.7792,5.7133,5.6764,5.6668,5.6606,5.6459,5.6232,5.5692,5.5089,5.4307,5.3025,5.1948,5.1064,5.0483,5.0193,5.0033,4.9441,4.9137,4.8934,4.8311,4.8007,4.772,0.0,0.0,0.0,0.0,0.0,0.0,0.0,0.0,3.1464,3.2209,3.3,3.3592,3.3761,3.4353,3.4489,3.3846,3.5385,3.7371,3.9588,4.255,4.6143,5.0541,5.2432,5.4423,5.666,5.686,5.7386,5.8272,5.9787,6.054,6.0558,6.208,6.278,6.2743,6.1961,6.1594,6.1575,6.1502,6.1465,6.1465,6.1465,6.1465,6.1392,6.0676,5.996,5.9221,5.8419,5.618,5.357,5.3387,5.227,5.0765,4.9776,4.8306,4.6489,4.4066,4.1772,3.9845,3.8946,3.8781,3.8817,3.8726,3.9239,4.0175,0.0,4.3204,4.4654,4.6452,4.7388,4.8196,4.9151,5.071,5.2362,5.3885,5.5556,5.695,5.7758,5.7941,5.7997,5.7997,5.7997,5.7997,5.7997,5.7997,5.7997,5.7997,5.7997,5.7997,5.7997,5.7376,5.7309,5.7973,5.7358,5.7015,5.7015,5.6924,5.6534,5.5819,5.5832,5.514,5.3885,5.4395,5.425,5.3594,5.3435,5.2532,5.1184,5.1106,5.0672,5.0084,4.9999,4.9576,4.8984,4.8917,4.8477,4.7872,0.0,0.0,0.0,0.0,0.0,0.0,0.0,0.0,0.0,3.1633,3.1918,3.2121,3.2121,3.2391,3.2459,3.2154,3.3778,3.6315,3.9876,4.2922,4.6752,5.164,5.3315,5.5195,5.7467,5.7484,5.8113,5.938,6.006,6.0397,6.0415,6.1103,6.1407,6.1389,6.1047,6.0904,6.0932,6.1407,6.1612,6.1602,6.1611,6.1043,6.0015,5.8272,5.6528,5.5097,5.5684,5.4142,0.0,5.0692,4.9903,4.9297,4.8948,4.7407,4.5406,4.392,4.1789,3.9827,3.9478,3.9056,3.8927,3.9848,4.1056,4.2431,4.403,4.5278,4.6544,4.8159,4.9536,5.071,5.1536,5.339,5.5005,5.5702,5.639,5.7134,5.7895,5.7235,5.6485,5.606,5.6365,5.6969,5.7905,5.7613,5.754,5.7973,5.7173,5.6858,5.7333,5.6624,5.6349,5.6641,5.6349,5.6186,5.6186,5.6186,5.5808,5.5072,5.5477,5.5145,5.4152,5.4421,5.3923,5.2782,5.2355,5.203,5.1809,5.1403,5.1285,5.1336,5.0913,5.0557,5.0185,4.9323,4.8798,4.8494,0.0,0.0,0.0,0.0,0.0,0.0,0.0,0.0,0.0,0.0,3.119,3.119,3.119,3.119,3.119,3.119,3.256,3.5047,3.8945,4.2398,4.6397,5.1183,5.345,5.5553,5.7602,5.7877,5.8524,5.9721,5.9928,6.0023,6.0055,6.0291,6.0414,6.0397,6.0154,6.0324,6.0742,6.0893,6.119,6.1542,6.0865,5.9648,5.7923,5.528,5.2619,5.049,5.1885,5.0692,4.8269,4.7058,4.6361,4.6067,4.6507,4.5296,4.3589,4.3002,4.1277,3.957,3.957,3.9478,3.9753,4.1368,4.2965,4.458,4.6195,4.737,4.8507,4.9903,5.1334,5.2449,5.2827,5.4858,5.6342,5.592,5.6464,5.6942,5.7049,5.5916,5.4878,5.4315,5.4342,5.503,5.6533,5.6436,5.6479,5.7019,5.6036,5.5745,5.6545,5.5808,5.5495,5.5678,5.5506,5.5408,5.5408,5.5408,5.5012,5.4296,5.4835,5.4818,5.4296,5.4296,5.3669,5.2604,5.208,5.2147,5.2587,5.2063,5.2029,5.2249,5.1725,5.1403,5.1082,5.0016,4.9492,4.9204,0.0,0.0,0.0,0.0,0.0,0.0,0.0,0.0,0.0,0.0,0.0,0.0,0.0,3.119,3.119,3.119,3.256,3.4404,3.6745,4.1001,4.5116,4.8934,5.2621,5.5311,5.6801,5.7529,5.7937,5.7991,5.8755,5.9144,5.9144,5.9991,6.0414,6.0379,5.9588,6.0107,6.1468,5.9917,6.0179,6.1404,5.9061,5.7152,5.5354,5.216,4.893,4.6195,4.7021,4.526,4.2543,4.2506,4.1442,4.0432,4.1992,4.1901,4.1205,4.1168,4.0029,3.8744,3.8744,3.9863,4.1407,4.302,4.4635,4.625,4.7865,4.9499,5.093,5.1738,5.2601,5.2962,5.2271,5.4041,5.5153,5.3735,5.5418,5.6399,5.49,5.4054,5.3511,5.3345,5.2205,5.1962,0.0,5.4182,5.4683,5.4685,5.4656,5.4965,5.5699,5.5042,5.4952,5.5678,5.5012,5.462,5.462,5.462,5.4264,5.3534,5.3568,5.3568,5.3534,5.3534,5.3517,5.3467,5.345,5.345,5.3467,5.345,5.2993,5.23,5.2283,5.1843,5.1185,5.1134,5.0676,4.9949,0.0,0.0,0.0,0.0,0.0,0.0,0.0,0.0,0.0,0.0,0.0,0.0,0.0,0.0,0.0,0.0,3.2087,3.3609,3.5859,3.9268,4.2675,4.5952,4.9627,5.208,5.3078,5.4803,5.57,5.57,5.6472,5.6832,5.6832,5.7158,5.7276,5.7276,5.7018,5.7185,5.7652,5.714,5.6693,5.6187,5.4878,5.3321,5.1471,4.825,4.5378,4.2796,0.0,3.9763,3.9035,3.8487,3.7747,3.7233,3.8307,3.8089,3.7517,3.7824,3.79,3.8248,3.9863,4.1077,4.2543,4.5223,4.7131,4.8784,5.038,5.1225,5.1726,5.1951,5.1546,5.1029,5.0697,5.138,5.2178,5.267,5.3392,5.4067,5.4548,5.351,5.2144,5.0647,5.0458,5.0056,4.9062,0.0,0.0,5.4504,5.3652,5.3621,5.4917,5.4264,5.3962,5.4218,5.3994,5.3848,5.3848,5.3848,5.375,5.3501,5.3501,5.3501,5.3501,5.3501,5.3501,5.3501,5.3501,5.3501,5.3501,5.3501,5.3348,5.3095,5.3095,5.2621,5.1944,5.1944,5.1471,5.0727,0.0,0.0,0.0,0.0,0.0,0.0,0.0,0.0,0.0,0.0,0.0,0.0,0.0,0.0,0.0,0.0,0.0,3.2611,3.432,3.6969,3.9614,4.2083,4.5483,4.7665,4.8379,5.0118,5.1014,5.1014,5.1775,5.2147,5.2147,5.2656,5.2892,5.2909,5.3196,5.3465,5.3724,5.3483,5.2683,5.1513,5.0447,4.8697,4.6398,4.344,4.101,0.0,3.6211,3.5459,3.5626,3.5118,3.4749,3.4613,3.5297,3.5672,3.5915,3.6208,3.7477,3.9239,4.1387,4.2965,4.4727,4.7681,4.9444,5.0725,5.1798,5.1869,5.1532,5.0994,5.0013,4.907,4.8478,4.8699,4.9284,5.0229,5.0634,5.1315,5.2788,5.1689,5.0388,4.9461,4.9057,4.8625,4.8001,0.0,0.0,5.323,5.2466,5.2595,5.4117,5.375,5.3501,5.3501,5.3501,5.3501,5.3501,5.3501,5.3501,5.3501,5.3501,5.3501,5.3501,5.3501,5.3501,5.3501,5.3501,5.3501,5.3501,5.3501,5.3501,5.3501,5.3501,5.3179,5.2739,5.2739,5.2249,5.1454,0.0,0.0,0.0,0.0,0.0,0.0,0.0,0.0,0.0,0.0,0.0,0.0,0.0,0.0,0.0,0.0,0.0,0.0,3.2151,3.4226,3.6101,3.7601,4.0493,4.2405,4.3088,4.3978,4.4429,4.4429,4.5162,4.5534,4.5568,4.6972,4.7601,4.7635,4.8342,4.9061,4.9729,4.8938,4.818,4.741,4.585,4.3415,4.0499,3.8125,3.622,3.4659,3.3085,3.2486,3.2434,3.2484,3.2536,3.2654,3.3122,3.4684,3.6347,3.6476,3.871,4.1517,4.3222,4.537,4.7698,5.0213,5.1348,5.1859,5.194,5.1337,5.0345,4.9012,4.8008,4.6976,4.5664,4.5967,4.6495,4.6691,4.7391,4.8424,4.9938,4.8984,4.8583,4.9873,4.8199,4.7775,4.9804,4.8784,0.0,5.1083,0.0,5.1877,5.3416,5.3501,5.3501,5.3501,5.3501,5.3501,5.3501,5.3501,5.3501,5.3501,5.3501,5.3501,5.3501,5.3501,5.3501,5.3501,5.3501,5.3501,5.3501,5.3501,5.3501,5.3501,5.3501,5.3484,5.345,5.3484,5.2993,5.2097,0.0,0.0,0.0,0.0,0.0,0.0,0.0,0.0,0.0,0.0,0.0,0.0,0.0,0.0,0.0,0.0,0.0,0.0,3.0804,3.2386,3.3662,3.4518,3.7432,3.9106,3.9309,4.1119,4.2066,4.2066,4.2811,4.3166,4.3166,4.3555,4.3724,4.3741,4.391,4.4116,4.4248,4.3515,4.245,4.1206,4.0253,3.8958,3.7501,3.6287,3.5236,3.433,3.3296,3.2326,3.162,3.2282,3.2889,3.3489,3.4108,3.5406,3.7007,3.8699,4.0535,4.2616,4.5406,4.6696,4.7967,5.0939,5.0645,4.9745,5.0331,4.8645,4.6854,4.6395,4.4464,4.2884,4.3058,4.281,4.3348,4.5608,4.7063,4.8617,5.064,5.1082,5.0892,5.0178,4.9582,4.9483,5.0025,4.9752,0.0,0.0,5.1522,5.1877,5.3416,5.3501,5.3501,5.3501,5.3501,5.3501,5.3501,5.3501,5.3501,5.3501,5.3501,5.3501,5.3501,5.3501,5.3501,5.3501,5.3501,5.3501,5.3501,5.3501,5.3501,5.3501,5.3501,5.3129,5.2689,5.3281,5.2993,5.2249,0.0,0.0,0.0,0.0,0.0,0.0,0.0,0.0,0.0,0.0,0.0,0.0,0.0,0.0,0.0,0.0,0.0,0.0,0.0,3.1072,3.1686,3.2018,3.392,3.4962,3.4962,3.618,3.6975,3.728,3.7726,3.8075,3.8396,3.8717,3.887,3.8886,3.9225,3.936,3.9343,3.892,3.7889,0.0,0.0,3.5214,3.4114,3.3662,3.3269,3.2896,3.2427,3.201,3.1837,3.2872,3.3671,3.441,3.5419,3.6916,3.8653,4.0706,4.2581,4.4578,4.7111,4.8319,4.9239,5.0765,4.9955,4.8706,4.8158,4.6506,4.4744,4.3356,4.183,4.062,4.0374,4.0005,4.073,4.3724,4.4908,4.6684,5.0219,5.0794,5.0896,5.1048,5.0777,5.071,5.1031,5.0777,5.1217,0.0,5.2131,5.2215,5.3433,5.3501,5.3501,5.3501,5.3501,5.3501,5.3501,5.3501,5.3501,5.3501,5.3501,5.3501,5.3501,5.3501,5.3501,5.3501,0.0,5.3501,5.3501,5.3501,5.3501,5.3501,5.3501,5.323,5.2892,5.3331,5.3213,5.2841,0.0,0.0,0.0,0.0,0.0,0.0,0.0,0.0,0.0,0.0,0.0,0.0,0.0,0.0,0.0,0.0,0.0,0.0,0.0,0.0,3.0392,3.0293,3.0979,3.1292,3.119,3.119,3.1495,3.2158,3.2158,3.2476,3.3136,3.3761,3.4049,3.4083,3.4742,3.5008,3.5008,3.5008,3.4264,3.3119,3.3119,3.2341,3.119,0.0,3.119,3.119,3.119,3.1684,3.2493,3.383,3.4682,3.5474,3.6969,3.8801,4.0769,4.2547,4.4578,4.6599,4.838,4.9719,5.0504,5.0104,4.923,4.7927,4.5794,4.4505,4.3017,4.0349,3.9732,3.9334,3.8261,3.8058,3.9056,4.21,4.2591,4.4384,4.9526,4.9695,5.0084,5.2215,5.1894,5.1775,5.2401,5.1894,5.208,5.3399,5.2858,5.2756,5.3467,5.3501,5.3501,5.3501,5.3501,5.3501,5.3501,5.3501,5.3501,5.3501,5.3501,5.3501,5.3501,5.3501,5.3501,5.3501,0.0,0.0,5.3501,5.3501,5.3501,5.3501,5.3501,5.3501,5.3501,5.3501,5.3501,5.3501,0.0,0.0,0.0,0.0,0.0,0.0,0.0,0.0,0.0,0.0,3.1929,3.1433,0.0,0.0,0.0,0.0,0.0,0.0,0.0,0.0,0.0,3.0326,3.1469,3.1819,3.1207,3.119,3.1258,3.1396,3.1396,3.1461,3.1579,3.1715,3.1765,3.1765,3.1901,3.1952,3.1952,3.1952,3.1816,3.1579,3.1579,3.1427,3.119,3.119,0.0,0.0,3.119,3.1684,3.2578,3.4456,3.5894,3.7155,3.8686,4.0553,4.2542,4.4439,4.5653,4.685,4.9096,4.9442,4.9291,4.9877,4.8127,4.5823,4.4168,4.1783,3.9634,3.8505,3.7787,3.7675,3.8616,3.8802,3.9986,4.3616,4.4209,4.5771,5.0371,5.0913,5.1437,5.3095,5.3179,5.3162,5.3281,5.3179,0.0,0.0,5.3365,5.3348,5.3501,5.3501,5.3501,5.3501,5.3501,5.3501,5.3501,5.3501,5.3501,5.3501,5.3501,5.3501,5.3501,5.3501,5.3501,5.3501,5.3501,0.0,5.3501,5.3501,5.3501,5.3501,5.3501,5.3501,5.3501,5.3501,5.3501,5.3501,0.0,0.0,0.0,0.0,0.0,0.0,0.0,3.3556,3.3002,3.2641,3.1966,3.1511,3.1511,3.1162,3.0837,0.0,0.0,0.0,0.0,0.0,0.0,0.0,3.167,3.22,3.1829,3.216,3.2345,3.24,0.0,3.1789,3.1812,3.1406,3.119,3.119,3.119,3.141,3.1769,3.1769,3.1985,3.2307,3.1938,3.1985,3.2307,0.0,0.0,0.0,3.2205,3.2344,3.2554,3.4301,3.5758,3.7279,3.9552,4.1236,4.269,4.4509,4.5754,4.6888,4.8449,4.9145,4.9232,4.8526,4.6405,4.3993,4.2099,3.9995,3.8108,3.6935,3.6738,3.7032,3.7726,3.8159,3.9394,4.2337,4.3132,4.4823,4.8917,4.983,5.076,5.2655,5.3247,5.3501,5.3501,5.3501,5.3501,5.3501,5.3501,5.3501,5.3501,5.3501,5.3501,5.3501,5.3501,5.3501,5.3501,5.3501,5.3501,5.3501,5.3501,5.3501,5.3501,5.3501,5.3501,5.3501,5.3501,0.0,5.3501,5.3501,5.3501,5.3501,5.3501,5.3501,5.3501,5.3501,5.3501,5.3501,0.0,0.0,0.0,0.0,0.0,0.0,0.0,3.3607,3.3179,3.2653,3.2065,3.1705,3.1705,3.1107,3.0837,0.0,0.0,0.0,0.0,0.0,0.0,0.0,0.0,0.0,3.2416,0.0,0.0,3.3468,3.2858,0.0,0.0,0.0,0.0,0.0,3.1664,3.1985,3.2547,3.2547,3.2865,0.0,0.0,3.2882,0.0,0.0,0.0,0.0,0.0,3.3034,3.275,3.4049,3.5211,3.6485,3.8963,4.0728,4.2127,4.3484,4.5125,4.667,4.7454,4.8707,4.9268,4.7085,4.4976,4.2794,4.0392,3.8717,3.728,3.5887,3.6096,3.6637,3.6958,3.7499,3.8684,4.1052,4.1779,4.3386,4.7158,4.8173,4.9407,5.1792,5.2756,5.3315,5.3484,5.3501,0.0,5.3501,5.3501,0.0,5.3501,5.3501,5.3501,5.3501,5.3501,5.3501,5.3501,5.3501,5.3501,5.3501,5.3501,5.3501,5.3501,5.3501,5.3501,5.3501,5.3501,0.0,0.0,5.3501,5.3501,5.3501,5.3501,5.3501,5.3501,5.3501,5.3501,5.3501,0.0,0.0,0.0,0.0,0.0,0.0,0.0,3.2251,3.2584,3.2511,3.2452,3.2392,3.2392,3.1809,3.118,0.0,0.0,0.0,0.0,0.0,0.0,0.0,0.0,0.0,0.0,0.0,0.0,3.3406,3.3351,0.0,0.0,0.0,0.0,0.0,0.0,3.3237,3.3305,3.3305,0.0,0.0,0.0,0.0,0.0,0.0,0.0,0.0,0.0,3.3372,3.3423,3.4218,3.4566,3.4851,3.5791,3.8363,4.1073,4.1401,4.3542,4.5942,4.6697,4.7979,4.8568,4.6329,4.4604,4.2658,3.9749,3.7956,3.6637,3.5769,3.565,3.614,3.755,3.7855,3.8853,4.1728,4.1694,4.2608,4.6363,4.6955,4.8071,5.098,5.1961,5.2706,5.3433,5.3501,5.3501,5.3501,0.0,0.0,5.3501,5.3501,5.3501,5.3501,5.3501,5.3501,5.3501,5.3501,5.3501,5.3501,5.3501,5.3501,5.3501,5.3501,5.3501,5.3501,5.3501,0.0,0.0,5.3501,5.3501,5.3501,5.3501,5.3501,5.3501,5.3501,5.3501,5.3501,0.0,0.0,0.0,0.0,0.0,0.0,3.2176,3.2405,3.2403,3.1958,3.1899,3.2049,3.2467,3.1899,3.1391,3.1122,0.0,0.0,0.0,0.0,0.0,0.0,0.0,0.0,0.0,0.0,3.3665,3.3523,3.3885,0.0,0.0,0.0,0.0,0.0,0.0,3.3643,3.4066,3.4066,0.0,0.0,0.0,0.0,0.0,0.0,0.0,0.0,0.0,0.0,3.3508,3.4252,3.4201,3.3812,3.366,3.5494,3.7996,3.9451,4.1356,4.3352,4.501,4.6532,4.7242,4.5466,4.3538,4.1542,3.9462,3.7483,3.5994,3.5667,3.56,3.5938,3.7026,3.7601,3.843,4.0037,4.0426,4.1356,4.3741,4.4468,4.5872,4.8852,5.027,5.1454,5.2655,0.0,5.3501,5.3501,0.0,0.0,5.3501,5.3501,5.3501,5.3501,5.3501,5.3501,5.3501,5.3501,5.3501,5.3501,5.3501,5.3501,5.3501,5.3501,5.3501,5.3501,5.3501,0.0,0.0,5.3501,5.3501,5.3501,5.3501,5.3501,5.3501,5.3501,5.3501,5.3501,0.0,0.0,0.0,0.0,0.0,3.2272,3.2272,3.244,3.2381,3.1867,3.1795,3.1974,3.2437,3.1899,3.1511,3.1511,3.1511,0.0,0.0,0.0,0.0,0.0,0.0,0.0,0.0,0.0,3.3987,3.3887,3.4316,3.4398,0.0,0.0,3.4066,3.4066,0.0,0.0,0.0,0.0,0.0,0.0,0.0,0.0,0.0,0.0,0.0,0.0,0.0,0.0,0.0,0.0,0.0,3.3322,3.278,3.3694,3.5295,3.7127,3.9343,4.1559,4.3149,4.4823,4.5771,4.4293,4.2371,4.0493,3.9005,3.7094,3.56,3.56,3.56,3.5859,3.666,3.7398,3.8142,3.887,3.9622,4.0553,4.1796,4.2608,4.4045,4.6633,4.8037,4.9543,5.1454,5.2773,5.3501,5.3501,0.0,0.0,5.3501,5.3501,5.3501,5.3501,5.3501,5.3501,5.3501,5.3501,5.3501,5.3501,5.3501,5.3501,5.3501,5.3501,5.3501,5.3501,0.0,0.0,0.0,5.3501,5.3501,5.3501,5.3501,5.3501,5.3501,5.3501,5.3501,5.3501,0.0,0.0,0.0,0.0,0.0,0.0,3.1496,3.2078,3.2512,3.2497,3.2497,3.2497,3.2512,3.1899,3.1511,3.1511,3.1511,0.0,0.0,0.0,0.0,0.0,0.0,0.0,0.0,0.0,3.3261,3.4576,3.46,3.4925,3.5583,3.5583,3.5583,3.5583,0.0,0.0,0.0,0.0,0.0,0.0,0.0,0.0,0.0,0.0,0.0,0.0,0.0,0.0,0.0,0.0,0.0,0.0,0.0,3.3406,3.3575,3.432,3.7702,4.1221,4.1238,4.2878,4.4259,4.2692,4.123,3.974,3.8261,3.6698,3.56,3.56,3.56,3.5859,3.666,3.7398,3.8142,3.887,3.9622,4.0367,4.1119,4.1847,4.2905,4.4462,4.528,4.6904,4.983,5.2164,5.3501,0.0,0.0,0.0,5.3501,5.3501,5.3501,5.3501,5.3501,5.3501,5.3501,5.3501,5.3501,5.3501,5.3501,5.3501,5.3501,5.3501,5.3501,0.0,0.0,0.0,0.0,5.3501,5.3501,5.3501,5.3501,5.3501,5.3501,5.3501,5.3501,5.3501,0.0,0.0,0.0,0.0,0.0,0.0,0.0,3.2105,3.2383,3.1897,3.227,3.2551,3.2497,3.1899,3.169,3.2123,3.1765,0.0,0.0,0.0,0.0,0.0,0.0,0.0,0.0,0.0,3.2815,3.3235,3.465,3.5208,3.4934,3.5946,3.6129,3.56,3.56,3.56,0.0,0.0,0.0,0.0,0.0,0.0,0.0,0.0,0.0,0.0,0.0,0.0,0.0,0.0,0.0,0.0,0.0,0.0,0.0,3.4421,3.6248,3.8396,3.9411,4.0578,4.1297,4.0273,3.9309,3.8345,3.7364,3.6349,3.56,3.56,3.56,3.5667,3.5943,3.7043,3.799,3.821,3.9276,4.018,4.0434,4.1534,4.2861,4.4429,4.7479,5.0253,0.0,0.0,5.3501,0.0,0.0,0.0,5.3501,5.3501,5.3501,5.3501,5.3501,5.3501,5.3501,5.3501,5.3501,5.3501,5.3501,5.3501,5.3501,5.3501,0.0,0.0,0.0,0.0,0.0,5.3501,5.3501,5.3501,5.3501,5.3501,5.3501,5.3501,5.3501,5.3501,0.0,0.0,0.0,0.0,0.0,0.0,0.0,3.1881,3.212,3.1923,3.2299,3.2564,3.2528,3.2181,3.1962,3.2108,3.1735,0.0,0.0,0.0,0.0,0.0,0.0,0.0,3.1511,3.1951,3.2422,3.2958,3.4545,3.5356,3.5416,3.6642,3.6789,3.6062,3.6062,3.5893,0.0,0.0,0.0,0.0,0.0,0.0,3.56,0.0,0.0,0.0,0.0,0.0,0.0,0.0,0.0,0.0,0.0,0.0,0.0,0.0,3.5605,3.6603,3.7821,3.8725,3.9157,3.87,3.8024,3.7347,3.6914,3.618,3.56,3.56,3.56,3.5684,3.6011,3.706,3.799,3.8278,3.9334,4.0096,4.0096,4.1382,4.2963,4.479,4.8189,0.0,0.0,5.2993,0.0,0.0,0.0,0.0,5.3501,5.3501,5.3501,5.3501,5.3501,5.3501,5.3501,5.3501,5.3501,5.3501,5.3501,5.3501,5.3501,5.3501,0.0,0.0,0.0,0.0,0.0,5.3501,5.3501,5.3501,5.3501,5.3501,5.3501,5.3501,5.3501,5.3501,0.0,0.0,0.0,0.0,0.0,0.0,0.0,3.1524,3.1796,3.2437,3.2559,3.2574,3.2547,3.252,3.2244,3.1553,0.0,0.0,0.0,0.0,0.0,0.0,0.0,0.0,3.1511,3.1511,3.2112,3.3373,3.4322,3.5392,3.6582,3.7533,3.755,3.6795,3.6795,3.6349,3.56,3.56,3.56,3.56,3.56,3.56,0.0,0.0,0.0,0.0,0.0,0.0,0.0,0.0,0.0,0.0,0.0,0.0,0.0,0.0,0.0,0.0,0.0,3.7212,3.7753,3.7753,3.7212,3.6711,3.6711,3.6146,0.0,3.56,3.56,3.5859,3.666,3.7398,3.8142,3.887,3.9622,4.0096,4.0096,4.1467,4.3318,4.5669,4.7851,0.0,5.0101,5.2181,0.0,0.0,0.0,0.0,5.3416,5.3467,5.3467,5.3416,5.3416,5.345,5.3501,5.3501,5.3501,5.3501,5.3501,5.3501,5.3501,5.3501,0.0,0.0,0.0,0.0,0.0,5.3501,5.3501,5.3501,5.3501,5.3501,5.3501,5.3501,5.3501,5.3501,0.0,0.0,0.0,0.0,0.0,0.0,0.0,0.0,0.0,0.0,3.2244,3.2382,3.1824,3.1768,3.1697,0.0,0.0,0.0,0.0,0.0,0.0,0.0,0.0,0.0,3.1511,3.1511,3.1657,3.1965,3.4368,3.5407,3.5201,3.7628,3.8065,3.6795,3.6795,3.6349,3.56,3.56,3.56,3.56,3.56,3.56,0.0,0.0,0.0,0.0,3.56,3.56,0.0,0.0,0.0,0.0,0.0,0.0,0.0,0.0,3.56,3.5633,3.5819,0.0,3.614,3.614,3.6005,3.5893,0.0,3.5735,3.56,3.56,3.56,3.5859,3.666,3.7398,3.8142,3.887,3.9622,4.0096,4.0096,4.2398,4.5094,4.7902,4.9695,5.076,5.093,0.0,0.0,0.0,0.0,5.323,5.2604,5.3179,5.323,5.2604,5.2587,5.2892,5.3501,5.3501,5.3501,5.3501,5.3501,5.3501,5.3501,5.3501,0.0,0.0,0.0,0.0,5.3501,5.3501,5.3501,5.3501,5.3501,5.3501,5.3501,5.3501,5.3501,5.3501,0.0,0.0,0.0,0.0,0.0,0.0,0.0,0.0,0.0,0.0,0.0,0.0,0.0,0.0,0.0,0.0,0.0,0.0,0.0,0.0,0.0,0.0,0.0,3.1511,3.1511,3.1824,3.2144,3.242,3.4999,3.6208,3.6182,3.8438,3.8717,3.7263,3.6569,3.6011,3.56,3.56,3.56,3.56,3.56,0.0,0.0,0.0,0.0,0.0,3.56,3.56,0.0,3.56,3.56,3.56,0.0,0.0,0.0,0.0,3.56,3.56,3.56,3.56,3.56,3.56,3.56,3.56,3.56,3.56,3.56,3.56,3.56,3.5938,3.7094,3.7635,3.8261,3.9326,3.9842,4.0451,4.1457,4.3345,4.5833,4.9103,5.0202,5.1116,0.0,0.0,0.0,0.0,0.0,5.2401,5.2317,5.2706,5.2756,5.2317,5.23,5.2689,5.3501,5.3129,5.3129,5.3501,5.3501,5.3501,5.3501,5.3501,5.3501,0.0,0.0,0.0,5.3501,5.3501,5.3501,5.3501,5.3501,5.3501,5.3501,5.3501,5.3501,5.3501,0.0,0.0,0.0,0.0,0.0,0.0,0.0,0.0,0.0,0.0,0.0,0.0,0.0,0.0,0.0,0.0,0.0,0.0,0.0,0.0,0.0,0.0,3.1511,3.1511,3.1511,3.2216,3.2912,3.3519,3.5736,3.7138,3.7844,3.9395,3.9292,3.7838,3.6434,3.5701,3.56,3.56,3.56,3.56,3.56,0.0,0.0,0.0,0.0,0.0,0.0,0.0,0.0,3.56,3.56,3.56,3.56,0.0,0.0,0.0,0.0,0.0,3.56,3.56,3.56,3.56,3.56,3.56,3.56,3.56,3.56,3.56,3.5701,3.6208,3.7652,3.799,3.8514,3.9893,4.0299,4.1271,4.373,4.4671,4.6329,4.9695,5.0287,0.0,0.0,0.0,0.0,0.0,0.0,5.1437,5.1944,5.208,5.208,5.1961,5.1961,5.235,5.3145,5.2587,5.2638,5.3315,5.345,5.3501,5.3501,5.3501,5.3501,0.0,0.0,0.0,5.3501,5.3501,5.3501,5.3501,5.3501,5.3501,5.3501,5.3501,5.3501,5.3501,0.0,0.0,0.0,0.0,0.0,0.0,0.0,0.0,0.0,0.0,0.0,0.0,0.0,0.0,0.0,0.0,0.0,0.0,0.0,0.0,0.0,3.1511,3.1511,3.1511,3.1511,3.2216,3.2939,3.369,3.5762,3.7206,3.7998,3.9421,3.9292,3.7872,3.6992,3.6231,3.56,3.56,3.56,3.56,3.56,0.0,0.0,0.0,0.0,0.0,0.0,0.0,0.0,3.56,3.56,3.56,3.56,0.0,0.0,0.0,0.0,0.0,3.56,3.56,3.56,3.56,3.56,3.56,3.56,3.56,3.56,3.56,3.6146,3.6874,3.7736,3.8413,3.9106,3.996,4.1162,4.3183,0.0,0.0,4.8071,4.9864,0.0,0.0,0.0,0.0,0.0,0.0,0.0,0.0,5.0456,5.1031,5.1082,5.0456,5.0422,5.0794,5.1555,5.2063,5.2367,5.2486,5.3179,5.3501,5.3501,5.3501,5.3501,0.0,0.0,5.3501,5.3501,5.3501,5.3501,5.3501,5.3501,5.3501,5.3501,5.3501,5.3501,5.3501,0.0,0.0,0.0,0.0,0.0,0.0,0.0,0.0,0.0,0.0,0.0,0.0,0.0,0.0,0.0,0.0,0.0,0.0,0.0,0.0,3.2272,3.268,3.3045,3.3058,3.2695,3.3735,3.4625,3.5369,3.7125,3.8179,3.8556,3.8797,3.8548,3.7855,3.6671,3.596,3.56,3.56,3.56,3.56,0.0,0.0,0.0,0.0,0.0,0.0,0.0,0.0,0.0,0.0,3.56,3.56,3.56,0.0,0.0,0.0,0.0,0.0,3.56,3.56,3.56,3.56,3.56,3.5701,3.6146,3.6248,3.6366,3.6772,3.7144,3.7618,3.8362,3.9106,4.0104,4.1627,4.3149,4.4739,4.6481,4.7056,4.7851,0.0,0.0,0.0,0.0,0.0,0.0,0.0,0.0,0.0,0.0,0.0,5.0439,5.0101,5.0084,5.0253,5.0608,5.0947,5.1505,5.23,5.2283,5.2706,5.3501,5.3061,5.3095,5.3501,0.0,5.3501,5.3501,5.3501,5.3501,5.3501,5.3501,5.3501,5.3501,5.3501,5.3501,5.3501,0.0,0.0,0.0,0.0,0.0,0.0,0.0,0.0,0.0,0.0,0.0,0.0,0.0,0.0,0.0,0.0,0.0,0.0,0.0,3.2272,3.299,3.3909,3.4414,3.4504,3.4187,3.5195,3.6069,3.68,3.8086,3.8907,3.9225,3.8497,3.8075,3.7855,3.6502,3.5769,3.56,3.56,3.56,3.56,0.0,0.0,0.0,0.0,0.0,0.0,0.0,0.0,0.0,0.0,0.0,0.0,0.0,0.0,0.0,3.56,3.56,3.56,3.56,3.56,3.56,3.56,3.5735,3.6045,3.666,3.6948,3.7212,3.7787,3.8041,3.8328,3.8886,3.9749,4.1076,4.3335,4.4823,4.594,4.6633,4.7208,4.8054,0.0,0.0,0.0,0.0,0.0,0.0,0.0,0.0,0.0,0.0,0.0,4.983,4.983,4.983,4.983,4.983,4.983,5.049,5.1775,5.1403,5.1928,5.3196,5.2401,5.2469,5.323,5.323,5.323,5.323,5.3416,5.3501,5.3501,5.3501,5.3501,5.3501,5.3501,5.3501,5.3501,0.0,0.0,0.0,0.0,0.0,0.0,0.0,0.0,0.0,0.0,0.0,0.0,0.0,0.0,0.0,0.0,0.0,0.0,0.0,3.2559,3.3208,3.4569,3.4611,3.4942,3.5636,3.5668,3.6059,3.6805,3.7513,3.8626,4.0011,3.9259,3.8565,3.7872,3.706,3.6299,3.56,3.56,3.56,3.56,3.56,0.0,0.0,0.0,0.0,0.0,0.0,0.0,0.0,0.0,0.0,0.0,0.0,0.0,3.56,3.56,3.56,3.56,3.56,3.56,3.56,3.56,3.6163,3.6728,3.6795,3.733,3.7838,3.7889,3.8447,3.8937,3.8988,4.0155,4.1863,4.4158,4.5179,4.6667,4.939,0.0,0.0,0.0,0.0,0.0,0.0,0.0,0.0,0.0,0.0,0.0,0.0,0.0,0.0,4.9086,4.9086,4.9086,4.9086,4.9086,4.9475,5.0253,5.0913,5.164,5.2367,5.164,5.1691,5.2384,5.2384,5.2384,5.2435,5.3196,5.3501,5.3501,5.3501,5.3501,5.3501,5.3501,5.3501,5.3501,0.0,0.0,0.0,0.0,0.0,0.0,0.0,0.0,0.0,0.0,0.0,0.0,0.0,0.0,0.0,0.0,0.0,0.0,0.0,3.2355,3.3045,3.403,3.4854,3.5641,3.6401,3.6816,3.7389,3.8101,3.8864,3.9278,3.9394,3.8667,3.7922,3.7178,3.64,3.5893,3.56,3.56,3.56,3.56,3.56,3.56,0.0,0.0,0.0,0.0,0.0,0.0,0.0,0.0,3.56,3.56,3.56,3.56,3.56,3.56,3.56,3.56,3.56,3.56,3.56,3.56,3.6552,3.7483,3.7483,3.8413,3.9386,3.9868,4.0899,4.161,4.1136,4.188,4.3166,4.4993,4.6295,4.7631,4.9187,0.0,0.0,0.0,0.0,0.0,0.0,0.0,0.0,0.0,0.0,0.0,0.0,0.0,0.0,4.9001,4.8578,4.8545,4.9001,4.8562,4.8697,4.9424,4.9712,5.0473,5.1606,5.0862,5.093,5.164,5.164,5.164,5.1691,5.2452,5.2756,5.2807,5.3315,5.3501,5.3501,5.3501,5.3501,5.3501,0.0,0.0,0.0,0.0,0.0,0.0,0.0,0.0,0.0,0.0,0.0,0.0,0.0,0.0,0.0,0.0,0.0,0.0,3.1824,3.2327,3.3018,3.3975,3.464,3.557,3.6786,3.7259,3.7834,3.8553,3.9099,3.9244,3.8971,3.8007,3.7398,3.7094,3.6332,3.5994,3.5994,3.5994,3.5819,3.56,3.56,3.56,0.0,0.0,0.0,0.0,0.0,0.0,0.0,0.0,3.5447,3.5301,3.5515,3.543,3.5295,3.5532,3.56,3.56,3.56,3.56,3.56,3.56,3.6586,3.7669,3.8142,3.958,4.095,4.1441,4.2354,4.298,4.2692,4.2878,4.3639,0.0,4.6752,4.7902,4.8866,0.0,0.0,0.0,0.0,0.0,0.0,0.0,0.0,0.0,0.0,0.0,0.0,0.0,0.0,0.0,4.8054,4.8125,4.8663,4.8142,4.8291,4.9001,4.9001,4.9661,5.0828,5.0084,5.0152,5.0862,5.0862,5.0862,5.0913,5.1657,5.2097,5.2384,5.3196,5.3501,5.3501,5.3501,5.3501,5.3501,0.0,0.0,0.0,0.0,0.0,0.0,0.0,0.0,0.0,0.0,0.0,0.0,0.0,0.0,0.0,0.0,0.0,0.0,3.2547,3.2602,3.3235,3.4606,3.3936,3.4535,3.6742,3.6802,3.7126,3.7806,3.7824,3.8208,3.8937,3.7506,3.7218,3.7872,3.7134,3.6812,3.6795,3.6795,3.6332,3.56,3.56,3.56,3.56,0.0,0.0,0.0,0.0,0.0,0.0,0.0,3.5115,3.4624,3.5363,3.5098,3.4641,3.538,3.56,3.56,3.56,3.56,3.56,3.56,3.6214,3.7218,3.8667,4.0696,4.2286,4.232,4.232,4.2557,4.3274,4.2828,4.3047,4.5331,4.6312,4.7293,0.0,0.0,0.0,0.0,0.0,0.0,0.0,0.0,0.0,0.0,0.0,0.0,0.0,0.0,0.0,0.0,4.7513,4.7872,4.7872,4.7872,4.8274,4.8984,4.9001,4.9373,5.005,4.9323,4.9407,5.0084,5.0084,5.0084,5.0135,5.0896,5.164,5.2384,5.3179,5.3501,5.3501,5.3501,5.3501,5.3501,0.0,0.0,0.0,0.0,0.0,0.0,0.0,0.0,0.0,0.0,0.0,0.0,0.0,0.0,0.0,0.0,0.0,0.0,3.2549,3.256,3.2542,3.2435,3.3118,3.405,3.53,3.677,3.7873,3.8652,3.8639,3.8235,3.7455,3.7533,3.7398,3.7127,3.7432,3.728,3.6795,3.6795,3.6332,3.56,3.56,3.56,3.56,0.0,0.0,0.0,0.0,0.0,0.0,0.0,0.0,0.0,3.5363,3.5098,3.4641,3.538,3.56,3.56,3.56,3.56,3.5735,3.6299,3.7398,3.8582,3.9571,4.0679,4.2134,4.4248,4.4688,4.4756,4.4993,4.4418,0.0,4.5517,4.5889,0.0,0.0,0.0,0.0,0.0,0.0,0.0,0.0,0.0,0.0,0.0,0.0,0.0,0.0,0.0,0.0,0.0,4.6515,4.6599,4.7124,4.7124,4.7242,4.7462,4.8511,4.912,4.9323,4.9103,4.912,4.9323,4.9323,4.9323,4.9373,5.0118,5.1166,5.2317,5.2553,5.301,5.3501,5.3501,5.3501,5.3501,0.0,0.0,0.0,0.0,0.0,0.0,0.0,0.0,0.0,0.0,3.2004,3.248,0.0,0.0,0.0,0.0,0.0,0.0,3.3011,3.2954,3.2504,3.1539,3.3095,3.4349,3.5128,3.7186,3.807,3.7693,3.7971,3.7675,3.6812,3.7246,3.7381,3.7263,3.8007,3.7922,3.7229,3.7229,3.6603,3.56,3.56,3.56,3.56,0.0,0.0,0.0,0.0,0.0,0.0,0.0,0.0,0.0,3.5363,3.5098,3.4641,3.538,3.56,3.56,3.56,3.56,3.5785,3.6609,3.7905,3.9411,4.1035,4.2236,4.3758,4.6447,4.6549,4.6143,4.6143,4.528,0.0,4.5585,4.5703,0.0,0.0,0.0,0.0,0.0,0.0,0.0,0.0,0.0,0.0,0.0,0.0,0.0,0.0,0.0,0.0,0.0,4.5282,4.5416,4.5835,4.6182,4.6498,4.6802,4.8003,4.8578,4.8578,4.8883,4.9001,4.9001,4.9001,4.9001,4.9069,4.9796,5.0608,5.1454,5.1758,5.235,5.3027,5.3027,5.323,5.3501,0.0,0.0,3.3576,3.3514,0.0,0.0,0.0,0.0,0.0,0.0,3.2108,3.2294,0.0,0.0,0.0,3.5684,3.5213,3.4561,3.3839,3.3658,3.3025,3.1734,3.367,3.5102,3.577,3.77,3.7686,3.5605,3.6417,3.6795,3.6795,3.688,3.728,3.8041,3.8768,3.865,3.7905,3.7905,3.7003,3.56,3.56,3.56,3.56,3.56,0.0,0.0,0.0,0.0,0.0,0.0,0.0,0.0,3.5363,3.5098,3.4641,3.538,3.56,3.56,3.56,3.56,3.5802,3.6694,3.8115,4.0037,4.2878,4.4654,4.6278,4.8291,4.7733,4.687,4.6802,4.5664,4.4936,4.5602,0.0,0.0,0.0,0.0,0.0,0.0,0.0,0.0,0.0,0.0,0.0,0.0,0.0,0.0,0.0,0.0,0.0,4.3339,4.3854,4.4231,4.4292,4.5165,4.5933,0.0,4.7428,4.7753,4.772,4.8612,4.9001,4.9001,4.9001,4.9001,4.9052,4.9712,5.0033,5.0152,5.0845,5.1555,5.2215,5.2283,5.2756,5.3399,0.0,0.0,3.4105,3.3593,0.0,0.0,0.0,0.0,0.0,0.0,0.0,0.0,0.0,0.0,0.0,3.5581,3.6013,3.571,3.4394,3.4297,3.393,3.3111,3.4583,3.5493,3.5644,3.6152,3.5877,3.4848,3.6161,3.6795,3.6812,3.7381,3.8058,3.8802,3.9537,3.9123,3.7905,3.7905,3.7003,3.56,3.56,3.56,3.56,3.56,3.56,0.0,0.0,0.0,0.0,0.0,0.0,0.0,3.5363,3.5098,3.4641,3.538,3.56,3.56,3.56,3.56,3.5921,3.733,3.9631,4.2066,4.391,4.5043,4.5838,4.6312,4.709,4.7496,4.6904,4.6058,4.5517,0.0,0.0,0.0,0.0,0.0,0.0,0.0,0.0,0.0,0.0,0.0,0.0,0.0,0.0,0.0,0.0,0.0,0.0,4.3323,4.2791,4.2841,4.3537,4.431,4.4816,0.0,4.6397,4.6735,4.6244,4.8139,4.9001,4.9001,4.9001,4.9001,4.9018,4.9171,4.9576,5.0101,5.027,5.0794,5.1522,5.2097,5.2418,5.2655,0.0,0.0,0.0,0.0,0.0,0.0,0.0,0.0,0.0,0.0,0.0,0.0,0.0,3.5676,0.0,0.0,3.6621,3.6172,3.508,3.4985,3.4977,3.5022,3.5406,3.5599,3.5603,3.5677,3.5358,3.4611,3.5374,3.593,3.6298,3.7391,3.8294,3.9005,3.9394,3.8937,3.7889,3.7516,3.6688,3.56,3.56,3.56,3.56,3.56,3.56,3.56,3.56,0.0,0.0,0.0,0.0,0.0,0.0,0.0,3.5115,3.5481,3.56,3.56,3.56,3.56,3.6039,3.7956,4.0375,4.2692,4.4259,4.5162,4.5602,4.5246,4.6346,4.7158,4.6413,4.5957,4.5466,0.0,0.0,0.0,0.0,0.0,0.0,0.0,0.0,0.0,0.0,0.0,0.0,0.0,0.0,0.0,0.0,4.3197,4.2252,4.2645,4.1836,4.1804,4.2676,4.3469,4.4121,4.4615,4.5737,4.6261,4.6261,4.7411,4.8139,4.8477,4.8477,4.868,4.9001,4.9001,4.9221,4.956,4.956,5.0016,5.0727,5.1099,5.1471,5.1894,0.0,0.0,0.0,0.0,0.0,0.0,0.0,0.0,0.0,0.0,0.0,0.0,0.0,3.5688,3.6205,0.0,0.0,0.0,3.5614,3.5538,3.5809,3.6456,3.603,3.5763,3.5763,3.583,3.5534,3.4787,3.4913,3.5292,3.5927,3.728,3.8362,3.9174,3.9174,3.87,3.7872,3.7246,3.6451,3.56,3.56,3.56,3.56,3.56,3.56,3.56,3.56,3.56,3.56,3.56,0.0,0.0,0.0,0.0,3.56,3.56,3.56,3.56,3.56,3.5701,3.6276,3.8311,4.0375,4.2286,4.3701,4.457,4.4942,4.4344,4.5512,4.6346,4.5466,4.5314,0.0,0.0,0.0,0.0,0.0,0.0,0.0,0.0,0.0,0.0,0.0,0.0,0.0,0.0,0.0,0.0,4.3702,4.1613,4.0702,4.1406,4.0602,4.0636,4.1629,4.2349,4.321,4.4225,4.4942,4.5618,4.621,4.6346,4.6887,4.7733,4.7733,4.8139,4.8815,4.8815,4.89,4.9001,4.9001,4.9373,4.9915,5.0033,5.049,5.115,0.0,0.0,0.0,0.0,0.0,0.0,0.0,0.0,0.0,0.0,3.5295,3.5297,3.5501,3.609,3.6292,3.5846,3.6275,3.6291,3.558,0.0,0.0,3.5661,3.6183,3.6476,3.6476,3.66,3.6309,3.5566,3.6179,3.6554,3.6678,3.7515,3.8633,3.996,3.996,3.9174,3.7905,3.7787,3.6924,3.56,3.56,3.56,3.56,3.56,3.56,3.56,3.56,3.56,3.56,3.56,3.56,0.0,0.0,0.0,3.56,3.56,3.56,3.56,3.56,3.6113,3.688,3.7821,3.9217,4.0629,4.1457,4.2219,4.2726,4.2625,4.4333,4.5415,4.395,4.3696,0.0,0.0,0.0,0.0,0.0,0.0,0.0,0.0,0.0,0.0,0.0,0.0,0.0,0.0,0.0,0.0,4.0596,3.9566,3.9021,3.9151,3.8293,3.8578,4.0174,4.0296,4.1102,4.2608,4.3352,4.3747,4.3866,4.457,4.5618,4.6938,4.6938,4.7378,4.8041,4.8041,4.8443,4.9001,4.9001,4.9069,4.9221,4.9847,5.0152,5.0439,0.0,0.0,0.0,0.0,0.0,0.0,0.0,0.0,0.0,0.0,0.0,3.5504,3.5504,3.5782,3.5863,3.5537,3.5814,3.5696,3.4983,3.5295,3.5503,3.5537,3.5825,3.6384,3.7233,3.5755,3.5383,3.6257,3.5419,3.5834,3.7434,3.7752,3.8684,4.0079,3.9673,3.9106,3.8464,3.7635,3.6891,3.6231,3.5769,3.56,3.56,3.56,3.56,3.56,3.56,3.56,3.56,3.56,3.56,3.56,3.56,0.0,0.0,0.0,3.56,3.56,3.56,3.618,3.688,3.7195,3.87,4.018,4.0502,4.1474,4.2168,4.1762,4.2811,4.3589,4.2912,0.0,0.0,0.0,0.0,0.0,0.0,0.0,0.0,0.0,0.0,0.0,0.0,0.0,0.0,0.0,0.0,3.8623,3.9929,3.8694,3.8185,3.8677,3.7834,3.8001,3.9204,3.9671,4.072,4.2286,4.2625,4.3014,4.3409,4.3775,4.4756,4.6177,4.6177,4.6853,4.7889,4.7889,4.8311,4.9001,4.9001,4.9001,4.9035,4.9357,4.9475,4.9644,0.0,0.0,0.0,0.0,0.0,0.0,0.0,0.0,0.0,0.0,0.0,3.5504,3.5504,0.0,0.0,0.0,3.534,3.4951,3.4309,3.4861,3.5267,3.5308,3.5443,3.6076,3.7216,3.5494,3.5191,3.6461,3.5255,3.5778,3.7905,3.8091,3.887,4.0079,3.9537,3.9174,3.8903,3.7618,3.6981,3.6728,3.5926,3.56,3.56,3.56,3.56,3.5616,3.5819,3.5769,3.5633,3.5836,3.5752,3.56,3.56,3.56,0.0,0.0,0.0,3.5312,3.5312,3.5757,3.6321,3.6694,3.8041,3.9377,3.9724,4.0679,4.1356,0.0,4.1356,4.1728,0.0,0.0,0.0,0.0,0.0,0.0,0.0,0.0,0.0,0.0,0.0,0.0,0.0,0.0,0.0,0.0,0.0,3.7094,3.9022,3.7745,3.7283,3.8134,3.7349,3.7316,3.8165,3.916,4.0352,4.1728,4.1914,4.2303,4.2861,4.302,4.3859,4.5145,4.5331,4.616,4.7348,4.7547,4.8071,4.8748,4.8934,4.9001,4.9001,4.9001,4.9001,4.912,0.0,0.0,0.0,0.0,0.0,0.0,0.0,0.0,0.0,0.0,0.0,3.5504,3.5504,3.5504,3.5504,3.5504,3.4906,3.4279,3.3589,3.4158,3.4548,3.4566,3.5202,0.0,3.5698,3.6941,3.6983,3.5754,3.7032,3.7749,3.7922,3.8616,3.9368,4.0096,4.0062,3.9656,3.8937,3.8176,3.7432,3.6728,3.5926,3.56,3.56,3.56,3.56,3.5701,3.6451,3.6248,3.5718,3.6468,3.6231,3.56,3.56,3.56,3.56,0.0,0.0,0.0,3.4556,3.4573,3.4962,3.644,3.6897,3.7354,3.8734,3.9106,3.9343,4.0028,4.0197,4.0214,0.0,0.0,0.0,0.0,0.0,0.0,0.0,0.0,0.0,0.0,0.0,0.0,0.0,0.0,0.0,0.0,0.0,3.5906,3.6739,3.6017,3.5937,3.6693,3.6001,3.5969,3.6708,3.8185,3.9379,4.0231,4.0916,4.1288,4.1339,4.2033,4.2777,4.3544,4.4316,4.5094,4.5872,4.6566,4.7293,4.8024,4.8731,4.9001,4.9001,4.9001,4.9001,4.912,0.0,0.0,0.0,0.0,0.0,0.0,0.0,0.0,0.0,0.0,0.0,0.0,0.0,3.5504,3.5504,3.5504,3.4876,3.4234,3.3544,3.4577,3.5228,3.5334,3.6427,0.0,3.8475,3.7145,3.6682,3.7114,3.6226,3.6013,3.6496,3.7249,3.7999,3.8787,3.9699,3.996,3.9673,3.892,3.8447,3.8142,3.7381,3.7094,3.7026,3.6552,3.6654,3.6969,3.6282,3.6485,3.6975,3.6282,0.0,0.0,0.0,3.56,3.56,3.56,3.5397,3.5216,3.5216,3.5216,3.5351,3.5893,3.6417,3.6948,3.7472,3.7939,3.8497,3.9225,3.9005,3.8971,0.0,0.0,0.0,0.0,0.0,0.0,0.0,0.0,0.0,0.0,0.0,0.0,0.0,0.0,0.0,0.0,0.0,0.0,3.5894,3.5636,3.5619,3.5894,3.5651,3.6101,3.7368,3.7905,3.8859,4.0096,4.0383,4.073,4.1238,4.1965,4.2709,4.3426,4.4248,4.501,4.572,4.5991,4.6819,4.7922,4.8176,4.8595,4.9001,4.9001,4.9001,4.9035,0.0,0.0,0.0,0.0,0.0,3.5504,3.5504,0.0,0.0,0.0,0.0,0.0,0.0,0.0,3.5415,3.5175,3.4951,3.4442,3.3559,3.4577,3.5258,3.536,3.6209,0.0,3.8193,3.6073,3.5556,3.6796,3.4881,3.4651,3.6056,3.6305,3.6974,3.8002,3.8933,3.9656,4.0045,3.9039,3.8768,3.8903,3.7922,3.7686,3.7855,3.7347,3.7466,3.7804,3.7026,3.7246,0.0,0.0,0.0,0.0,0.0,3.56,3.5549,3.5295,3.5228,3.5228,3.5228,3.5228,3.5301,3.5532,3.6011,3.6451,3.6745,3.7161,3.7736,3.8481,3.8244,3.821,0.0,0.0,0.0,0.0,0.0,0.0,0.0,0.0,0.0,0.0,0.0,0.0,0.0,0.0,0.0,0.0,0.0,0.0,3.5863,3.5636,3.5504,3.5504,3.5504,3.6101,3.7397,3.7661,3.843,3.9705,3.9978,4.0367,4.0849,4.1322,4.21,4.3064,4.3589,4.4384,4.5348,4.5602,4.6295,4.7179,4.7445,4.7986,4.8646,4.8646,4.8798,4.9001,0.0,3.5504,3.5504,3.5504,3.5504,3.5504,3.5504,3.5504,3.5504,3.5504,0.0,0.0,0.0,0.0,0.0,3.4593,3.51,3.4921,3.3604,3.4144,3.4535,3.4535,3.4566,0.0,3.4566,3.3899,3.3909,3.4638,3.3297,3.4063,3.6715,3.6022,3.6446,3.7848,3.7848,3.8667,3.9943,3.8514,3.8328,3.887,3.7455,3.7297,3.7973,3.7939,3.7956,3.8058,3.8717,3.8531,0.0,3.7922,0.0,0.0,0.0,3.56,3.5447,3.4742,3.4523,3.4523,0.0,0.0,0.0,3.5414,3.56,3.5785,3.6592,3.6761,3.6981,3.7719,3.7855,0.0,0.0,0.0,0.0,0.0,0.0,0.0,0.0,0.0,0.0,0.0,0.0,0.0,0.0,0.0,0.0,0.0,0.0,3.5814,3.6523,3.5894,3.5504,3.5504,3.5504,3.5863,3.6569,3.7368,3.8149,3.8881,3.9688,4.007,4.007,4.0104,4.0942,4.2286,4.2303,4.321,4.4666,4.5365,4.5686,4.5771,4.6498,4.7259,4.7889,4.7906,4.8392,4.9001,3.5504,3.5504,3.5504,3.5504,3.5504,3.5504,3.5504,3.5504,3.5504,0.0,0.0,0.0,3.5504,3.5504,3.5429,3.5235,3.4936,3.4607,3.4264,3.4912,3.5293,3.5293,3.5843,3.6164,3.6164,3.4976,3.4717,3.5388,3.4497,3.4445,3.521,3.5502,3.5863,3.6347,3.6872,3.7618,3.8481,3.8075,3.8328,3.8954,3.8548,3.8843,3.9411,3.8886,3.9022,3.9377,0.0,3.8751,3.9326,0.0,3.777,3.7364,0.0,3.56,3.5549,3.5368,3.5295,3.5295,3.5295,0.0,0.0,0.0,0.0,0.0,3.5893,3.5943,3.6163,3.6924,3.6637,0.0,0.0,0.0,0.0,0.0,0.0,0.0,0.0,0.0,0.0,0.0,0.0,0.0,0.0,0.0,0.0,0.0,3.5504,3.5587,3.5782,3.5619,3.5504,3.5504,3.5504,3.5863,3.6569,3.6813,3.7322,3.8121,3.887,3.9236,3.9279,4.038,4.1407,4.232,4.2861,4.3673,4.4632,4.4835,4.5213,4.5771,4.6498,4.7259,4.7956,4.8511,4.8832,4.9001,3.5504,3.5504,3.5504,3.5504,3.5504,3.5504,3.5504,3.5504,3.5504,0.0,0.0,0.0,3.5504,3.5504,3.5504,3.5504,3.513,3.4906,3.4906,3.5335,3.5553,3.5553,3.6012,3.6126,3.5859,3.4488,3.4263,3.5235,3.396,3.3917,3.5028,3.5121,3.5355,3.5678,3.6104,3.6535,3.6935,3.6935,3.7736,3.8971,3.8667,3.9157,4.0045,3.9622,3.974,0.0,0.0,0.0,3.9926,3.8751,3.8159,0.0,0.0,0.0,3.6045,3.5701,3.56,3.56,3.56,3.56,3.56,3.56,0.0,0.0,3.56,3.56,3.5718,0.0,3.5943,0.0,0.0,0.0,0.0,0.0,0.0,0.0,0.0,0.0,0.0,0.0,0.0,0.0,0.0,3.5504,0.0,3.5504,3.5504,3.5504,3.5504,3.5504,3.5504,3.5504,3.5504,3.5701,3.6149,3.6446,3.6859,3.7308,3.8076,3.8608,3.8924,4.0177,4.1312,4.2337,4.3098,4.3859,4.4615,4.4615,4.4869,4.528,4.5703,4.6515,4.7496,4.7919,4.8477,4.9001,0.0,3.5504,3.5504,3.5504,3.5504,3.5504,3.5504,3.5504,3.5504,0.0,3.5504,3.5504,3.5504,3.5504,3.5504,3.5504,3.5504,3.5504,3.5504,3.5504,3.5504,3.5504,3.5429,3.5164,3.4629,3.3397,3.3387,3.4717,3.294,3.3271,3.56,3.4988,3.5028,3.56,3.56,3.56,3.56,3.5701,3.6958,3.8819,3.8159,3.8768,4.0096,4.0096,4.0096,4.0096,4.0096,4.0096,3.9994,3.9242,3.8565,0.0,0.0,0.0,0.0,0.0,3.5667,3.56,3.56,3.56,3.56,3.56,3.5667,0.0,3.5616,3.5667,3.5701,3.5532,3.5492,0.0,0.0,0.0,0.0,0.0,0.0,0.0,0.0,0.0,0.0,0.0,0.0,0.0,3.5429,3.5504,3.5504,3.5504,3.5504,3.5504,3.5504,3.5504,3.5504,3.5504,3.5504,3.5504,3.5504,3.6134,3.6477,3.6508,3.7279,3.8048,3.8789,3.9599,4.0774,4.2213,4.2945,4.3704,4.444,4.4542,4.4615,4.4615,4.4699,4.5551,4.6802,4.6887,4.774,4.8861,3.5504,3.5504,3.5504,3.5504,3.5504,3.5504,3.5504,3.5504,3.5504,3.5504,3.5504,3.5504,3.5504,3.5504,3.5504,3.5504,3.5504,3.5504,3.5504,3.5504,3.5504,3.5504,3.4966,3.4891,3.5368,3.4657,3.4656,3.5505,3.5085,3.5134,3.56,3.547,3.547,3.56,3.56,3.56,3.5633,3.6282,3.7161,3.8108,3.7973,3.8768,4.0096,4.0096,4.0096,4.0096,4.0096,4.0096,3.9994,3.9242,3.8903,3.865,0.0,0.0,0.0,3.6626,0.0,0.0,0.0,0.0,0.0,0.0,0.0,0.0,3.5735,3.6096,3.6211,0.0,3.48,3.464,0.0,0.0,0.0,0.0,0.0,0.0,0.0,0.0,0.0,0.0,0.0,0.0,3.5429,3.5504,3.5504,3.5504,3.5504,3.5504,3.5504,3.5504,3.5504,3.5504,3.5504,3.5504,3.5504,3.5636,3.5701,3.5718,3.6492,3.7233,3.8039,3.8747,3.9849,4.1302,4.2092,4.2866,4.3621,4.4327,4.4615,4.4666,4.5246,4.6024,4.687,4.7479,4.7776,4.7982,3.5504,3.5504,3.5504,3.5504,0.0,0.0,0.0,3.5504,3.5504,3.5504,3.5504,3.5504,3.5504,3.5504,3.5504,3.5504,3.5504,3.5504,3.5504,3.5504,3.5504,3.5504,3.553,3.5569,3.5608,3.5347,3.5358,3.5704,3.5341,3.5307,3.56,3.56,3.56,3.56,3.56,3.56,3.565,3.6451,3.7212,3.7939,3.8311,3.9106,4.0096,4.0096,4.0096,4.0096,4.0096,4.0096,4.0045,3.9673,3.9554,0.0,3.8684,3.8193,3.7804,0.0,3.706,3.6749,0.0,0.0,0.0,3.6671,0.0,0.0,0.0,3.5689,3.5407,3.4317,3.4112,3.4012,3.3659,0.0,0.0,0.0,0.0,0.0,0.0,0.0,0.0,0.0,0.0,0.0,3.4936,3.5295,3.5504,3.5504,3.5504,3.5504,3.5504,3.5504,3.5504,3.5504,3.5504,3.5504,3.5504,3.5504,3.5504,3.5504,3.5863,3.6646,3.7709,3.8417,3.9544,4.1026,4.2225,4.296,4.3336,4.3785,4.3948,4.3981,4.4348,4.5167,4.6091,4.6034,4.6405,4.7036,3.5504,3.5504,3.5504,3.5504,0.0,0.0,0.0,0.0,3.5504,3.5504,3.5504,3.5504,3.5504,3.5504,3.5504,3.5504,3.5504,3.5504,3.5504,0.0,0.0,0.0,3.6054,3.6214,3.5794,3.5846,3.5878,3.5889,3.5177,3.5083,3.5603,3.5452,3.547,3.56,3.5752,3.5819,3.5887,3.6823,3.7567,3.8176,3.8903,3.9571,4.0096,4.0096,4.0096,4.0096,4.0096,4.0096,4.0096,4.0096,4.0096,3.9994,3.9394,3.9106,0.0,0.0,0.0,0.0,0.0,0.0,0.0,0.0,0.0,3.598,0.0,0.0,0.0,0.0,0.0,0.0,0.0,0.0,0.0,0.0,0.0,0.0,0.0,0.0,0.0,0.0,0.0,0.0,0.0,3.51,3.5504,3.5504,3.5504,3.5504,3.5504,3.5504,3.5504,3.5504,3.5504,3.5504,3.5504,3.5504,3.5504,3.5504,3.5504,3.6243,3.7622,3.8189,3.926,4.0722,4.2182,4.2816,4.2816,4.297,4.3047,4.3047,4.3047,4.3834,4.4868,4.4329,4.479,4.5892,3.5504,3.5504,3.5504,3.5504,0.0,0.0,0.0,0.0,3.5504,3.5504,3.5504,3.5504,3.5504,3.5504,3.5504,3.5504,3.5504,0.0,3.5504,0.0,3.5504,0.0,0.0,0.0,3.6461,3.6505,3.6533,3.6593,3.5915,3.56,3.5589,3.5002,3.5028,3.5633,3.6349,3.666,3.6761,3.8142,3.8785,3.8937,3.969,4.0028,0.0,4.0096,4.0096,4.0096,4.0096,4.0096,4.0096,0.0,4.0096,4.0096,0.0,3.9537,3.8971,3.8903,0.0,0.0,0.0,0.0,0.0,0.0,3.7787,0.0,0.0,0.0,3.5821,3.3245,0.0,0.0,0.0,0.0,0.0,0.0,0.0,0.0,0.0,0.0,0.0,0.0,0.0,0.0,0.0,0.0,3.5504,3.5504,3.5504,3.5504,3.5504,3.5504,3.5504,3.5504,3.5504,3.5504,3.5504,3.5504,3.5504,3.5504,3.5504,3.6243,3.759,3.7564,3.8348,3.9796,4.0631,4.1013,4.1046,4.1836,4.2157,4.2157,4.2157,4.2623,4.341,4.3903,4.4088,4.4294,3.5504,3.5504,3.5504,3.5504,0.0,0.0,0.0,0.0,3.5504,3.5504,3.5504,3.5504,3.5504,3.5504,3.5504,3.5504,3.5504,3.5504,0.0,0.0,3.5504,0.0,0.0,0.0,0.0,3.7288,0.0,3.8027,3.6886,3.6109,3.5655,3.5804,3.5813,3.5695,3.6895,3.7432,3.7499,3.8548,3.8988,0.0,0.0,4.0096,0.0,4.0096,4.0096,4.0096,4.0096,4.0096,4.0096,0.0,4.0096,0.0,0.0,0.0,0.0,0.0,0.0,0.0,0.0,0.0,0.0,0.0,0.0,0.0,3.705,0.0,3.5729,0.0,0.0,0.0,0.0,0.0,0.0,0.0,3.1406,0.0,0.0,0.0,0.0,0.0,0.0,0.0,0.0,0.0,0.0,0.0,0.0,3.5504,3.5504,3.5504,3.5504,3.5504,3.5504,3.5504,3.5504,3.5504,3.5504,3.5504,3.5893,3.6571,3.7506,3.7831,3.8542,3.954,4.0343,4.069,4.0724,4.108,4.1247,4.1213,4.0672,4.1227,4.2309,4.2452,4.2741,4.3228,3.5504,3.5504,3.5504,3.5504,3.5504,0.0,0.0,0.0,3.5504,3.5504,3.5504,3.5504,3.5504,3.5504,3.5504,3.5504,3.5504,3.5504,0.0,0.0,3.5504,0.0,0.0,0.0,0.0,0.0,0.0,3.8351,3.7093,3.6389,3.6272,3.6642,3.663,3.6364,3.7646,3.821,3.8261,3.8988,3.9317,3.9368,3.9893,4.0096,4.0096,4.0096,4.0096,4.0096,4.0096,4.0096,4.0096,4.0096,4.0096,0.0,4.0096,0.0,0.0,0.0,0.0,0.0,4.0096,0.0,0.0,0.0,0.0,0.0,0.0,0.0,0.0,0.0,0.0,0.0,0.0,0.0,0.0,0.0,0.0,3.1585,0.0,0.0,0.0,0.0,0.0,0.0,0.0,0.0,0.0,3.4503,3.4936,3.531,3.5489,3.5504,3.5504,3.5504,3.5504,3.5504,3.5504,3.5504,3.5594,3.5774,3.6252,3.6911,3.7689,3.8167,3.8766,3.946,4.008,4.0328,4.0328,4.0328,4.0328,4.0274,3.9646,4.0181,4.1357,4.1377,4.1722,4.2361,3.5504,3.5504,3.5504,3.5504,3.5504,3.5504,0.0,0.0,3.5504,3.5504,3.5504,3.5504,0.0,0.0,0.0,0.0,0.0,3.5504,3.5504,0.0,3.5504,0.0,0.0,3.5569,0.0,0.0,0.0,0.0,3.5991,3.6343,3.7719,3.7098,3.717,3.7865,3.8633,3.8954,3.9005,3.9757,4.0062,4.0079,4.0096,4.0096,4.0096,0.0,4.0096,4.0096,4.0096,0.0,0.0,4.0096,4.0096,0.0,0.0,0.0,0.0,0.0,0.0,0.0,0.0,0.0,0.0,4.0096,0.0,0.0,0.0,0.0,3.7434,0.0,0.0,0.0,0.0,0.0,0.0,3.0851,0.0,0.0,0.0,0.0,0.0,0.0,0.0,0.0,0.0,0.0,0.0,3.4459,3.4533,3.4833,3.5474,3.5504,3.5504,3.5504,3.5504,3.5504,3.5504,3.5504,3.5833,3.6447,3.6477,3.715,3.8362,3.8377,3.8766,3.9388,3.9424,3.9445,3.9445,3.9445,3.9445,3.9445,3.9409,3.9813,4.0509,4.1168,4.1384,4.1632,3.5504,3.5504,3.5504,3.5504,3.5504,3.5504,0.0,3.5504,0.0,0.0,3.6148,0.0,0.0,3.6761,3.6611,0.0,0.0,3.5968,3.5534,3.5504,0.0,0.0,0.0,3.5733,0.0,0.0,0.0,0.0,0.0,3.6337,3.6349,3.6617,3.6875,3.7218,3.8408,3.9242,3.9757,3.9994,0.0,0.0,0.0,4.0096,4.0096,0.0,0.0,4.0096,4.0096,4.0096,0.0,4.0096,4.0096,4.0096,4.0096,4.0096,4.0096,4.0096,4.0096,0.0,0.0,0.0,3.942,3.9969,0.0,0.0,0.0,0.0,0.0,0.0,0.0,0.0,0.0,0.0,3.3322,3.2719,3.2562,0.0,0.0,0.0,0.0,0.0,0.0,0.0,0.0,0.0,0.0,3.3155,3.3978,3.4608,0.0,3.525,3.5504,3.5504,3.5504,3.5504,3.5504,3.5504,3.5833,3.6492,3.6896,3.7554,3.8407,3.8856,3.92,3.9388,3.9388,3.9388,3.9388,3.9388,3.9679,4.0068,4.0068,4.0472,4.107,4.1332,4.1692,4.2186,3.5504,3.5504,3.5504,3.5504,3.5504,3.5504,0.0,0.0,0.0,0.0,3.6686,0.0,3.736,0.0,3.7165,0.0,3.6492,3.6207,3.5549,3.5504,0.0,3.5504,3.5504,0.0,0.0,0.0,0.0,0.0,0.0,3.6701,3.6771,3.7271,3.766,3.8019,3.8914,3.961,4.0096,4.0096,4.0096,0.0,0.0,4.0096,0.0,0.0,4.0096,4.0096,0.0,4.0096,4.0096,4.0096,4.0096,4.0096,4.0096,4.0096,4.0096,4.0096,4.0096,4.0096,4.0096,3.9731,0.0,3.961,3.9289,0.0,3.9558,0.0,0.0,0.0,0.0,0.0,0.0,0.0,0.0,3.3687,3.3184,3.2557,0.0,3.1511,0.0,0.0,0.0,0.0,0.0,0.0,3.2333,3.2826,3.3649,3.4369,0.0,0.0,3.5504,3.5504,3.5504,3.5609,3.5848,3.5848,3.6297,3.7165,3.7569,3.8108,3.8766,3.9215,3.9388,3.9388,3.9388,3.9559,3.9753,3.9514,3.9948,4.0726,4.0487,4.095,4.1767,4.1767,4.2147,4.2776,3.5504,3.5504,3.5504,3.5504,3.5504,0.0,0.0,0.0,3.6492,0.0,3.7075,3.7464,3.7509,3.7509,3.724,3.6596,3.6537,3.6237,3.5549,3.5504,0.0,0.0,3.5504,3.5504,3.5504,0.0,0.0,0.0,0.0,3.7291,3.8799,3.8799,3.9236,4.0045,4.0045,4.007,4.0096,4.0096,4.0096,4.0096,4.0096,4.007,4.0045,4.0045,4.002,3.9995,4.007,4.0096,4.0096,4.0096,4.007,4.0045,4.007,4.0045,3.9995,4.002,4.002,3.9995,4.002,4.002,3.9808,3.9139,0.0,0.0,0.0,0.0,3.8908,0.0,0.0,0.0,0.0,0.0,0.0,3.3815,3.3545,3.3036,0.0,0.0,0.0,0.0,0.0,0.0,0.0,3.1525,3.2064,3.335,3.3499,3.4098,0.0,0.0,3.5504,3.5504,3.5504,3.5818,3.6477,3.6492,3.7135,3.8392,3.8392,3.8751,3.9388,3.9388,3.9388,3.9388,3.9454,3.9798,4.0307,3.9753,4.0247,4.1324,4.0726,4.128,4.244,4.244,4.2806,4.329,3.5504,3.5504,3.5504,0.0,3.5504,3.5504,0.0,0.0,0.0,0.0,3.7734,3.8332,3.8841,3.8901,3.8437,3.727,3.7165,0.0,0.0,0.0,0.0,3.5504,3.5504,3.5504,3.5504,3.5504,0.0,3.5782,0.0,3.6259,3.7188,3.7188,3.7901,3.9193,3.9193,3.9542,4.0096,4.0096,4.0096,4.0096,4.0096,3.9756,0.0,0.0,3.887,3.8557,3.9679,4.0096,4.0096,4.0096,3.9688,3.9315,3.9901,3.9305,3.8486,3.9032,3.8816,3.8513,3.9059,3.8816,3.864,3.9558,3.9342,3.9059,0.0,0.0,0.0,0.0,0.0,0.0,0.0,0.0,0.0,3.5125,3.4167,0.0,0.0,0.0,0.0,3.2228,0.0,0.0,0.0,3.1944,3.2378,3.2736,3.3664,0.0,0.0,0.0,0.0,3.5504,3.5504,3.5818,3.6477,3.6492,3.7135,3.8392,3.8392,3.8751,3.9388,3.9388,3.9388,3.9454,3.9933,3.9963,3.9738,4.0546,4.107,4.1414,4.1767,4.2357,4.309,4.309,4.3155,4.329,3.5504,3.5504,3.5504,3.5504,0.0,0.0,3.5938,3.6252,0.0,3.733,3.7973,0.0,3.8931,3.8975,3.8542,3.7494,3.7165,0.0,3.5564,0.0,0.0,3.5504,3.5504,3.5504,3.5504,3.5504,0.0,3.5504,0.0,0.0,3.6615,3.6615,3.7247,3.8414,3.8414,3.8843,3.961,3.9952,3.9901,3.9584,3.9584,0.0,0.0,3.8553,3.8358,3.8358,3.8914,3.9076,3.9076,3.9076,3.9005,3.8962,3.9437,3.9209,3.8887,3.9289,3.9129,3.8832,3.8881,3.8608,3.833,3.8509,3.823,3.8015,3.8481,3.8213,3.7901,0.0,0.0,0.0,0.0,0.0,0.0,0.0,0.0,0.0,0.0,0.0,0.0,0.0,3.2617,0.0,0.0,3.2437,3.2632,3.2916,0.0,0.0,0.0,0.0,0.0,3.5504,3.5789,3.6237,3.6881,3.7165,3.7823,3.8841,3.8841,3.9035,3.9388,3.9388,3.9388,3.9403,3.9813,3.9933,3.9903,4.0651,4.1294,4.1916,4.2521,4.3015,4.329,4.329,4.329,4.329,3.5504,3.5504,3.5504,0.0,0.0,0.0,0.0,3.6671,0.0,3.7464,0.0,3.8527,3.8527,3.8527,3.8257,3.7599,0.0,3.6327,3.5669,3.5549,3.5504,3.5504,3.5504,3.5504,3.5504,3.5504,3.5504,0.0,0.0,0.0,3.6615,3.6615,3.7084,3.795,3.795,3.8302,3.8951,3.9636,3.9489,3.8772,3.8772,3.869,3.8536,3.7876,3.7991,3.837,3.7835,3.769,3.7793,3.7793,3.8161,3.8619,3.8854,3.9166,3.9558,3.9876,3.9731,3.9385,3.8881,3.8591,3.8173,3.7038,3.6676,3.663,3.6722,3.6676,3.6615,3.6615,3.6523,3.6244,0.0,0.0,0.0,0.0,0.0,0.0,0.0,0.0,0.0,0.0,0.0,0.0,0.0,0.0,0.0,0.0,0.0,0.0,0.0,0.0,0.0,3.5504,3.6148,0.0,3.7404,0.0,3.8736,3.9388,3.9388,3.9388,3.9388,3.9388,3.9388,3.9388,3.9514,3.9873,4.0412,4.0591,4.1384,4.259,4.312,4.329,4.329,4.329,4.329,4.329,3.5504,3.5504,3.5504,0.0,0.0,3.6656,3.7165,3.7704,3.8093,3.8197,3.8811,3.923,3.923,3.923,3.896,3.8272,3.7629,0.0,0.0,0.0,0.0,3.5504,3.5504,3.5504,3.5504,3.5504,3.5504,0.0,0.0,0.0,3.6615,3.6615,3.7365,3.8718,3.8718,3.8772,3.8908,3.9059,0.0,3.8007,3.8007,3.7587,3.6978,3.6873,3.6508,3.6164,3.6631,3.7249,3.7793,3.7793,3.744,3.7202,3.8509,3.7703,3.6677,3.858,3.779,3.6538,3.769,3.7055,3.6337,3.7338,3.71,3.6752,3.7456,3.7084,3.6615,3.6615,3.6117,3.5636,3.5537,0.0,0.0,0.0,0.0,0.0,0.0,0.0,0.0,0.0,0.0,3.3709,0.0,0.0,0.0,0.0,0.0,0.0,0.0,0.0,0.0,0.0,0.0,0.0,0.0,0.0,3.8736,3.9388,3.9388,3.9388,3.9388,3.9388,3.9388,3.9454,3.9993,4.0292,4.0487,4.1602,4.2462,4.3125,4.3245,4.329,4.329,4.329,4.329,4.329,3.5504,0.0,3.5609,0.0,0.0,0.0,0.0,3.8497,0.0,3.8437,3.8676,3.8886,3.8886,3.8886,3.8751,3.8422,3.7494,3.6806,3.6507,3.5863,3.5504,3.5504,3.5504,0.0,3.5504,3.5504,3.5504,3.5504,0.0,0.0,0.0,3.6023,3.6631,3.7729,3.8145,3.833,0.0,0.0,0.0,3.7189,3.7189,3.695,3.6554,3.6165,3.607,3.6054,3.6023,3.6274,3.6723,3.7531,3.779,3.786,3.8218,3.7847,3.7411,3.8133,3.7544,3.686,3.7589,3.6965,3.6259,3.698,3.66,3.6117,3.6508,3.6305,3.6023,3.6023,3.5765,3.5504,3.5504,3.5504,0.0,0.0,0.0,0.0,0.0,0.0,0.0,0.0,0.0,0.0,0.0,0.0,0.0,0.0,0.0,0.0,0.0,0.0,0.0,0.0,0.0,0.0,0.0,0.0,0.0,3.9388,3.9388,3.9388,3.9388,3.9388,3.9388,3.9454,4.0113,4.0397,4.0502,4.1856,4.2746,4.329,4.329,4.329,4.329,4.329,4.329,4.329,3.5684,3.5714,0.0,0.0,3.7195,0.0,3.8317,3.8975,3.923,3.8676,3.8482,3.8437,3.8601,3.8362,3.8242,3.8377,3.7225,3.6492,3.6492,3.5863,3.5504,3.5504,3.5504,3.5504,3.5504,3.5504,3.5504,0.0,0.0,0.0,0.0,0.0,0.0,0.0,0.0,0.0,0.0,0.0,3.71,3.6368,3.6368,3.6368,3.6306,3.5733,3.5863,3.6306,3.5894,3.5718,3.5958,3.7324,3.7978,3.8088,3.7674,3.7847,3.8117,3.7863,3.756,3.7354,3.7485,3.698,3.6368,3.6368,3.5926,3.5504,3.5504,3.5504,3.5504,3.5504,3.5504,3.5504,3.5504,3.5504,0.0,0.0,0.0,0.0,0.0,0.0,0.0,0.0,0.0,0.0,3.5504,0.0,0.0,0.0,0.0,0.0,0.0,0.0,0.0,0.0,0.0,3.7404,3.7404,0.0,3.9388,0.0,3.9388,3.9388,3.9388,3.9388,3.9388,3.9454,4.0113,4.0561,4.0905,4.2087,4.2865,4.329,4.329,4.329,4.329,4.329,4.329,4.329,0.0,0.0,0.0,0.0,0.0,0.0,3.8377,3.8975,3.9394,3.9334,3.8781,3.8631,3.926,3.8227,3.7749,3.8347,3.7225,3.6492,3.6492,3.5863,3.5504,3.5504,3.5504,3.5504,3.5504,3.5504,3.5504,0.0,0.0,0.0,0.0,0.0,0.0,0.0,0.0,0.0,0.0,3.6691,3.6275,3.5619,3.5619,3.5619,3.5587,3.5537,3.5522,3.5668,3.6275,3.6492,3.6615,3.7515,3.692,3.5926,3.6538,3.629,3.6085,3.7413,3.6799,3.5846,3.6538,3.618,3.5619,3.5619,3.5554,3.5504,3.5504,3.5504,3.5504,3.5504,3.5504,3.5504,3.5504,3.5504,3.5504,0.0,0.0,0.0,0.0,0.0,3.5504,3.5504,0.0,0.0,0.0,3.5504,0.0,0.0,0.0,0.0,0.0,0.0,0.0,3.5504,0.0,3.7404,3.7404,3.8751,0.0,3.9388,3.9388,3.9388,3.9388,3.9388,3.9388,3.9454,4.0113,4.107,4.2276,4.2955,4.3245,4.329,4.329,4.329,4.329,4.329,4.329,4.329,0.0,0.0,0.0,0.0,0.0,0.0,0.0,3.9245,3.9388,3.9388,3.8811,3.8347,3.8227,3.7734,3.7524,3.7778,3.6985,3.6492,3.6492,3.5863,3.5504,3.5504,3.5504,3.5504,3.5504,3.5504,3.5504,0.0,0.0,0.0,0.0,0.0,0.0,0.0,0.0,3.7188,3.6584,3.6149,3.5782,3.5504,3.5504,3.5504,3.5504,3.5504,3.5504,3.5537,3.5831,3.5943,3.5975,3.6305,3.6631,3.686,3.6646,3.6384,3.6196,3.6368,3.5973,3.5668,3.6384,3.6054,3.5619,3.6054,3.5831,3.5504,3.5504,3.5504,3.5504,3.5504,3.5504,3.5504,3.5504,3.5504,3.5504,0.0,0.0,0.0,0.0,0.0,0.0,3.5504,0.0,3.5504,0.0,0.0,0.0,0.0,0.0,0.0,0.0,0.0,0.0,3.6088,0.0,3.7599,3.8003,3.8945,3.9388,3.9388,3.9388,3.9388,3.9388,3.9388,3.9843,4.0636,4.1294,4.2102,4.297,4.3185,4.329,4.329,4.329,4.329,4.329,4.329,4.3544,4.3888,3.7659,0.0,3.7913,0.0,3.8691,3.8856,3.9349,3.9388,3.9239,3.8871,3.8571,3.8212,3.7749,3.718,3.6926,3.712,3.6567,3.6193,3.6193,3.5759,3.5504,3.5504,3.5504,0.0,3.5504,3.5504,3.5504,3.5504,3.5504,0.0,0.0,0.0,0.0,0.0,3.6492,3.6477,3.6244,3.5733,3.5504,3.5504,3.5504,3.5504,3.5504,3.5504,3.5504,3.5504,3.5504,3.5504,3.5504,3.5504,3.6227,3.7025,3.6461,3.6275,3.6165,3.5636,3.5504,3.5619,3.6149,3.5894,3.5619,3.6134,3.5894,3.5504,3.5504,3.5504,3.5504,3.5504,3.5504,3.5504,3.5504,3.5504,3.5504,3.5504,0.0,0.0,0.0,0.0,0.0,0.0,3.5504,3.5504,3.5504,3.5504,0.0,0.0,0.0,0.0,0.0,0.0,0.0,0.0,0.0,0.0,0.0,3.9065,3.9388,3.9388,3.9619,3.9709,3.9709,3.9903,4.0606,4.1737,4.2201,4.2731,4.329,4.329,4.329,4.329,4.329,4.329,4.329,4.329,4.3708,4.4317,3.8257,3.8377,3.8601,3.929,3.9373,3.9373,3.9388,3.9388,3.891,3.7614,3.7988,3.8392,3.8377,3.6671,3.5789,3.6432,3.5893,3.5519,3.5519,3.5504,3.5504,0.0,0.0,3.5504,3.5504,3.5504,3.5504,3.5504,0.0,0.0,3.6615,0.0,3.6951,3.5569,3.6275,3.6196,3.5504,3.5504,3.5504,3.5504,3.5504,3.5504,3.5504,3.5504,3.5504,3.5504,3.5504,3.5504,3.5504,3.5504,3.5504,3.5537,3.5504,3.5504,3.5504,3.5504,3.5504,3.5504,3.5504,3.5504,3.5504,3.5504,3.5504,3.5504,3.5504,3.5504,3.5504,3.5504,3.5504,3.5504,3.5504,3.5504,3.5504,3.5504,0.0,0.0,0.0,0.0,0.0,0.0,3.5504,3.5504,3.5504,0.0,0.0,0.0,0.0,0.0,0.0,0.0,0.0,3.6462,3.709,0.0,3.8377,3.9065,3.9388,3.9388,4.0083,4.0382,4.0412,4.1055,4.1767,4.2396,4.2396,4.2731,4.329,4.329,4.329,4.329,4.329,4.329,4.329,4.329,4.3708,4.4317,3.905,3.9095,3.9155,3.9343,3.9388,3.9388,3.9388,3.9388,3.9095,3.8197,3.7868,3.7569,3.7135,3.6537,3.6252,0.0,3.5893,3.5504,0.0,3.5504,3.5504,3.5504,3.5504,3.5504,3.5504,3.5504,3.5729,3.6178,0.0,0.0,0.0,3.6101,3.5973,3.5504,3.5765,3.5733,3.5504,3.5504,3.5504,3.5504,3.5504,3.5504,3.5504,3.5504,3.5504,3.5504,3.5504,3.5504,3.5504,3.5504,3.5504,3.5504,3.5504,3.5504,3.5504,3.5504,3.5504,3.5504,3.5504,3.5504,3.5504,3.5504,3.5504,3.5504,3.5504,3.5504,3.5504,3.5504,3.5504,3.5504,3.5504,3.5504,3.5504,3.5504,3.5504,0.0,0.0,0.0,0.0,0.0,3.5504,3.5504,0.0,3.5504,0.0,0.0,0.0,0.0,0.0,0.0,0.0,0.0,3.7749,0.0,3.9095,3.9305,3.9388,3.9388,4.0083,4.0636,4.1085,4.1796,4.2201,4.2425,4.2821,4.3135,4.329,4.329,4.329,4.329,4.329,4.329,4.329,4.329,4.3992,4.499,3.9388,3.9388,3.9388,3.9388,3.9388,3.9388,3.9388,3.9388,3.917,3.8482,3.8033,3.7539,3.6911,3.6626,0.0,3.6148,3.5968,3.5774,3.5519,3.5504,3.5609,3.5863,3.5878,3.5983,3.6222,0.0,0.0,3.6492,3.6073,3.5983,3.6222,3.6222,3.6222,3.6222,3.6222,3.6088,3.5878,3.5878,3.5729,3.5504,3.5504,3.5504,3.5504,3.5504,3.5504,3.5504,3.5504,3.5504,3.5504,3.5504,3.5504,3.5504,3.5504,3.5504,3.5504,3.5504,3.5504,3.5504,3.5504,3.5504,3.5504,3.5504,3.5504,3.5504,3.5504,3.5504,3.5504,3.5504,3.5504,3.5504,3.5504,3.5504,3.5504,3.5504,3.5504,3.5504,3.5504,0.0,0.0,0.0,0.0,0.0,0.0,3.5504,0.0,0.0,0.0,0.0,0.0,0.0,0.0,3.7749,3.8182,0.0,3.9373,3.9388,3.9544,3.9798,4.0711,4.1489,4.2132,4.2536,4.2731,4.2746,4.3125,4.329,4.329,4.329,4.329,4.329,4.329,4.329,4.3319,4.3574,4.4377,4.5334,3.9388,3.9388,0.0,0.0,3.9388,0.0,3.9388,3.9388,3.9155,3.8422,3.8317,3.8063,3.736,3.6806,3.6237,3.5624,0.0,0.0,0.0,3.5639,3.5893,3.6462,3.6537,3.6806,3.733,3.6821,3.6552,3.6552,3.6596,3.6866,3.7345,3.7345,3.7315,3.7285,3.7285,3.6956,3.6417,3.6417,3.6073,3.5504,3.5504,3.5504,3.5504,3.5504,3.5504,3.5504,3.5504,3.5504,3.5504,3.5504,3.5504,3.5504,3.5504,3.5504,3.5504,3.5504,3.5504,3.5504,3.5504,3.5504,3.5504,3.5504,3.5504,3.5504,3.5504,3.5504,3.5504,3.5504,3.5504,3.5504,3.5504,3.5504,3.5504,3.5504,3.5504,3.5504,3.5504,0.0,0.0,0.0,0.0,0.0,0.0,3.5504,3.5504,0.0,0.0,0.0,0.0,0.0,3.712,3.8347,3.8437,3.8766,3.9373,3.9388,3.9768,4.0487,4.1752,4.2656,4.329,4.329,4.329,4.329,4.329,4.329,4.329,4.329,4.329,4.329,4.329,4.329,4.3364,4.4062,4.4721,4.5394,0.0,0.0,3.9388,3.9388,3.9388,3.9388,3.9388,3.9388,3.899,3.7793,3.7644,3.721,3.6073,3.6267,3.6432,3.6267,3.6402,3.6626,3.6941,3.6956,3.6821,3.6492,3.6941,3.7045,3.6716,3.703,3.7195,3.7195,3.7689,3.7524,3.6701,3.6701,3.6432,3.5953,3.5953,3.5878,3.5744,3.5744,3.5654,3.5504,3.5504,3.5504,3.5504,3.5504,3.5504,3.5504,3.5504,3.5504,3.5504,3.5504,3.5504,3.5504,3.5504,3.5504,3.5504,3.5504,3.5504,3.5504,3.5504,3.5504,3.5504,3.5504,3.5504,3.5504,3.5504,3.5504,3.5504,3.5504,3.5504,3.5504,3.5504,3.5504,3.5504,3.5504,3.5504,3.5504,3.5504,3.5504,0.0,0.0,3.5504,3.5504,3.5504,3.5504,3.5504,0.0,0.0,0.0,0.0,3.7195,3.7554,3.8362,3.8901,3.926,3.9388,3.9388,3.9993,4.1145,4.1512,4.2222,4.329,4.329,4.329,4.329,4.329,4.329,4.329,4.329,4.329,4.329,4.329,4.329,4.3364,4.4062,4.4721,4.5394,3.9933,3.9873,3.9768,3.9433,3.9388,3.9388,3.9388,3.9388,3.9119,3.8422,3.8063,3.7584,3.6896,3.6881,3.703,3.733,3.709,3.7045,3.7389,3.7404,3.7389,3.736,3.7674,3.7853,3.7823,3.7853,3.7719,3.7404,3.7764,3.7584,3.6911,3.6911,3.6881,3.6821,3.6821,3.6821,3.6821,3.6821,3.6492,3.5953,3.5953,3.5774,3.5504,3.5504,3.5504,3.5504,3.5504,3.5504,3.5504,3.5504,3.5504,3.5504,3.5504,3.5504,3.5564,3.5863,3.5744,3.5504,3.5504,3.5504,3.5504,3.5504,3.5504,3.5504,3.5504,3.5504,3.5504,3.5504,3.5504,3.5504,3.5504,3.5504,3.5504,3.5504,3.5504,3.5504,3.5504,3.5504,0.0,3.5504,3.5504,3.5504,3.5504,3.5504,3.5624,3.5923,0.0,0.0,3.7793,3.7853,3.8167,3.8841,3.923,3.9388,3.9388,3.9709,4.0382,4.1422,4.1722,4.2357,4.329,4.329,4.329,4.329,4.329,4.329,4.329,4.329,4.329,4.329,4.329,4.329,4.3409,4.4407,4.499,4.5439,4.0502,4.0322,4.0083,3.9514,3.9388,3.9388,3.9388,3.9388,3.9343,3.9239,3.8751,3.8347,3.8257,3.7749,3.7674,3.8332,3.7883,3.7599,3.7704,3.7719,3.7913,3.8362,3.8497,3.8721,3.9074,3.8542,3.7973,3.7404,3.7509,3.7509,3.7404,3.7509,3.7808,3.8242,3.8138,3.8108,3.8108,3.8108,3.7479,3.6492,3.6596,3.6282,3.5789,3.5684,3.5654,3.5639,3.5549,3.5504,3.5504,3.5504,3.5564,3.5654,3.5654,3.5714,3.5908,3.6462,3.6222,3.5789,3.5789,3.5789,3.5789,3.5789,3.5789,3.5789,3.5789,3.5729,3.5654,3.5654,3.5579,3.5504,3.5504,3.5504,3.5504,3.5504,3.5504,3.5504,3.5504,0.0,3.5504,3.5504,3.5504,3.5504,3.5504,3.5594,3.5893,3.6447,3.6567,3.7135,0.0,3.8392,3.8706,3.9394,3.9388,3.9433,3.9574,4.0127,4.0786,4.1572,4.2126,4.2701,4.329,4.329,4.329,4.329,4.329,4.329,4.329,4.329,4.329,4.3305,4.3409,4.3439,4.3604,4.496,4.5454,4.5633,4.0427,3.9948,3.9508,3.9439,3.9388,3.9388,3.9388,3.9388,3.9215,3.8631,3.8452,3.8182,3.7629,3.7464,3.7674,3.8332,3.8287,3.8482,3.9065,3.9074,3.8886,3.8407,3.8945,3.8766,3.7734,3.7614,3.7509,3.7404,3.7958,3.7943,3.7419,3.7973,3.8003,3.7539,3.7015,3.6776,3.6776,3.6776,3.6671,3.6537,3.706,3.721,3.706,3.6537,3.6327,3.6267,3.5699,3.5504,3.5504,3.5504,3.5878,3.6327,3.6327,3.6686,3.7135,3.724,3.7195,3.712,3.712,3.712,3.712,3.712,3.712,3.712,3.712,3.6701,3.6327,3.6327,3.5893,3.5504,3.5504,3.5504,3.5504,3.5504,3.5504,3.5504,3.5504,0.0,3.5504,3.5504,3.5504,3.5504,3.5504,3.6013,3.6372,3.6477,3.6971,3.7599,3.8347,3.8392,3.8706,3.9394,3.9388,3.9694,4.0247,4.0352,4.101,4.2246,4.2351,4.2701,4.329,4.329,4.329,4.329,4.329,4.329,4.329,4.329,4.329,4.3349,4.3902,4.4127,4.4332,4.5663,4.6115,4.6277,4.1534,4.0935,4.0367,4.0008,3.9649,3.9388,3.9388,3.9388,3.9305,3.899,3.8945,3.8826,3.8527,3.8497,3.8616,3.8916,3.8945,3.908,3.9394,3.9388,3.9239,3.896,3.9245,3.8945,3.7958,3.8302,3.8138,3.7404,3.8063,3.8063,3.7419,3.7719,3.7883,3.7928,3.7644,3.7719,3.8063,3.8063,3.7853,3.7539,3.7823,3.7719,3.7375,3.709,3.6985,3.6941,3.6641,3.6522,3.6522,3.6522,3.6731,3.6985,3.6985,3.718,3.7479,3.7838,3.7689,3.7404,3.7404,3.7404,3.7404,3.7404,3.7404,3.7404,3.7404,3.718,3.6985,3.6985,3.6746,3.6432,3.6088,3.6028,3.6028,3.6028,3.5744,0.0,0.0,3.5729,3.5504,3.5504,3.5818,3.6028,3.6028,3.6611,3.712,3.7494,3.7778,3.8227,3.8901,3.8945,3.9095,3.9373,3.9768,4.0098,4.0397,4.0756,4.1452,4.2396,4.2396,4.2701,4.329,4.329,4.329,4.329,4.329,4.329,4.329,4.329,4.329,4.3364,4.4062,4.4317,4.4481,4.5828,4.6279,4.6384,4.25,4.1871,4.1175,4.0516,3.9978,3.9589,3.9403,3.9388,3.9388,3.9388,3.9388,3.9388,3.9388,3.9388,3.9388,3.9388,3.9388,3.9388,3.9388,3.9388,3.9388,3.9388,3.9275,3.8856,3.8182,3.8676,3.8377,3.7195,3.8003,3.8138,3.7644,3.7793,3.8138,3.8616,3.8467,3.8691,3.9185,3.9185,3.8871,3.8407,3.8556,3.8317,3.7853,3.7704,3.7644,3.7614,3.7464,3.7404,3.7404,3.7404,3.7509,3.7644,3.7644,3.7749,3.7973,3.8482,3.8272,3.7838,3.7674,3.7764,3.7868,3.7868,3.7868,3.7868,3.7868,3.7749,3.7644,3.7644,3.7524,3.727,3.6791,3.6701,3.6656,3.6507,0.0,0.0,0.0,3.6058,3.5789,3.5938,3.6402,3.6701,3.6701,3.727,3.7853,3.8347,3.8542,3.8856,3.9358,3.9574,3.9709,3.9873,4.0217,4.0472,4.0621,4.128,4.1976,4.262,4.262,4.2851,4.329,4.329,4.329,4.329,4.329,4.329,4.329,4.329,4.3379,4.3589,4.4287,4.4646,4.493,4.6112,4.6503,4.6621,4.241,4.1871,4.1175,4.0516,4.0367,4.0127,3.9478,3.9388,3.9388,3.9388,3.9388,3.9388,3.9388,3.9388,3.9388,3.9388,3.9388,3.9388,3.9388,3.9388,3.9388,3.9388,3.8811,3.8153,3.7494,3.7524,3.7225,3.6552,3.7793,3.8362,3.8332,3.8975,3.9269,3.932,3.8676,3.8422,3.8467,3.8467,3.8437,3.8437,3.9095,3.932,3.92,3.8556,3.8317,3.8242,3.7629,3.7404,3.7404,3.7404,3.7808,3.8317,3.8317,3.8751,3.9239,3.9334,3.9269,3.9125,3.8497,3.8781,3.9275,3.9275,3.9275,3.9275,3.9275,3.8781,3.8317,3.8317,3.7838,3.7404,3.7345,3.7345,3.715,3.6582,0.0,0.0,3.6477,3.6447,3.6626,3.7195,3.7315,3.7345,3.7345,3.7943,3.8347,3.8392,3.899,3.9364,3.9388,3.9993,4.0606,4.122,4.0696,4.0696,4.1309,4.1991,4.2611,4.3215,4.3215,4.3245,4.329,4.329,4.329,4.329,4.329,4.329,4.329,4.329,4.3648,4.4302,4.496,4.5618,4.6219,4.698,4.7234,4.7234,4.297,4.2432,4.1946,4.1692,4.128,4.0786,4.0127,4.0023,3.9888,3.9433,3.9388,3.9388,3.9388,3.9388,3.9388,3.9388,3.9388,3.9388,3.9388,3.9388,3.9388,3.9388,3.917,3.8721,3.8033,3.8437,3.8332,3.7674,3.8586,3.9035,3.9035,3.929,3.9388,3.9373,3.914,3.9035,3.9035,3.9035,3.9035,3.905,3.932,3.9388,3.9394,3.9125,3.9035,3.899,3.8751,3.8646,3.8646,3.8646,3.8826,3.9035,3.9035,3.9215,3.9388,3.9388,3.9388,3.9454,3.9604,3.9529,3.9388,3.9388,3.9388,3.9388,3.9388,3.9215,3.9035,3.9035,3.8826,3.8527,3.8093,3.8018,3.7943,3.7704,0.0,3.7195,3.7614,3.7315,3.715,3.7375,3.7764,3.8018,3.8018,3.8631,3.92,3.9604,3.9888,4.0202,4.0606,4.0876,4.113,4.1407,4.1572,4.1767,4.2021,4.2641,4.309,4.329,4.329,4.329,4.329,4.329,4.329,4.329,4.329,4.329,4.3319,4.3738,4.4092,4.4421,4.5514,4.6097,4.6396,4.7055,4.7309,4.7309,4.329,4.297,4.2635,4.2425,4.2036,4.1512,4.0816,4.0531,4.0232,3.9783,3.9544,3.9388,3.9388,3.9388,3.9388,3.9388,3.9388,3.9388,3.9388,3.9388,3.9388,3.9388,3.9388,3.9095,3.8407,3.9065,3.908,3.8392,3.908,3.9388,3.9388,3.9388,3.9388,3.9388,3.9388,3.9388,3.9388,3.9388,3.9388,3.9388,3.9388,3.9388,3.9388,3.9388,3.9388,3.9388,3.9388,3.9388,3.9388,3.9388,3.9388,3.9454,3.9664,3.9873,3.9993,3.9783,3.9873,4.0083,4.0337,4.0217,3.9993,3.9783,3.9723,3.9723,3.9723,3.9723,3.9783,3.9993,4.0038,3.9888,3.9424,3.9155,3.896,3.8751,3.8153,3.7868,3.8332,3.8003,3.7793,3.8018,3.8437,3.8706,3.8706,3.9334,3.9903,4.0367,4.0591,4.0995,4.1692,4.1527,4.1564,4.1983,4.2276,4.25,4.2671,4.3105,4.329,4.329,4.329,4.329,4.3305,4.3499,4.3604,4.3618,4.3828,4.3943,4.3947,4.4436,4.4751,4.5035,4.5963,4.6456,4.6696,4.713,4.7309,4.7309,4.329,4.329,4.3135,4.2515,4.241,4.2186,4.1527,4.0831,4.0412,4.0397,3.9828,3.9424,3.9388,3.9388,3.9424,3.9388,3.9388,3.9424,3.9388,3.9388,3.9388,3.9388,3.9388,3.9095,3.8407,3.9065,3.908,3.8407,3.908,3.9388,3.9388,3.9388,3.9388,3.9388,3.9388,3.9388,3.9388,3.9388,3.9388,3.9388,3.9388,3.9388,3.9388,3.9424,3.9388,3.9388,3.9388,3.9388,3.9388,3.9388,3.9388,3.9508,4.0202,4.0846,4.125,4.0591,4.0876,4.1272,4.0591,4.0891,4.1235,4.0576,4.0412,4.0412,4.0412,4.0412,4.0591,4.125,4.1422,4.1422,4.1422,4.0846,4.0187,3.9508,3.8856,3.8407,3.8407,3.8407,3.8661,3.9349,3.9439,3.9439,3.9439,4.0023,4.0412,4.0412,4.1025,4.1722,4.2366,4.1796,4.1983,4.3245,4.2701,4.2671,4.329,4.329,4.329,4.329,4.329,4.329,4.3319,4.4018,4.4317,4.4362,4.5005,4.5289,4.5289,4.5304,4.5708,4.6279,4.6337,4.6726,4.7309,4.7309,4.7309,4.7309,4.329,4.329,4.323,4.3075,4.3045,4.2821,4.2216,4.1946,4.1482,4.0516,4.0232,3.9933,3.9433,3.9828,3.9918,3.9454,3.9843,3.9903,3.9454,3.9388,3.9388,3.9388,3.9388,3.9334,3.9125,3.932,3.932,3.911,3.932,3.9388,3.9388,3.9388,3.9388,3.9388,3.9388,3.9388,3.9388,3.9388,3.9388,3.9388,3.9388,3.9388,3.9433,3.9933,4.0113,4.0113,4.0113,4.0113,4.0113,4.0113,4.0113,4.0232,4.0876,4.122,4.1339,4.1145,4.122,4.1482,4.1737,4.1961,4.1946,4.125,4.1085,4.1085,4.1085,4.1085,4.1145,4.1339,4.1422,4.1422,4.1422,4.122,4.1025,4.0831,4.0621,4.0524,4.0524,4.0524,4.0561,4.0771,4.0786,4.0786,4.0786,4.0965,4.128,4.1782,4.2387,4.2836,4.303,4.2851,4.2886,4.329,4.315,4.3135,4.329,4.329,4.329,4.329,4.329,4.3544,4.3992,4.4227,4.4571,4.5005,4.5214,4.5289,4.5334,4.5813,4.6142,4.6324,4.683,4.713,4.7309,4.7309,4.7309,4.7309,4.329,4.329,4.329,4.329,4.329,4.317,4.2806,4.256,4.2111,4.128,4.095,4.0531,3.9873,4.0172,4.0247,3.9843,4.0172,4.0127,3.9433,3.9388,3.9388,3.9388,3.9388,3.9388,3.9388,3.9388,3.9388,3.9388,3.9388,3.9388,3.9388,3.9388,3.9388,3.9388,3.9388,3.9388,3.9388,3.9388,3.9388,3.9388,3.9388,3.9388,3.9448,4.0142,4.0397,4.0397,4.0397,4.0561,4.0756,4.0487,4.0741,4.125,4.1677,4.1953,4.2102,4.1886,4.1953,4.2177,4.2366,4.259,4.2656,4.2252,4.1953,4.1811,4.1811,4.1811,4.1871,4.2102,4.2147,4.2147,4.2147,4.1953,4.1811,4.1811,4.1587,4.1422,4.1422,4.1422,4.1422,4.1422,4.1422,4.1422,4.1422,4.1647,4.2081,4.2701,4.3105,4.329,4.329,4.329,4.329,4.329,4.329,4.3424,4.3678,4.3424,4.329,4.329,4.3559,4.3888,4.4332,4.487,4.5319,4.5723,4.5978,4.6082,4.6127,4.6546,4.6711,4.6756,4.7145,4.7309,4.7309,4.7309,4.7309,4.7309,4.329,4.329,4.329,4.329,4.329,4.329,4.329,4.2821,4.247,4.241,4.1871,4.122,4.0561,4.0531,4.0546,4.0487,4.0427,4.0127,3.9433,3.9388,3.9388,3.9388,3.9388,3.9388,3.9388,3.9388,3.9388,3.9388,3.9388,3.9388,3.9388,3.9388,3.9388,3.9388,3.9448,3.9514,3.9514,3.9574,3.9589,3.9589,3.9589,3.9589,3.9664,4.0322,4.0576,4.0576,4.0576,4.0965,4.1422,4.0771,4.1414,4.2485,4.2485,4.2865,4.317,4.2626,4.2865,4.317,4.265,4.288,4.329,4.329,4.2895,4.2485,4.2485,4.2485,4.2626,4.317,4.329,4.329,4.329,4.2851,4.2485,4.2485,4.1991,4.1549,4.1549,4.1549,4.1549,4.1549,4.1549,4.1549,4.1549,4.2126,4.2701,4.3245,4.329,4.3319,4.3379,4.3379,4.3409,4.3469,4.3469,4.3753,4.4392,4.3768,4.3469,4.3484,4.4062,4.4347,4.4451,4.5738,4.6279,4.6324,4.7025,4.7309,4.7309,4.7309,4.7309,4.7309,4.7309,4.7309,4.7309,4.7309,4.7309,4.7309,4.329,4.329,4.329,4.329,4.329,4.329,4.329,4.317,4.294,4.247,4.2276,4.1931,4.125,4.1662,4.1767,4.1205,4.0696,4.0127,3.9433,3.9388,3.9388,3.9388,3.9388,3.9388,3.9388,3.9388,3.9388,3.9388,3.9388,3.9388,3.9388,3.9388,3.9388,3.9403,3.9963,4.0187,4.0217,4.0726,4.095,4.095,4.095,4.095,4.1025,4.1722,4.1976,4.1976,4.1976,4.2066,4.2171,4.2021,4.2462,4.312,4.312,4.317,4.326,4.3125,4.3185,4.326,4.3125,4.3185,4.329,4.329,4.3185,4.312,4.312,4.312,4.3125,4.326,4.329,4.329,4.329,4.317,4.312,4.312,4.2961,4.2871,4.2871,4.2871,4.2871,4.2871,4.2871,4.2871,4.2871,4.3006,4.314,4.329,4.329,4.3514,4.4077,4.4067,4.4332,4.4855,4.487,4.4945,4.508,4.4945,4.487,4.487,4.4496,4.4586,4.511,4.5948,4.6279,4.6324,4.7025,4.7309,4.7309,4.7309,4.7309,4.7309,4.7309,4.7309,4.7309,4.7309,4.7309,4.7309,4.329,4.329,4.329,4.329,4.329,4.329,4.329,4.329,4.317,4.2865,4.2821,4.2581,4.1961,4.2186,4.2006,4.0995,4.0591,4.0127,3.9433,3.9709,3.9888,3.9888,4.0187,4.0352,4.0352,4.0352,4.0202,3.9888,3.9888,4.0053,4.0352,4.0352,4.0352,4.0367,4.0711,4.0876,4.0891,4.1235,4.1422,4.1422,4.1422,4.1422,4.1444,4.2156,4.2396,4.2396,4.2396,4.2396,4.244,4.2716,4.3045,4.329,4.329,4.329,4.329,4.329,4.329,4.329,4.329,4.329,4.329,4.329,4.3529,4.3678,4.3364,4.329,4.329,4.329,4.329,4.329,4.329,4.329,4.329,4.329,4.329,4.329,4.329,4.329,4.329,4.329,4.329,4.329,4.329,4.3574,4.3768,4.3768,4.4092,4.4421,4.4766,4.4781,4.4945,4.5289,4.5289,4.5454,4.5783,4.5454,4.5618,4.6247,4.5589,4.5454,4.5813,4.6486,4.6621,4.6324,4.7025,4.713,4.686,4.7174,4.7309,4.7309,4.7309,4.7309,4.7309,4.7309,4.7309,4.7309,4.329,4.329,4.329,4.329,4.329,4.329,4.329,4.329,4.329,4.329,4.329,4.3135,4.262,4.256,4.2081,4.0846,4.0726,4.0457,3.9798,4.0262,4.0561,4.0561,4.1085,4.1422,4.1422,4.1422,4.1115,4.0561,4.0561,4.0846,4.1422,4.1422,4.1422,4.1422,4.1542,4.1587,4.1587,4.1669,4.1713,4.1713,4.1713,4.1713,4.1773,4.2351,4.256,4.256,4.256,4.256,4.265,4.315,4.329,4.329,4.329,4.329,4.3319,4.3424,4.3469,4.3484,4.3604,4.3618,4.3618,4.3618,4.4077,4.4347,4.3753,4.3544,4.3424,4.3319,4.329,4.329,4.329,4.3379,4.3424,4.3305,4.3394,4.3424,4.3305,4.329,4.329,4.329,4.3394,4.3469,4.3469,4.4092,4.4481,4.4481,4.499,4.5349,4.5469,4.5469,4.5529,4.5633,4.5633,4.5918,4.6486,4.5918,4.6202,4.7294,4.6756,4.6384,4.6309,4.701,4.695,4.6324,4.7025,4.6995,4.6488,4.7085,4.7309,4.7309,4.7309,4.7309,4.7309,4.7309,4.7309,4.7309,4.329,4.329,4.329,4.329,4.329,4.329,4.329,4.329,4.329,4.329,4.329,4.326,4.317,4.317,4.291,4.2201,4.2126,4.1856,4.116,4.119,4.125,4.125,4.1324,4.1422,4.1422,4.1422,4.1377,4.125,4.125,4.1294,4.1422,4.1422,4.1422,4.1452,4.2006,4.2261,4.2306,4.2836,4.3021,4.3021,4.3021,4.3021,4.3035,4.3125,4.317,4.317,4.317,4.317,4.317,4.326,4.329,4.329,4.329,4.329,4.3409,4.3977,4.4182,4.4302,4.487,4.5035,4.5035,4.5035,4.5095,4.514,4.505,4.4586,4.4018,4.3409,4.329,4.329,4.329,4.3753,4.3947,4.3379,4.3768,4.3947,4.3379,4.329,4.329,4.329,4.3798,4.4182,4.4182,4.4781,4.5155,4.5155,4.5244,4.5559,4.6157,4.6145,4.6441,4.701,4.704,4.707,4.7174,4.707,4.713,4.7309,4.7219,4.6875,4.6309,4.701,4.695,4.6324,4.7025,4.7249,4.7174,4.7264,4.7309,4.7309,4.7309,4.7309,4.7309,4.7309,4.7309,4.7309,4.329,4.329,4.329,4.329,4.329,4.329,4.329,4.329,4.329,4.329,4.329,4.329,4.329,4.3015,4.2671,4.2425,4.2066,4.1737,4.1399,4.1767,4.1976,4.1976,4.2282,4.2476,4.2476,4.2476,4.2476,4.2476,4.2102,4.2117,4.2476,4.2476,4.2476,4.2476,4.2776,4.2895,4.2925,4.317,4.329,4.329,4.329,4.329,4.329,4.329,4.329,4.329,4.329,4.329,4.329,4.329,4.329,4.3364,4.3723,4.3589,4.3499,4.4556,4.4601,4.4466,4.511,4.5289,4.5289,4.5289,4.5589,4.5768,4.5394,4.5364,4.5244,4.4571,4.4421,4.4421,4.4421,4.4661,4.4766,4.4481,4.4676,4.4766,4.4466,4.4421,4.4421,4.4421,4.4691,4.487,4.487,4.5484,4.5873,4.5873,4.6217,4.6561,4.686,4.6875,4.701,4.7294,4.7309,4.7309,4.7309,4.7309,4.7309,4.7309,4.7309,4.716,4.6875,4.7174,4.695,4.6324,4.7025,4.71,4.6785,4.716,4.7309,4.7309,4.7309,4.7309,4.7309,4.7309,4.7309,4.7309]}]]